[[{"header":{"parameterUnit":"m.s-1","parameterCategory":1,"la1":30.6,"la2":29.2853,"lo1":-89.7004,"lo2":-87.6739,"dy":0.0162,"dx":0.0183,"nx":112,"ny":82,"refTime":"2023-11-05T00:00:00:Z","depth":0,"parameterNumber":2,"parameterNumberName":"U-component_of_WINDS"},"data":[0.0,0.0,0.0,0.0,0.0,0.0,0.0,0.0,0.0,0.0,0.0,0.0,0.0,0.0,0.0,0.0,0.0,0.0,0.0,0.0,0.0,0.0,0.0,0.0,0.0,0.0,0.0,0.0,0.0,0.0,0.0,0.0,0.0,0.0,0.0,0.0,0.0,0.0,0.0,0.0,0.0,0.0,0.0,0.0,0.0,0.0,0.0,0.0,0.0,0.0,0.0,0.0,0.0,0.0,0.0,0.0,0.0,0.0,0.0,0.0,0.0,0.0,0.0,0.0,0.0,0.0,0.0,0.0,0.0,0.0,0.0,0.0,0.0,0.0,0.0,0.0,0.0,0.0,0.0,0.0,0.0,0.0,0.0,0.0,0.0,0.0,0.0,0.0,0.0,0.0,-2.6996,-2.9738,-3.3494,-3.6254,-3.7351,-3.4792,-3.2401,-3.0636,0.0,0.0,0.0,0.0,0.0,0.0,0.0,0.0,0.0,0.0,0.0,0.0,0.0,0.0,0.0,0.0,0.0,0.0,0.0,0.0,0.0,0.0,0.0,0.0,0.0,0.0,0.0,0.0,0.0,0.0,0.0,0.0,0.0,0.0,0.0,0.0,0.0,0.0,0.0,0.0,0.0,0.0,0.0,0.0,0.0,0.0,0.0,0.0,0.0,0.0,0.0,0.0,0.0,0.0,0.0,0.0,0.0,0.0,0.0,0.0,0.0,0.0,0.0,0.0,0.0,0.0,0.0,0.0,0.0,0.0,0.0,0.0,0.0,0.0,0.0,0.0,0.0,0.0,0.0,0.0,0.0,0.0,0.0,0.0,0.0,0.0,0.0,0.0,0.0,0.0,0.0,0.0,0.0,0.0,0.0,0.0,0.0,0.0,0.0,0.0,0.0,0.0,0.0,0.0,-2.9294,-3.4078,-3.5321,-3.5934,-3.6229,-3.2823,-3.0245,-2.9328,0.0,0.0,0.0,0.0,0.0,0.0,0.0,0.0,0.0,0.0,0.0,0.0,0.0,0.0,0.0,0.0,0.0,0.0,0.0,0.0,0.0,0.0,0.0,0.0,0.0,0.0,0.0,0.0,0.0,0.0,0.0,0.0,0.0,0.0,0.0,0.0,0.0,0.0,0.0,0.0,0.0,0.0,0.0,0.0,0.0,0.0,0.0,0.0,0.0,0.0,0.0,0.0,0.0,0.0,0.0,0.0,0.0,0.0,0.0,0.0,0.0,0.0,0.0,0.0,0.0,0.0,0.0,0.0,0.0,0.0,0.0,0.0,0.0,0.0,0.0,0.0,0.0,0.0,0.0,0.0,0.0,0.0,0.0,0.0,0.0,0.0,0.0,0.0,0.0,0.0,0.0,0.0,0.0,0.0,0.0,0.0,0.0,0.0,0.0,0.0,0.0,0.0,0.0,-2.7604,-3.0125,-3.4539,-3.5057,-3.4992,-3.4725,-3.1046,-2.8624,-2.8379,-2.6273,0.0,0.0,0.0,0.0,0.0,0.0,0.0,0.0,0.0,0.0,0.0,0.0,0.0,0.0,0.0,0.0,0.0,0.0,0.0,0.0,0.0,0.0,0.0,0.0,0.0,0.0,0.0,0.0,0.0,0.0,0.0,0.0,0.0,0.0,0.0,0.0,0.0,0.0,0.0,0.0,0.0,0.0,0.0,0.0,0.0,0.0,0.0,0.0,0.0,0.0,0.0,0.0,0.0,0.0,0.0,0.0,0.0,0.0,0.0,0.0,0.0,0.0,0.0,0.0,0.0,0.0,0.0,0.0,0.0,0.0,0.0,0.0,0.0,0.0,0.0,0.0,0.0,0.0,0.0,0.0,0.0,0.0,0.0,0.0,0.0,0.0,0.0,0.0,0.0,0.0,0.0,0.0,0.0,0.0,0.0,0.0,0.0,0.0,0.0,0.0,0.0,0.0,-2.8891,-3.0347,-3.3863,-3.4235,-3.3944,-3.3169,-2.9695,-2.7581,-2.7553,-2.4541,0.0,0.0,0.0,0.0,0.0,0.0,0.0,0.0,0.0,0.0,0.0,0.0,0.0,0.0,0.0,0.0,0.0,0.0,0.0,0.0,0.0,0.0,0.0,0.0,0.0,0.0,0.0,0.0,0.0,0.0,0.0,0.0,0.0,0.0,0.0,0.0,0.0,0.0,0.0,0.0,0.0,0.0,0.0,0.0,0.0,0.0,0.0,0.0,0.0,0.0,0.0,0.0,0.0,0.0,0.0,0.0,0.0,0.0,0.0,0.0,0.0,0.0,0.0,0.0,0.0,0.0,0.0,0.0,0.0,0.0,0.0,0.0,0.0,0.0,0.0,0.0,0.0,0.0,0.0,0.0,0.0,0.0,0.0,0.0,0.0,0.0,0.0,0.0,0.0,0.0,0.0,0.0,0.0,0.0,0.0,0.0,0.0,0.0,0.0,0.0,0.0,0.0,-2.8535,-3.0161,-3.3169,-3.3491,-3.2981,-3.1752,-2.909,-2.7324,-2.6896,-2.4246,0.0,0.0,0.0,0.0,0.0,0.0,0.0,0.0,0.0,0.0,0.0,0.0,0.0,0.0,0.0,0.0,0.0,0.0,0.0,0.0,0.0,0.0,0.0,0.0,0.0,0.0,0.0,0.0,0.0,0.0,0.0,0.0,0.0,0.0,0.0,0.0,0.0,0.0,0.0,0.0,0.0,0.0,0.0,0.0,0.0,0.0,0.0,0.0,0.0,0.0,0.0,0.0,0.0,0.0,0.0,0.0,0.0,0.0,0.0,0.0,0.0,0.0,0.0,0.0,0.0,0.0,0.0,0.0,0.0,0.0,0.0,0.0,0.0,0.0,0.0,0.0,0.0,0.0,0.0,0.0,0.0,0.0,0.0,0.0,0.0,0.0,0.0,0.0,0.0,0.0,0.0,0.0,0.0,0.0,0.0,0.0,0.0,0.0,0.0,0.0,0.0,0.0,-2.7097,-2.8535,0.0,-3.134,-3.0753,-2.932,-2.6847,-2.5316,-2.5191,0.0,0.0,0.0,0.0,0.0,0.0,0.0,0.0,0.0,0.0,0.0,0.0,0.0,0.0,0.0,0.0,0.0,0.0,0.0,0.0,0.0,0.0,0.0,0.0,0.0,0.0,0.0,0.0,0.0,0.0,0.0,0.0,0.0,0.0,0.0,0.0,0.0,0.0,0.0,0.0,0.0,0.0,0.0,0.0,0.0,0.0,0.0,0.0,0.0,0.0,0.0,0.0,0.0,0.0,0.0,0.0,0.0,0.0,0.0,0.0,0.0,0.0,0.0,0.0,0.0,0.0,0.0,0.0,0.0,0.0,0.0,0.0,0.0,0.0,0.0,0.0,0.0,0.0,0.0,0.0,0.0,0.0,0.0,0.0,0.0,0.0,0.0,0.0,0.0,0.0,0.0,0.0,0.0,0.0,0.0,0.0,0.0,0.0,0.0,0.0,0.0,0.0,-2.5305,-2.6048,-2.7215,0.0,-2.9533,-2.8772,-2.7266,-2.504,-2.378,-2.3887,0.0,0.0,0.0,0.0,0.0,0.0,0.0,0.0,0.0,0.0,0.0,0.0,0.0,0.0,0.0,0.0,0.0,0.0,0.0,0.0,0.0,0.0,0.0,0.0,0.0,0.0,0.0,0.0,0.0,0.0,0.0,0.0,0.0,0.0,0.0,0.0,0.0,0.0,0.0,0.0,0.0,0.0,0.0,0.0,0.0,0.0,0.0,0.0,0.0,0.0,0.0,0.0,0.0,0.0,0.0,0.0,0.0,0.0,0.0,0.0,0.0,0.0,0.0,0.0,0.0,0.0,0.0,0.0,0.0,0.0,0.0,0.0,0.0,0.0,0.0,0.0,0.0,0.0,0.0,0.0,0.0,0.0,0.0,0.0,0.0,0.0,0.0,0.0,0.0,0.0,0.0,0.0,0.0,0.0,0.0,0.0,0.0,0.0,0.0,0.0,0.0,0.0,-2.5288,-2.5576,-2.6437,-2.8722,-2.8247,-2.7199,-2.579,-2.3953,-2.2963,0.0,0.0,0.0,0.0,0.0,0.0,0.0,0.0,0.0,0.0,0.0,0.0,0.0,0.0,0.0,0.0,0.0,0.0,0.0,0.0,0.0,0.0,0.0,0.0,0.0,0.0,0.0,0.0,0.0,0.0,0.0,0.0,0.0,0.0,0.0,0.0,0.0,0.0,0.0,0.0,0.0,0.0,0.0,0.0,0.0,0.0,0.0,0.0,0.0,0.0,0.0,0.0,0.0,0.0,0.0,0.0,0.0,0.0,0.0,0.0,0.0,0.0,0.0,0.0,0.0,0.0,0.0,0.0,0.0,0.0,0.0,0.0,0.0,0.0,0.0,0.0,0.0,0.0,0.0,0.0,0.0,0.0,0.0,0.0,0.0,0.0,0.0,0.0,0.0,0.0,0.0,0.0,0.0,0.0,0.0,0.0,0.0,0.0,0.0,0.0,0.0,0.0,0.0,-2.4541,-2.4374,-2.4695,-2.642,-2.6404,-2.5503,-2.3671,-2.266,-2.2247,-2.2549,0.0,0.0,0.0,0.0,0.0,0.0,0.0,0.0,0.0,0.0,0.0,0.0,0.0,0.0,0.0,0.0,0.0,0.0,0.0,0.0,0.0,0.0,0.0,0.0,0.0,0.0,0.0,0.0,0.0,0.0,0.0,0.0,0.0,0.0,0.0,0.0,0.0,0.0,0.0,0.0,0.0,0.0,0.0,0.0,0.0,0.0,0.0,0.0,0.0,0.0,0.0,0.0,0.0,0.0,0.0,0.0,0.0,0.0,0.0,0.0,0.0,0.0,0.0,0.0,0.0,0.0,0.0,0.0,0.0,0.0,0.0,0.0,0.0,0.0,0.0,0.0,0.0,0.0,0.0,0.0,0.0,0.0,0.0,0.0,0.0,0.0,0.0,0.0,0.0,0.0,0.0,0.0,0.0,0.0,0.0,0.0,0.0,0.0,0.0,0.0,0.0,0.0,-2.3848,-2.3663,-2.3849,-2.5033,-2.4898,-2.3994,-2.2177,-2.1621,-2.1329,-2.1228,0.0,0.0,0.0,0.0,0.0,0.0,0.0,0.0,0.0,0.0,0.0,0.0,0.0,0.0,0.0,0.0,0.0,0.0,0.0,0.0,0.0,0.0,0.0,0.0,0.0,0.0,0.0,0.0,0.0,0.0,0.0,0.0,0.0,0.0,0.0,0.0,0.0,0.0,0.0,0.0,0.0,0.0,0.0,0.0,0.0,0.0,0.0,0.0,0.0,0.0,0.0,0.0,0.0,0.0,0.0,0.0,0.0,0.0,0.0,0.0,0.0,0.0,0.0,0.0,0.0,0.0,0.0,0.0,0.0,0.0,0.0,0.0,0.0,0.0,0.0,0.0,0.0,0.0,0.0,0.0,0.0,0.0,0.0,0.0,0.0,0.0,0.0,0.0,0.0,0.0,0.0,0.0,0.0,0.0,0.0,0.0,0.0,0.0,0.0,0.0,0.0,0.0,-2.3291,-2.3342,-2.3579,-2.4321,-2.3814,-2.2813,-2.1392,-2.0927,-2.0436,-1.9832,0.0,0.0,0.0,0.0,0.0,0.0,0.0,0.0,0.0,0.0,0.0,0.0,0.0,0.0,0.0,0.0,0.0,0.0,0.0,0.0,0.0,0.0,0.0,0.0,0.0,0.0,0.0,0.0,0.0,0.0,0.0,0.0,0.0,0.0,0.0,0.0,0.0,0.0,0.0,0.0,0.0,0.0,0.0,0.0,0.0,0.0,0.0,0.0,0.0,0.0,0.0,0.0,0.0,0.0,0.0,0.0,0.0,0.0,0.0,0.0,-2.6513,0.0,0.0,0.0,0.0,0.0,0.0,0.0,0.0,0.0,0.0,0.0,0.0,0.0,0.0,0.0,0.0,0.0,0.0,0.0,0.0,0.0,0.0,0.0,0.0,0.0,0.0,0.0,0.0,0.0,0.0,0.0,0.0,0.0,0.0,0.0,0.0,0.0,0.0,0.0,0.0,0.0,-2.3224,-2.2885,-2.2818,-2.3562,-2.3477,-2.2954,-2.1843,-2.1098,-2.0813,-2.1081,-2.0761,0.0,0.0,0.0,0.0,0.0,0.0,0.0,0.0,0.0,0.0,0.0,0.0,0.0,0.0,0.0,0.0,0.0,0.0,0.0,0.0,0.0,0.0,0.0,0.0,0.0,0.0,0.0,0.0,0.0,0.0,0.0,0.0,0.0,0.0,0.0,0.0,0.0,0.0,0.0,0.0,0.0,0.0,0.0,0.0,0.0,0.0,0.0,0.0,0.0,0.0,0.0,0.0,0.0,0.0,0.0,0.0,0.0,0.0,0.0,0.0,-2.7614,0.0,0.0,0.0,0.0,0.0,0.0,0.0,0.0,0.0,0.0,0.0,0.0,0.0,0.0,0.0,0.0,0.0,0.0,0.0,0.0,0.0,0.0,0.0,0.0,0.0,0.0,0.0,0.0,0.0,0.0,0.0,0.0,0.0,0.0,0.0,0.0,0.0,0.0,0.0,0.0,-2.2767,-2.2533,-2.2448,-2.2835,-2.2868,-2.2562,-2.1821,-2.1458,-2.0971,-2.0243,-2.0255,0.0,0.0,0.0,0.0,0.0,0.0,0.0,0.0,0.0,0.0,0.0,0.0,0.0,0.0,0.0,0.0,0.0,0.0,0.0,0.0,0.0,0.0,0.0,0.0,0.0,0.0,0.0,0.0,0.0,0.0,0.0,0.0,0.0,0.0,0.0,0.0,0.0,0.0,0.0,0.0,0.0,0.0,0.0,0.0,0.0,0.0,0.0,0.0,0.0,0.0,0.0,0.0,0.0,-3.9756,-3.9287,-3.7427,-3.882,-3.7966,-3.537,-3.4022,-3.1691,-2.8851,-2.9115,0.0,0.0,0.0,0.0,0.0,0.0,0.0,0.0,0.0,0.0,0.0,0.0,0.0,0.0,0.0,0.0,0.0,0.0,0.0,0.0,0.0,0.0,0.0,0.0,-2.5393,-2.4979,-2.351,0.0,0.0,0.0,0.0,0.0,0.0,0.0,0.0,0.0,0.0,0.0,-2.2296,-2.2296,-2.2296,-2.2296,-2.2338,-2.2231,-2.1903,-2.1936,-2.1258,-1.9593,-1.9993,-2.0064,0.0,0.0,0.0,0.0,0.0,0.0,0.0,0.0,0.0,0.0,0.0,0.0,0.0,0.0,0.0,0.0,0.0,0.0,0.0,0.0,0.0,0.0,0.0,0.0,0.0,0.0,0.0,0.0,0.0,0.0,0.0,0.0,-3.2052,-3.048,0.0,0.0,0.0,0.0,0.0,0.0,0.0,0.0,0.0,0.0,0.0,0.0,0.0,-3.8703,-3.9628,-4.1992,-4.2822,-4.2163,-4.4437,-4.4873,-4.3701,-4.3929,-4.3271,-4.1954,-4.1742,0.0,-3.2852,-3.087,0.0,0.0,0.0,0.0,0.0,0.0,0.0,0.0,0.0,0.0,0.0,0.0,0.0,0.0,0.0,0.0,0.0,0.0,0.0,0.0,0.0,0.0,-2.5393,-2.5393,-2.5362,-2.5057,0.0,-2.3854,-2.3437,-2.2316,-2.2541,0.0,0.0,0.0,0.0,0.0,0.0,0.0,-2.2296,-2.2296,-2.2296,-2.2296,-2.2515,-2.2712,-2.2895,-2.2493,-2.2228,-2.2197,-2.0997,-2.0572,-2.1169,-2.0499,0.0,0.0,0.0,0.0,0.0,0.0,0.0,0.0,0.0,0.0,0.0,0.0,0.0,0.0,0.0,0.0,0.0,0.0,0.0,0.0,0.0,0.0,0.0,0.0,0.0,0.0,0.0,0.0,0.0,-3.2797,-3.365,-3.0916,-3.2967,-3.3315,0.0,0.0,0.0,0.0,0.0,0.0,0.0,0.0,0.0,-4.1368,-4.1785,-4.2794,-4.4546,-4.5654,-4.5997,-4.564,-4.7207,-4.7381,-4.6316,-4.6316,-4.5684,-4.4575,-4.4086,-4.2037,-3.8856,-3.5799,-3.3512,-3.1853,0.0,0.0,0.0,0.0,-2.942,-3.002,-2.92,-2.8851,-2.8702,-2.823,0.0,0.0,0.0,0.0,0.0,0.0,0.0,0.0,0.0,0.0,-2.6751,-2.6751,-2.673,-2.647,-2.5682,-2.5061,-2.4177,0.0,-2.267,-2.282,-2.2211,0.0,0.0,0.0,0.0,-2.2296,-2.2296,-2.2432,-2.2511,-2.2511,-2.276,-2.3035,-2.3301,-2.3103,-2.2704,-2.2073,-2.1351,-2.0925,-2.0825,-2.049,-2.0853,0.0,0.0,0.0,0.0,0.0,0.0,0.0,0.0,0.0,0.0,0.0,0.0,0.0,0.0,0.0,0.0,0.0,0.0,0.0,0.0,0.0,0.0,0.0,0.0,0.0,0.0,0.0,0.0,-3.3994,-3.5081,-3.1674,-3.5029,-3.5901,0.0,0.0,0.0,0.0,0.0,0.0,-4.0477,-4.0949,-4.2605,-4.5707,-4.5803,-4.6883,-4.9135,-4.8955,-4.8818,-4.8781,-4.9194,-4.896,-4.8131,-4.7922,-4.7239,-4.6191,-4.531,-4.4492,-4.3448,-3.9826,-3.7088,-3.5144,-3.4346,-3.3799,-3.3435,-3.2919,-3.2912,-3.3073,-3.2284,-3.1586,-3.0938,-3.0017,-2.8769,-2.7277,-2.5384,0.0,0.0,0.0,0.0,-2.5888,-2.6704,-2.7346,-2.7842,-2.8062,-2.7776,-2.7288,-2.6701,-2.5774,-2.4521,0.0,-2.2874,-2.3106,-2.2603,0.0,0.0,0.0,0.0,-2.2391,-2.2391,-2.2646,-2.2799,-2.2799,-2.3035,-2.3289,-2.3474,-2.3542,-2.3156,-2.2156,-2.1904,-2.1451,-2.0644,-2.0418,-2.0581,-2.1179,0.0,0.0,0.0,0.0,0.0,0.0,0.0,0.0,0.0,0.0,0.0,0.0,0.0,0.0,0.0,0.0,0.0,0.0,0.0,0.0,0.0,0.0,0.0,0.0,0.0,0.0,0.0,0.0,0.0,-3.3464,-3.8841,0.0,0.0,0.0,0.0,-3.8991,-4.1304,-4.3104,-4.3989,-4.5615,-4.7645,-5.0106,-5.0183,-5.0952,-5.2549,-5.1792,-5.141,-5.1398,-5.0608,-5.0214,-5.0137,-4.9354,-4.8522,-4.764,-4.6762,-4.5933,-4.49,-4.1078,-3.8815,-3.7502,-3.5461,-3.384,-3.2676,-3.2978,-3.2413,-3.1415,-3.0595,-3.0283,-3.0423,-3.1355,-3.1098,-2.9903,-2.7274,-2.6473,0.0,0.0,-2.6539,-2.6722,-2.753,-2.778,-2.7989,-2.8767,-2.7724,-2.6556,-2.6519,-2.5215,-2.3755,0.0,-2.313,-2.3256,-2.1976,0.0,-2.2685,-2.2432,-2.2569,-2.2672,-2.2672,-2.291,-2.3084,-2.3084,-2.3324,-2.3492,-2.3504,-2.3685,-2.3749,-2.3687,-2.3035,-2.2282,-2.1477,-2.0708,-2.0308,-2.0363,-1.9573,0.0,0.0,0.0,0.0,0.0,0.0,0.0,0.0,0.0,0.0,0.0,0.0,0.0,0.0,0.0,0.0,0.0,0.0,0.0,0.0,0.0,0.0,0.0,0.0,0.0,0.0,0.0,0.0,-3.9257,-4.3108,0.0,-4.05,-4.1232,-4.2357,-4.3283,-4.5182,-4.7163,-4.9086,-4.974,-5.0938,-5.2885,-5.2387,-5.2598,-5.3626,-5.2325,-5.1637,-5.1589,-5.0722,-5.0034,-4.95,-4.8659,-4.7799,-4.692,-4.608,-4.5564,-4.5201,-4.3822,-4.2606,-4.1424,-3.9981,-3.9089,-3.8568,-3.7949,-3.7485,-3.6906,-3.5414,-3.4192,-3.2926,-3.0721,-2.9108,-2.7843,-2.6891,-2.6602,-2.6722,-2.7236,-2.7365,-2.7567,-2.8363,-2.8565,-2.8638,-2.8932,-2.815,-2.7185,-2.6672,-2.569,-2.4634,-2.3702,-2.3586,-2.345,-2.2835,-2.2738,-2.2725,-2.2672,-2.2672,-2.2747,-2.2935,-2.3194,-2.3359,-2.3359,-2.3565,-2.3689,-2.3689,-2.3753,-2.3806,-2.3806,-2.3107,-2.2572,-2.2282,-2.0998,-2.0053,-1.9536,-1.8281,-1.8227,0.0,0.0,0.0,0.0,0.0,0.0,0.0,0.0,0.0,0.0,0.0,0.0,0.0,0.0,0.0,0.0,0.0,0.0,0.0,0.0,0.0,0.0,0.0,0.0,0.0,0.0,-4.4085,-4.3273,-4.6649,-4.7758,-4.4446,-4.5473,-4.6718,-4.7671,-4.9298,-5.101,-5.2702,-5.2749,-5.333,-5.4703,-5.3916,-5.3686,-5.4122,-5.2793,-5.1939,-5.1589,-5.0436,-4.9748,-4.9461,-4.8028,-4.7207,-4.6882,-4.5774,-4.5307,-4.5307,-4.5307,-4.484,-4.4106,-4.3393,-4.2643,-4.188,-4.1244,-4.0422,-3.9354,-3.7452,-3.5818,-3.4105,-3.117,-2.9299,-2.8172,-2.7897,-2.7629,-2.7519,-2.8062,-2.8209,-2.8338,-2.8858,-2.9005,-2.9005,-2.9005,-2.8191,-2.7255,-2.6722,-2.575,-2.4814,-2.4243,-2.3927,-2.37,-2.3479,-2.3189,-2.2965,-2.296,-2.2977,-2.3022,-2.3218,-2.3452,-2.3598,-2.3598,-2.371,-2.3806,-2.3806,-2.3816,-2.3718,-2.3454,-2.2964,-2.2457,-2.1913,-2.1125,-2.0326,-1.9518,-1.7703,-1.7939,-2.029,0.0,0.0,0.0,0.0,0.0,0.0,0.0,0.0,0.0,0.0,0.0,0.0,0.0,0.0,0.0,0.0,0.0,0.0,0.0,0.0,0.0,0.0,0.0,-3.9858,-4.356,-4.5942,-4.5264,-4.9434,-5.1332,-4.8753,-5.0751,-5.2125,-5.1991,-5.3568,-5.453,-5.453,-5.453,-5.4855,-5.5577,-5.4828,-5.435,-5.4195,-5.3314,-5.2437,-5.1582,-4.9912,-4.9511,-5.013,-4.7646,-4.6959,-4.7635,-4.6003,-4.5307,-4.5307,-4.5307,-4.5288,-4.5269,-4.5269,-4.3908,-4.2007,-4.2267,-4.0658,-3.8063,-3.6106,-3.4746,-3.3723,-3.2884,-3.2058,-3.1274,-3.0472,-2.9671,-2.9046,-2.9017,-2.9017,-2.9017,-2.9017,-2.9005,-2.9005,-2.9017,-2.7787,-2.662,-2.6602,-2.5364,-2.4226,-2.419,-2.4151,-2.4016,-2.3764,-2.3588,-2.3455,-2.3318,-2.3417,0.0,-2.3515,-2.3667,-2.3806,-2.3806,-2.3806,-2.3806,-2.3806,-2.3847,-2.3569,-2.2786,-2.2697,-2.1961,-2.0407,-2.1034,-2.1052,-2.0282,-1.8016,-1.7998,-2.0336,0.0,0.0,0.0,0.0,0.0,0.0,0.0,0.0,0.0,0.0,0.0,0.0,0.0,0.0,0.0,0.0,0.0,0.0,0.0,0.0,0.0,0.0,-4.3313,-4.3548,-4.6152,-4.8918,-5.1225,-5.2693,-5.3455,-5.3259,-5.3778,-5.4071,-5.395,-5.4814,-5.5376,-5.5376,-5.5376,-5.5451,-5.5596,-5.4828,-5.4361,-5.4261,-5.2767,-5.1924,-5.1652,-4.9923,-4.8917,-4.8515,-4.7133,-4.6309,-4.5965,-4.5488,-4.5307,-4.5307,-4.5307,-4.4934,-4.435,-4.435,-4.3971,-4.3262,-4.1927,-4.0495,-3.8895,-3.7,-3.5857,-3.4986,-3.34,-3.243,-3.1755,-3.0949,-3.0557,-3.0217,-2.9437,-2.9217,-2.9217,-2.9217,-2.9104,-2.9051,-2.9174,-2.8323,-2.731,-2.6741,-2.5786,-2.4897,-2.43,-2.418,-2.4084,-2.3816,-2.3703,-2.3639,-2.3613,-2.354,0.0,-2.3771,-2.3803,-2.3806,-2.3806,-2.3806,-2.3806,-2.3806,-2.3847,-2.3806,-2.3587,-2.2479,-2.1634,-2.118,-2.0262,-1.9662,-1.9427,-1.9918,-2.0517,0.0,0.0,0.0,0.0,0.0,0.0,0.0,0.0,0.0,0.0,0.0,0.0,0.0,0.0,0.0,0.0,0.0,0.0,0.0,0.0,0.0,0.0,-4.3997,-4.6727,-4.8525,-5.0048,-5.1863,-5.4264,-5.4869,-5.5221,-5.5564,-5.5536,-5.5417,-5.5225,-5.5566,-5.5768,-5.5695,-5.5703,-5.5673,-5.564,-5.4861,-5.4224,-5.3793,-5.2431,-5.1384,-5.0643,-4.9258,-4.8345,-4.7867,-4.659,-4.5927,-4.5774,-4.5449,-4.5307,-4.5269,-4.4914,-4.4456,0.0,0.0,0.0,0.0,0.0,-4.0092,-3.8961,-3.7497,-3.6468,-3.5548,-3.4091,-3.3165,-3.251,-3.2049,-3.1674,-3.1203,-3.0251,-2.9907,-2.9781,-2.9509,-2.9206,-2.9055,-2.9241,-2.8532,-2.7658,-2.72,-2.6465,-2.5668,-2.486,-2.4695,0.0,-2.4051,-2.3907,-2.3876,-2.3876,-2.3785,-2.3764,-2.3886,-2.3896,-2.3876,-2.3837,-2.3876,-2.3876,-2.3837,-2.3927,0.0,0.0,0.0,-2.2053,-2.2007,-2.1098,0.0,0.0,0.0,-2.2004,-2.1993,-2.2908,0.0,0.0,-2.3043,-2.2873,0.0,0.0,0.0,0.0,0.0,0.0,0.0,0.0,0.0,0.0,0.0,0.0,0.0,0.0,0.0,0.0,-4.7001,-4.9694,-5.36,-5.4225,-5.4576,-5.5357,-5.604,-5.6411,-5.6332,-5.6316,-5.6191,-5.5959,-5.5913,-5.5855,-5.5737,0.0,0.0,0.0,0.0,-5.3951,-5.3121,-5.215,-5.0851,-4.9207,-4.8341,-4.7869,-4.7714,-4.6065,-4.5708,-4.6328,-4.5602,-4.5307,-4.522,-4.435,-4.3892,-4.372,-4.372,-4.2756,-4.1285,-4.0559,-3.9709,-3.8741,-3.7734,0.0,0.0,-3.4881,-3.4083,-3.3511,-3.3407,-3.2881,-3.2137,-3.1308,-3.0891,-3.0528,-2.9936,-2.9399,-2.9071,-2.9301,-2.8627,-2.7915,-2.7824,-2.7236,-2.6465,-2.5576,-2.5393,-2.5136,-2.4337,-2.4151,-2.4103,-2.4103,-2.4046,-2.3996,-2.3927,-2.3976,-2.3986,-2.3917,0.0,0.0,-2.3917,-2.4026,-2.3763,-2.2993,-2.2922,-2.2803,-2.2581,-2.2668,-2.2729,-2.2691,-2.2809,-2.2835,-2.2825,-2.2825,-2.3161,-2.3777,-2.3125,-2.2825,0.0,0.0,0.0,0.0,0.0,0.0,0.0,0.0,0.0,0.0,0.0,0.0,0.0,0.0,0.0,-4.671,-5.0282,-5.3307,-5.483,-5.565,-5.6157,-5.6333,-5.5884,-5.5804,-5.6475,-5.6406,-5.6275,-5.6237,-5.6027,-5.5898,-5.5863,-5.5758,-5.5703,-5.5703,-5.4241,-5.3365,-5.3182,-5.1673,-5.0394,-4.9346,0.0,0.0,-4.6895,-4.5848,-4.5444,-4.5507,-4.5383,-4.5307,-4.522,-4.435,-4.3204,-4.1972,-4.1972,-4.1399,-4.0511,-4.0358,-4.0167,-3.9738,-3.8012,-3.7367,-3.7071,-3.5363,-3.4831,-3.4708,-3.4061,-3.3764,0.0,-3.2396,-3.1606,-3.1059,-3.0923,-3.0076,-2.9283,-2.9504,-2.9159,-2.8583,-2.7934,-2.7677,-2.7137,-2.5686,-2.5393,-2.5136,-2.4337,-2.418,-2.418,-2.418,-2.4113,-2.4084,-2.4064,-2.4026,-2.3996,-2.3986,-2.3996,-2.3996,-2.3986,-2.4046,-2.4039,-2.3864,-2.3243,-2.2566,-2.1835,-2.2492,-2.282,-2.2697,-2.3381,-2.3707,-2.3596,-2.3596,-2.365,-2.3806,-2.365,-2.3596,0.0,0.0,0.0,0.0,0.0,0.0,0.0,0.0,0.0,0.0,0.0,-4.0068,0.0,0.0,-4.7611,-4.9797,-5.2683,-5.4947,-5.5825,-5.5942,-5.6118,-5.6547,-5.6216,-5.6118,-5.6567,-5.6503,-5.6413,-5.6312,-5.6169,-5.6064,-5.6005,-5.5872,-5.5808,-5.5808,-5.41,-5.3203,-5.3203,-5.1529,-5.0029,-4.874,-4.8308,-4.7405,-4.6091,-4.561,-4.5369,-4.5338,-4.5317,-4.5307,-4.5201,-4.3921,-4.2412,-4.0903,-4.0903,-4.0654,-4.0244,-3.9804,-3.9661,-3.9394,-3.7585,-3.7278,-3.7417,-3.5642,-3.542,-3.5679,-3.4846,-3.4598,-3.4391,-3.3451,-3.2511,-3.172,-3.1423,-3.0339,-2.9355,-2.9561,-2.9291,-2.8895,-2.8491,-2.8411,-2.7915,-2.63,-2.5988,-2.5621,-2.441,-2.419,-2.419,-2.419,-2.417,-2.4141,-2.4103,-2.4094,-2.4084,-2.4046,-2.4084,-2.4084,-2.4046,-2.4084,-2.4103,-2.4151,-2.3729,-2.3307,-2.2867,-2.3242,-2.3423,-2.3346,-2.3785,-2.3937,-2.3847,-2.3847,-2.3827,-2.3806,-2.3806,-2.3806,0.0,0.0,0.0,0.0,0.0,0.0,0.0,0.0,-3.7681,-3.8733,-4.0886,-4.308,-4.4655,-4.7477,-5.0351,-5.2796,-5.4523,-5.5747,-5.6274,-5.5747,-5.5493,-5.604,-5.6235,-5.6352,-5.6352,-5.6508,-5.6531,-5.6379,-5.632,-5.6257,-5.6141,-5.602,-5.5852,-5.5664,-5.41,-5.3186,-5.2993,-5.1491,-4.9959,-4.8433,-4.8238,-4.7308,-4.5788,-4.5553,-4.5429,-4.5399,-4.5338,-4.5222,-4.4954,-4.3434,-4.1896,-4.0511,-4.0358,-4.0301,-4.0186,-3.9317,-3.9011,-3.8763,-3.7073,-3.692,-3.7215,-3.5687,-3.5679,-3.6118,-3.5411,-3.5209,-3.5057,-3.4426,-3.3497,-3.2566,-3.1905,-3.0787,-2.9797,-2.9645,-2.9402,-2.9189,-2.9023,-2.9005,-2.8565,-2.7126,-2.6722,-2.6135,-2.4685,-2.43,-2.419,-2.419,-2.419,-2.418,-2.4132,-2.417,-2.418,-2.4132,-2.417,-2.419,-2.4153,-2.4153,-2.4172,-2.4228,-2.4162,-2.4113,-2.4113,-2.4074,-2.4026,-2.4016,-2.4016,-2.3986,-2.3896,-2.3896,-2.3876,-2.3806,-2.3806,-2.3806,-3.1755,-3.2412,-3.3846,-3.6883,-3.6688,-3.7331,0.0,0.0,-4.3211,-4.4851,-4.666,-4.823,-4.9215,-5.0952,-5.285,-5.4626,-5.5785,-5.6216,-5.5532,-5.5357,-5.5044,-5.4361,-5.4966,-5.5454,-5.5454,-5.6157,-5.6584,-5.6577,-5.6409,-5.6288,-5.6275,-5.6146,-5.5705,-5.4868,-5.3996,-5.3136,-5.2219,-5.1327,-5.0456,-4.96,-4.8699,-4.7778,-4.6816,-4.602,-4.556,-4.539,-4.538,-4.4948,-4.4153,-4.3196,-4.2221,-4.1285,-4.0578,-4.0301,-4.0186,-3.9317,-3.9011,-3.8763,-3.7073,-3.6557,-3.6481,-3.5507,-3.5267,-3.5343,-3.5229,-3.5209,-3.519,-3.5095,-3.4456,-3.3627,-3.2776,-3.218,-3.1418,-2.9955,-2.9829,-2.9879,-2.9152,-2.9005,-2.873,-2.7842,-2.709,-2.6319,-2.5411,-2.4677,-2.419,-2.419,-2.419,-2.4208,-2.418,-2.4208,-2.4208,-2.418,-2.4208,-2.4247,-2.4364,-2.4373,-2.4382,-2.4382,-2.4247,-2.418,-2.418,-2.418,-2.4151,-2.4094,-2.4084,-2.4026,-2.3896,-2.3896,-2.3876,-2.3806,-2.3806,-2.3806,-3.2772,-3.4158,-3.583,0.0,-3.8324,-4.039,-4.3273,-4.415,-4.4851,-4.6605,-4.8318,-4.9627,-5.0025,-5.2319,-5.4234,0.0,-5.6087,-5.6821,-5.5497,-5.4422,-5.3463,-5.2585,-5.2819,-5.3639,-5.5142,-5.563,-5.6059,-5.6567,-5.6528,-5.6475,-5.6475,-5.587,-5.5344,-5.4949,-5.3559,-5.2647,-5.2212,-5.1386,-5.0571,-4.9796,-4.8857,-4.7966,-4.7068,-4.6129,-4.5594,-4.54,-4.54,-4.4643,-4.3378,-4.3015,-4.2049,-4.0777,-4.0424,-3.9985,-3.9508,-3.9126,-3.9011,-3.8763,-3.7073,-3.6806,-3.6986,-3.5649,-3.5545,-3.5851,-3.5354,-3.5209,-3.5209,-3.5209,-3.4617,-3.3918,-3.3547,-3.2873,-3.1977,-3.0806,-3.0475,-3.0228,-2.95,-2.9171,-2.8812,-2.8117,-2.724,-2.6337,-2.554,-2.4732,-2.419,-2.419,-2.419,-2.4237,-2.4321,-2.4311,-2.4356,-2.4479,-2.4393,-2.4392,-2.4569,-2.4392,-2.4311,-2.4389,-2.4266,-2.419,-2.419,-2.419,-2.418,-2.4161,-2.4161,-2.4103,-2.4016,-2.4016,-2.3947,-2.3865,-2.3865,-2.3837,-3.367,0.0,0.0,-3.7642,-4.037,-4.3078,-4.3312,-4.454,-4.5985,-4.7248,-4.8651,-4.9756,-5.0026,-5.2291,-5.4096,-5.3984,-5.5721,-5.6575,-5.5148,-5.3641,-5.2292,-5.118,-5.0828,-5.1629,-5.399,-5.4654,-5.5201,-5.5845,-5.6118,-5.6235,-5.6235,-5.5552,-5.5026,-5.4749,-5.3224,-5.229,-5.2,-5.1131,-5.0549,-5.0217,-4.8857,-4.7986,-4.7578,-4.6293,-4.5642,-4.5502,-4.5457,-4.4604,-4.328,-4.3013,-4.2027,-4.0631,-4.0152,-3.9733,-3.9353,-3.9123,-3.8723,-3.8151,-3.692,-3.671,-3.6814,-3.5592,-3.5621,-3.6023,-3.5392,-3.5209,-3.5209,-3.5209,-3.4789,-3.4273,-3.4071,-3.354,-3.2765,-3.1495,-3.1092,-3.0752,-2.9805,-2.9332,-2.8972,-2.8582,-2.7473,-2.6431,-2.5906,-2.4948,-2.4257,-2.4257,-2.4303,-2.433,-2.4329,-2.4382,-2.4485,-2.4684,-2.4607,-2.4588,-2.4742,-2.4528,-2.4435,-2.4532,-2.4409,-2.4339,-2.4339,-2.4284,-2.4257,-2.4257,-2.4218,-2.417,-2.4094,-2.4094,-2.4036,-2.3927,-2.3927,-2.3907,0.0,0.0,-3.9045,-4.1497,-4.3468,-4.505,-4.5887,-4.678,-4.7443,-4.7482,-4.8202,-4.9079,-4.9862,-5.0787,-5.196,-5.3626,-5.4687,-5.4993,-5.4151,-5.3268,-5.2058,-5.0338,-4.9384,-4.9579,0.0,-5.3053,-5.4049,-5.4088,-5.4869,-5.5337,-5.5337,-5.5318,-5.4845,-5.388,-5.3083,-5.2228,-5.1238,-5.0361,-5.042,-5.1312,-4.8698,-4.7868,-4.8592,-4.6672,-4.578,-4.5786,-4.5582,-4.5034,-4.4189,-4.328,-4.2409,-4.1489,-3.9802,-3.964,-4.0273,-3.941,-3.8038,-3.6576,-3.6519,-3.5965,-3.5267,-3.5229,-3.5229,-3.5229,-3.5209,-3.5209,-3.5209,-3.5209,-3.519,-3.498,-3.4197,-3.4407,-3.4207,-3.1779,-3.1638,-3.1588,-2.9964,-2.9445,-2.9336,-2.9523,-2.7954,-2.6649,-2.6832,-2.5485,-2.4389,-2.4389,-2.4569,-2.4572,-2.4247,-2.4321,-2.4485,-2.4684,-2.4804,-2.4895,-2.4895,-2.4888,-2.4888,-2.4869,-2.4764,-2.4684,-2.4684,-2.4501,-2.4389,-2.4389,-2.4275,-2.417,-2.4094,-2.4094,-2.4064,-2.3996,-2.3996,-2.3996,0.0,0.0,-4.2374,-4.4384,-4.5319,-4.6141,-4.7579,-4.7696,-4.7501,-4.7501,-4.7267,-4.6975,-4.6663,-4.7795,-4.9151,-5.0323,-5.2669,-5.4258,-5.4037,-5.3749,-5.2702,-5.0377,-5.036,0.0,0.0,0.0,0.0,-5.3873,-5.4264,-5.4693,-5.5259,-5.53,-5.4882,-5.3967,-5.3125,-5.2266,-5.133,-5.1037,-5.0774,-5.0514,-4.8508,-4.7332,-4.6959,-4.6297,-4.5954,-4.5838,-4.5141,-4.4353,-4.3496,-4.2555,-4.1673,-4.0784,-3.9613,-3.8994,-3.8701,-3.8413,-3.7537,-3.6569,-3.7162,-3.6793,-3.5965,-3.5392,-3.5209,-3.5209,-3.5209,-3.5209,-3.5209,-3.5209,-3.5209,-3.5152,-3.4866,-3.4557,-3.3955,-3.2526,-3.1851,-3.1236,-3.0216,-2.9742,-2.9561,-2.9751,-2.8175,-2.6841,-2.7016,-2.5564,-2.4459,-2.4586,-2.4723,-2.479,-2.4685,-2.4818,-2.4966,-2.5012,-2.4954,-2.4942,-2.5095,-2.4912,-2.4816,-2.4895,-2.4779,-2.47,-2.47,-2.4634,-2.4602,-2.4602,-2.4545,-2.4522,-2.4495,-2.4495,-2.4409,-2.4211,-2.4328,-2.4257,-4.0838,-4.3273,-4.5416,-4.7131,-4.756,-4.7696,-4.8222,-4.7657,-4.6761,-4.5825,-4.4968,-4.4111,-4.3234,-4.4247,-4.581,-4.7576,-4.9978,-5.2065,-5.3358,-5.2997,-5.2205,-5.1141,-5.0965,-5.0535,0.0,0.0,0.0,-5.2487,-5.3463,-5.4244,-5.481,-5.5123,-5.4908,-5.4029,-5.3151,-5.2273,-5.1414,-5.1082,-5.0358,-4.9206,-4.8406,-4.7379,-4.6176,-4.6112,-4.5878,-4.5463,-4.4782,-4.3834,-4.2679,-4.206,-4.13,-4.0411,-3.9565,-3.8896,-3.8354,-3.8039,-3.7336,-3.6656,-3.7521,-3.723,-3.6405,-3.5851,-3.545,-3.5209,-3.5209,-3.5411,-3.5602,-3.5286,-3.5411,-3.5583,-3.5286,-3.4598,-3.3777,-3.2909,-3.1981,-3.1077,-3.0362,-2.9937,-2.976,-2.998,-2.8351,-2.7025,-2.7186,-2.5748,-2.4643,-2.4856,-2.4941,-2.498,-2.4908,-2.5006,-2.5119,-2.5185,-2.5075,-2.5057,-2.5185,-2.4993,-2.4919,-2.4993,-2.4933,-2.4877,-2.4877,-2.4801,-2.4772,-2.4772,-2.4712,-2.4657,-2.4602,-2.4602,-2.4476,-2.4275,-2.4409,-2.4311,-4.4192,-4.6375,-4.8086,-4.9722,-4.9995,-4.9469,-4.7852,-4.6722,-4.526,-4.2705,-4.1458,-4.0565,0.0,0.0,-4.2122,-4.5469,-4.6958,-4.8889,-5.2285,-5.1404,-5.101,0.0,0.0,0.0,0.0,0.0,0.0,-5.0221,0.0,-5.3951,-5.401,-5.483,-5.4888,-5.3951,-5.3132,-5.2273,-5.1414,-5.0494,-4.9245,-4.7664,-4.8349,-4.7842,-4.63,-4.6173,-4.5654,-4.4864,-4.4622,-4.3544,-4.1977,-4.1863,-4.1293,-4.0427,-3.9611,-3.9265,-3.913,-3.8257,-3.736,-3.6715,-3.7472,-3.7192,-3.65,-3.65,-3.5965,-3.5324,-3.5324,-3.587,-3.6328,-3.5488,-3.5832,-3.6233,-3.5411,-3.4598,-3.3796,-3.2967,-3.2069,-3.119,-3.0433,-3.0106,-3.0037,-3.0176,-2.854,-2.7175,-2.7308,-2.5984,-2.498,-2.5174,-2.5191,-2.5125,-2.4935,-2.4915,-2.4987,-2.518,-2.5191,-2.5191,-2.5191,-2.5191,-2.5191,-2.5191,-2.5191,-2.5191,-2.5191,-2.5025,-2.4915,-2.4915,-2.4787,-2.4634,-2.4441,-2.4441,-2.4364,-2.4237,-2.4247,-2.4247,-4.7209,-4.904,-5.0599,-5.1671,-5.0014,-4.8027,-4.7599,-4.5319,-4.2744,-4.0835,-3.8714,-3.696,0.0,0.0,0.0,-4.2944,-4.7248,0.0,-5.3295,-5.4335,0.0,-5.3764,0.0,-5.3385,-5.1882,-5.1921,0.0,0.0,-5.2644,-5.3307,-5.3971,-5.483,-5.4596,-5.3073,-5.2821,-5.2273,-5.1414,-4.9891,-4.8915,-4.8486,-4.7432,-4.671,-4.63,-4.6251,-4.6128,-4.5872,-4.5075,-4.4137,-4.3108,-4.2297,-4.1441,-4.0558,-3.9656,-3.8892,-3.8238,-3.7343,-3.6857,-3.6619,-3.6782,-3.6695,-3.65,-3.65,-3.6757,-3.7063,-3.7063,-3.6795,-3.6443,-3.6233,-3.5851,-3.5469,-3.5267,-3.4598,-3.3937,-3.3719,-3.2516,-3.1343,-3.114,-3.1085,-3.0917,-3.0312,-2.8755,-2.7319,-2.6629,-2.5742,-2.5131,-2.5185,-2.5191,-2.518,-2.5125,-2.5119,-2.5137,-2.5185,-2.5191,-2.5191,-2.5191,-2.5191,-2.5191,-2.5191,-2.5191,-2.5191,-2.5191,-2.5156,-2.5119,-2.5119,-2.5088,-2.5057,-2.4999,-2.4999,-2.4907,-2.4731,-2.4872,-2.4801,-5.0463,-5.2002,-5.3034,-5.3151,-5.1145,-4.867,-4.6784,-4.4247,-4.138,-3.8188,-3.6064,0.0,0.0,0.0,0.0,0.0,0.0,0.0,-5.2296,-5.3596,-5.443,0.0,-5.5194,0.0,-5.3737,-5.3736,-5.3811,0.0,-5.3483,-5.3483,-5.3971,-5.483,-5.45,-5.2763,-5.2704,-5.2097,-5.0848,-4.9852,-4.8993,-4.8252,-4.7315,-4.6671,-4.63,-4.63,-4.6085,-4.5693,0.0,-4.4332,-4.3523,-4.2471,-4.1955,-4.168,-4.0403,-3.9362,-3.8469,-3.7601,-3.6757,-3.6067,-3.6025,-3.6227,-3.6495,-3.6509,-3.6538,-3.6604,-3.6604,-3.6538,-3.65,-3.65,-3.6156,-3.5774,-3.5774,-3.4885,-3.3995,-3.3995,-3.2688,-3.1446,-3.14,-3.1159,-3.0663,-2.9803,-2.8867,-2.7816,-2.6516,-2.5672,-2.5191,-2.5191,-2.5191,-2.5191,-2.5191,-2.5191,-2.5191,-2.5191,-2.5191,-2.5191,-2.5191,-2.5191,-2.5191,-2.5191,-2.5191,-2.5191,-2.5191,-2.5191,-2.5191,-2.5191,-2.5191,-2.5162,-2.5063,-2.5063,-2.4974,-2.4804,-2.4933,-2.4877,-5.3385,-5.4628,-5.4959,-5.3966,-5.2333,-4.9839,-4.5533,-4.3039,-4.025,-3.5421,0.0,-3.2813,-3.2072,-3.3397,-3.5733,-3.924,0.0,-4.553,-5.0589,-5.1494,-5.2815,-5.5942,-5.5751,-5.5679,-5.6425,-5.5604,-5.5112,-5.5269,-5.4383,-5.3834,-5.3834,-5.4537,-5.4207,-5.2587,-5.2411,-5.1629,-5.0104,-4.9889,-4.9031,-4.7606,-4.7489,-4.7022,-4.63,-4.63,-4.589,-4.5166,-4.505,-4.454,-4.3715,-4.2825,-4.2766,-4.3117,-4.1627,-4.0417,-3.9372,-3.8505,-3.7077,-3.5578,-3.5552,-3.5975,-3.6506,-3.6506,-3.6069,-3.5534,-3.5534,-3.6061,-3.6634,-3.6538,-3.65,-3.6462,-3.6366,-3.5248,-3.4167,-3.4167,-3.2974,-3.179,-3.161,-3.0854,-3.0013,-2.9357,-2.8962,-2.8281,-2.6823,-2.5816,-2.5197,-2.5208,-2.5216,-2.5197,-2.5208,-2.5216,-2.5191,-2.5191,-2.5191,-2.5191,-2.5191,-2.5191,-2.5191,-2.5191,-2.5191,-2.5191,-2.5191,-2.5191,-2.5191,-2.5191,-2.5191,-2.5113,-2.4935,-2.4935,-2.4886,-2.4768,-2.4768,-2.4768,-5.4453,-5.5076,-5.4823,-5.3229,-5.1008,-4.8105,-4.3741,-4.0331,0.0,0.0,0.0,-3.1191,-3.1055,-3.2986,0.0,-3.924,0.0,0.0,0.0,0.0,-5.3938,0.0,0.0,0.0,0.0,0.0,0.0,0.0,0.0,-5.2938,-5.2938,-5.3075,-5.2683,-5.1668,-5.0926,-5.0416,-5.0104,-4.8738,-4.7899,-4.7586,-4.6866,-4.6456,-4.63,-4.63,-4.6222,-4.6066,-4.606,0.0,-4.4745,-4.4439,-4.4016,-4.3483,-4.3083,-4.1917,-4.0352,-3.9483,-3.8015,-3.6461,-3.6412,-3.6485,-3.6565,-3.6526,-3.6848,-3.7273,-3.7273,-3.7368,-3.7349,-3.6691,-3.65,-3.6328,-3.5602,-3.5209,-3.4999,-3.4999,-3.4254,-3.3375,-3.2623,-3.1274,-3.0357,-3.0866,-2.9306,-2.7816,-2.7529,-2.6217,-2.5214,-2.5261,-2.5236,-2.5214,-2.528,-2.5231,-2.5191,-2.5191,-2.5191,-2.5191,-2.5191,-2.5191,-2.5191,-2.5191,-2.5191,-2.5191,-2.5191,-2.5191,-2.5191,-2.5191,-2.5191,-2.518,-2.5156,-2.5156,-2.5144,-2.5101,-2.5101,-2.5101,-5.4725,-5.584,-5.5976,-5.3814,-5.169,-4.8612,-4.2958,0.0,0.0,0.0,-3.1386,-3.0801,-3.0801,0.0,0.0,0.0,0.0,0.0,0.0,0.0,0.0,0.0,0.0,0.0,0.0,0.0,0.0,0.0,0.0,-5.2698,-5.2704,-5.1843,-5.1355,-5.1394,-5.0106,-4.9423,-4.9423,-4.8211,-4.7372,-4.6924,-4.6495,-4.63,-4.63,-4.63,-4.63,-4.63,-4.63,-4.6066,-4.5634,-4.5128,-4.4905,-4.4754,-4.3378,-4.1984,-4.061,-3.93,-3.7688,-3.6183,-3.6614,-3.6719,-3.6727,-3.7095,-3.7485,-3.7789,-3.7789,-3.7483,-3.713,-3.7206,-3.6578,-3.5892,-3.5873,-3.5531,-3.5209,-3.5209,-3.427,-3.3138,-3.2259,-3.147,-3.091,-3.0833,-2.9499,-2.8237,-2.7826,-2.6335,-2.522,-2.5296,-2.5242,-2.5203,-2.5242,-2.5214,-2.5191,-2.5191,-2.5191,-2.5191,-2.5191,-2.5191,-2.5191,-2.5191,-2.5191,-2.5191,-2.5191,-2.5191,-2.5191,-2.5191,-2.5191,-2.5191,-2.5191,-2.5191,-2.5191,-2.5191,-2.5191,-2.5191,-5.4492,-5.6152,-5.6834,-5.4262,-5.2041,-4.8787,-4.2299,-3.8656,0.0,0.0,-3.0801,-3.0801,-3.0801,0.0,0.0,0.0,0.0,0.0,0.0,0.0,0.0,0.0,0.0,0.0,0.0,0.0,0.0,0.0,0.0,0.0,-5.2411,-5.0945,-5.0416,-5.1102,-4.9442,-4.8545,-4.8545,-4.7725,-4.6983,-4.63,-4.63,-4.63,-4.63,-4.63,-4.63,-4.63,-4.63,-4.63,-4.6241,-4.5558,-4.5518,-4.5673,-4.3668,-4.2263,-4.1172,-3.9291,-3.7797,-3.6753,-3.7044,-3.7205,-3.7411,-3.8208,-3.8201,-3.7881,-3.7682,-3.7283,-3.6972,-3.7263,-3.6508,-3.5695,-3.6116,-3.572,-3.5226,-3.5215,-3.4129,-3.2831,-3.1976,-3.1691,-3.1347,-3.0478,-2.9609,-2.8746,-2.794,-2.651,-2.5442,-2.5335,-2.5261,-2.5228,-2.5231,-2.5239,-2.5228,-2.5228,-2.5214,-2.5191,-2.5191,-2.5191,-2.5191,-2.5191,-2.5191,-2.5191,-2.5191,-2.5191,-2.5191,-2.5191,-2.5191,-2.5191,-2.5191,-2.5191,-2.5191,-2.5191,-2.5191,-2.5191,-5.3751,-5.5295,-5.5981,-5.3366,-5.0268,-4.6468,-4.113,0.0,0.0,-3.1366,-3.0801,-3.0801,-3.0801,-3.0938,-3.2107,0.0,0.0,0.0,0.0,0.0,0.0,0.0,0.0,0.0,0.0,0.0,0.0,0.0,0.0,0.0,-5.1474,-5.0612,-5.0143,-5.0221,-4.8582,-4.7703,-4.7703,-4.6846,-4.6378,-4.63,-4.63,-4.63,-4.63,-4.63,-4.63,-4.63,-4.63,-4.63,0.0,-4.6202,-4.5751,-4.5084,-4.485,-4.4178,-4.3033,-4.0506,-3.9898,-4.0102,-3.8523,-3.849,-3.9264,-4.0015,-3.9192,-3.7739,-3.6953,-3.7255,-3.7557,-3.5979,-3.6051,-3.6378,-3.5533,-3.5318,-3.5293,-3.5293,-3.4618,-3.3743,-3.2874,-3.2114,-3.1367,-3.0559,-2.9639,-2.8738,-2.7937,-2.7006,-2.6159,-2.5491,-2.5327,-2.5311,-2.5364,-2.5327,-2.5292,-2.5292,-2.5247,-2.5191,-2.5191,-2.5191,-2.5191,-2.5191,-2.5191,-2.5191,-2.5191,-2.5191,-2.5191,-2.5191,-2.5191,-2.5191,-2.5191,-2.5191,-2.5191,-2.5191,-2.5191,-2.5191,-5.2469,-5.473,-5.5825,-5.3249,-5.0034,-4.6157,-4.0974,0.0,0.0,-3.123,-3.0801,-3.0801,-3.0801,-3.0801,-3.1425,0.0,0.0,0.0,0.0,0.0,0.0,0.0,0.0,0.0,0.0,0.0,0.0,0.0,0.0,0.0,-4.9823,-4.9018,-4.878,-4.9306,-4.7654,-4.7026,-4.7586,-4.6743,-4.6295,-4.63,-4.63,-4.63,-4.63,-4.63,-4.63,-4.63,-4.63,-4.63,0.0,-4.63,-4.6105,-4.5675,-4.4621,-4.3675,-4.2624,-4.052,-3.9594,-3.9337,-3.912,-3.9267,-3.9562,-3.9818,-3.9435,-3.8786,-3.8408,-3.8183,-3.781,-3.6594,-3.6178,-3.5994,-3.5566,-3.547,-3.5475,-3.5486,-3.4878,-3.4185,-3.3837,-3.2698,-3.1623,-3.1297,-3.0094,-2.8863,-2.8067,-2.7193,-2.6356,-2.5575,-2.5402,-2.5372,-2.5397,-2.5383,-2.5352,-2.5352,-2.526,-2.5198,-2.5198,-2.5198,-2.5198,-2.5198,-2.5198,-2.5215,-2.5266,-2.5223,-2.5239,-2.5322,-2.5248,-2.5242,-2.5322,-2.5271,-2.5264,-2.5264,-2.5264,-2.5264,-4.9976,-5.2762,-5.434,-5.2041,-4.8705,-4.4798,0.0,0.0,-3.2519,-3.1042,-3.0731,-3.0756,-3.0796,-3.0801,-3.1093,0.0,0.0,0.0,0.0,0.0,0.0,0.0,0.0,0.0,0.0,0.0,0.0,0.0,0.0,0.0,-4.8044,-4.7455,-4.7519,-4.8398,-4.697,-4.6523,-4.7178,-4.6597,-4.6303,-4.6291,-4.6305,-4.63,-4.63,-4.63,-4.63,-4.63,-4.63,-4.6144,0.0,-4.5929,-4.5617,-4.5012,-4.3782,-4.2942,-4.2181,-4.0444,-3.9706,-3.9599,-3.9675,-3.9675,-3.9625,-3.9533,-3.9344,-3.9083,-3.882,-3.8281,-3.7627,-3.6779,-3.613,-3.5669,-3.5641,-3.5626,-3.5621,-3.5626,-3.5008,-3.4326,-3.4093,-3.2876,-3.176,-3.1521,-3.0473,-2.9283,-2.8202,-2.7507,-2.6722,-2.5668,-2.5485,-2.5456,-2.5459,-2.5462,-2.5462,-2.5462,-2.5364,-2.5283,-2.525,-2.5269,-2.5269,-2.5269,-2.5269,-2.5283,-2.5335,-2.5274,-2.5307,-2.541,-2.5313,-2.5313,-2.539,-2.5359,-2.5331,-2.5331,-2.5337,-2.5322,-4.6024,-4.8768,-5.095,-4.9255,-4.5574,-4.1642,0.0,0.0,-3.1586,-3.077,-3.0603,-3.0632,-3.0789,-3.0801,-3.1093,-3.1956,-3.2092,0.0,0.0,0.0,0.0,0.0,0.0,0.0,0.0,0.0,0.0,0.0,0.0,0.0,-4.6261,-4.6226,-4.6612,-4.7493,-4.6653,-4.6204,-4.6205,-4.6269,-4.6307,-4.6307,-4.6293,-4.63,-4.63,-4.63,-4.63,-4.63,-4.63,-4.5812,0.0,-4.501,-4.3995,-4.2435,-4.2415,-4.2415,-4.2181,-4.0444,-4.0893,-4.2096,-4.0312,-3.9705,-3.9676,-3.9535,-3.8956,-3.8169,-3.7378,-3.7127,-3.6917,-3.5985,-3.5664,-3.5616,-3.5678,-3.5702,-3.5706,-3.5689,-3.5033,-3.4179,-3.3386,-3.2512,-3.1669,-3.0869,-3.0636,-3.0063,-2.8385,-2.8039,-2.7424,-2.5754,-2.5561,-2.5609,-2.56,-2.56,-2.56,-2.56,-2.5537,-2.547,-2.5399,-2.5395,-2.5395,-2.5395,-2.5395,-2.5395,-2.5395,-2.5395,-2.5395,-2.5395,-2.5395,-2.5395,-2.5395,-2.5395,-2.5395,-2.5395,-2.5391,-2.5406,-4.2035,-4.3837,-4.4877,-4.3689,-4.0982,-3.7937,-3.5338,0.0,-3.0622,-2.9861,-3.018,-3.0621,-3.0725,-3.0769,-3.1093,-3.1956,-3.2092,0.0,0.0,0.0,0.0,0.0,0.0,0.0,0.0,0.0,0.0,0.0,0.0,0.0,-4.6219,-4.6193,-4.6323,-4.6593,-4.6336,-4.6191,-4.6204,-4.6217,-4.5928,-4.535,-4.5957,-4.5937,-4.5422,-4.6028,-4.6296,-4.6261,-4.5675,-4.5246,-4.4951,-4.4367,-4.3782,-4.3235,-4.263,-4.2396,-4.2259,-4.1108,-4.103,-4.134,-4.0176,-3.9763,-3.9564,-3.8378,-3.7825,-3.7457,-3.6614,-3.6692,-3.6938,-3.6138,-3.5855,-3.5822,-3.5885,-3.5909,-3.5756,-3.5156,-3.4805,-3.4376,-3.3518,-3.2616,-3.1891,-3.1648,-3.1098,-3.0138,-2.8469,-2.8197,-2.7626,-2.5894,-2.5648,-2.5673,-2.5676,-2.5676,-2.5676,-2.5676,-2.5648,-2.5598,-2.5476,-2.547,-2.547,-2.547,-2.547,-2.5498,-2.5524,-2.5492,-2.5498,-2.5547,-2.5453,-2.545,-2.5549,-2.5499,-2.5473,-2.5473,-2.5471,-2.5461,0.0,-3.9385,-4.0108,-3.9177,-3.7196,0.0,0.0,0.0,-2.9621,-2.885,-2.9366,-2.9896,-2.9716,-2.9715,-3.0053,-3.0967,-3.1383,0.0,0.0,0.0,0.0,0.0,0.0,0.0,0.0,0.0,0.0,0.0,0.0,0.0,-4.6199,-4.6199,-4.6193,-4.6203,-4.6196,-4.6033,-4.5711,-4.5705,-4.5262,-4.442,-4.4992,-4.5154,-4.4961,-4.5215,-4.5506,-4.5767,-4.4888,-4.4317,0.0,-4.343,-4.3021,-4.2671,-4.2123,-4.1908,-4.1849,-4.1304,-4.0894,-4.0522,-3.9995,-3.939,-3.8687,-3.7633,-3.7087,-3.6716,-3.6168,-3.6093,-3.6174,-3.6045,-3.5733,-3.5531,-3.5892,-3.5992,-3.5856,-3.533,-3.4686,-3.4061,-3.3513,-3.2425,-3.1551,-3.1551,-3.1102,-3.0303,-2.8955,-2.8486,-2.7815,-2.639,-2.5902,-2.5707,-2.5707,-2.5707,-2.5707,-2.5707,-2.5707,-2.5675,-2.5589,-2.5585,-2.5585,-2.5585,-2.5585,-2.5591,-2.5646,-2.5607,-2.5591,-2.5642,-2.5568,-2.5546,-2.5642,-2.5603,-2.5583,-2.5561,-2.5549,-2.5544,0.0,0.0,0.0,0.0,0.0,0.0,0.0,0.0,0.0,-2.7752,-2.8191,-2.8608,-2.8227,-2.8117,-2.8447,-2.9566,0.0,0.0,0.0,0.0,0.0,0.0,0.0,0.0,0.0,0.0,0.0,0.0,0.0,0.0,-4.6102,-4.6102,-4.6082,-4.602,-4.602,-4.5654,-4.4913,-4.4841,-4.4372,-4.3513,-4.3696,-4.4114,-4.47,-4.4076,-4.4198,0.0,-4.3983,-4.3157,-4.2398,-4.2339,-4.1831,-4.109,-4.1031,-4.1012,-4.0992,-4.0934,-4.0405,-3.9702,-3.9644,-3.8609,-3.7282,-3.7223,-3.6657,-3.5992,-3.5934,-3.5389,-3.4959,-3.5778,-3.5428,-3.4979,-3.5797,-3.5992,-3.5973,-3.5836,-3.4587,-3.3377,-3.324,-3.1932,-3.08,-3.08,-3.08,-3.0548,-2.9749,-2.8928,-2.8108,-2.7211,-2.6391,-2.5863,-2.5805,-2.5786,-2.5767,-2.5709,-2.571,-2.5729,-2.5789,-2.5747,-2.5707,-2.5707,-2.5707,-2.5707,-2.5707,-2.5707,-2.5707,-2.5707,-2.5708,-2.5709,-2.5709,-2.5709,-2.5705,-2.5694,-2.5637,-2.5598,-2.7156,0.0,-2.9982,-2.8989,-2.8842,0.0,0.0,0.0,0.0,0.0,0.0,-2.7555,-2.9415,-2.9265,-2.9596,-3.1881,0.0,0.0,0.0,0.0,0.0,0.0,0.0,0.0,0.0,0.0,0.0,0.0,0.0,-4.5907,-4.5244,-4.5205,-4.489,-4.4224,-4.4205,-4.4423,-4.4894,-4.4241,-4.3464,-4.2629,-4.3966,-4.4048,-4.3022,-4.4114,-4.4399,-4.3963,-4.3084,-4.2598,-4.2358,-4.1675,-4.1278,-4.1031,-4.0366,-4.0112,-4.0034,-3.9411,-3.906,-3.8786,-3.8121,-3.7633,-3.7184,-3.6519,-3.6168,-3.5875,-3.5213,-3.533,-3.5738,-3.5934,-3.5856,-3.5738,-3.5953,-3.5992,-3.566,-3.4333,-3.3709,-3.3025,-3.1698,-3.1093,-3.08,-3.08,-3.08,-3.0548,-2.9749,-2.9436,-2.9007,-2.8127,-2.7815,-2.7444,-2.6781,-2.6691,-2.6442,-2.5779,-2.5703,-2.5976,-2.664,-2.6089,-2.5707,-2.5707,-2.5707,-2.5707,-2.5707,-2.5707,-2.5707,-2.5707,-2.5697,-2.57,-2.57,-2.5702,-2.5702,-2.5701,-2.5638,-2.5594,-2.4292,-2.5859,-2.7299,-2.6674,-2.7124,-2.7604,0.0,0.0,0.0,0.0,0.0,0.0,-2.8198,0.0,0.0,0.0,0.0,0.0,0.0,0.0,0.0,0.0,0.0,0.0,0.0,0.0,0.0,0.0,0.0,-4.5148,-4.4296,-4.4257,-4.4047,-4.3576,-4.3206,-4.3237,-4.3702,-4.3231,-4.2588,-4.175,-4.2708,-4.286,-4.2378,-4.2905,-4.314,-4.3031,-4.176,-4.1205,-4.1172,-4.0702,-4.0269,-3.9891,-3.9824,-3.9566,-3.9195,-3.8767,-3.8357,-3.7947,-3.7458,-3.7048,-3.6636,-3.6148,-3.5999,-3.585,-3.4951,-3.5033,-3.5328,-3.4913,-3.5101,-3.5312,-3.4909,-3.5101,-3.5055,-3.3728,-3.3084,-3.2558,-3.1602,-3.1075,-3.08,-3.08,-3.08,-3.0664,-3.0235,-2.9813,-2.9387,-2.8919,-2.8512,-2.7948,-2.7108,-2.6973,-2.664,-2.5781,-2.5661,-2.6028,-2.6929,-2.6562,-2.6306,-2.6303,-2.5915,-2.57,-2.5697,-2.5696,-2.5696,-2.5696,-2.5701,-2.5703,-2.5703,-2.5703,-2.5702,-2.5703,-2.5664,-2.5643,-2.3422,-2.4869,-2.6436,-2.611,-2.6907,-2.7726,0.0,0.0,0.0,0.0,0.0,0.0,0.0,0.0,0.0,0.0,0.0,0.0,0.0,0.0,0.0,0.0,0.0,0.0,0.0,0.0,0.0,0.0,0.0,-4.3962,-4.3151,-4.2981,-4.2868,-4.2727,-4.2074,-4.1719,-4.1711,-4.1848,-4.1575,-4.0893,-4.1029,-4.1458,-4.2101,-4.1536,-4.156,-4.1924,0.0,0.0,-3.9603,-3.9609,-3.9179,-3.8553,-3.9187,-3.9004,-3.838,-3.8241,-3.7731,-3.7087,-3.6953,-3.6428,-3.5786,-3.5649,-3.5599,-3.5449,-3.4569,-3.4394,-3.4294,-3.3281,-3.3726,-3.4325,-3.3591,-3.3959,-3.4283,-3.3401,-3.264,-3.2055,-3.1938,-3.1312,-3.0806,-3.0808,-3.0809,-3.0809,-3.0809,-3.0193,-2.9707,-2.9707,-2.9059,-2.8232,-2.7297,-2.7112,-2.6719,-2.5772,-2.5745,-2.6171,-2.7098,-2.7177,-2.7182,-2.7187,-2.6365,-2.5839,-2.5703,-2.5703,-2.5703,-2.5703,-2.5703,-2.5703,-2.5698,-2.5696,-2.5696,-2.5696,-2.57,-2.5702,-2.4737,-2.5391,-2.5455,-2.4527,-2.6014,-2.7675,0.0,0.0,0.0,0.0,0.0,0.0,0.0,0.0,0.0,0.0,0.0,0.0,0.0,0.0,0.0,0.0,0.0,0.0,0.0,0.0,0.0,0.0,0.0,-4.2199,-4.1344,-4.0641,-3.9945,-3.9209,-3.9121,-3.9078,-3.9084,-3.9825,-4.0117,-4.0019,-4.0757,-4.1166,-4.1302,-4.1867,-4.1406,-4.0184,0.0,-3.9372,-3.8704,-3.8707,-3.8622,-3.8456,-3.7909,-3.7613,-3.7417,-3.6662,-3.6305,-3.6093,-3.5363,-3.5019,-3.4784,-3.4043,-3.3808,-3.3631,-3.2752,-3.3005,-3.3258,-3.1646,-3.2358,-3.3574,-3.3436,-3.3495,-3.3379,-3.2518,-3.2204,-3.1892,-3.1169,-3.0895,-3.0799,-3.08,-3.08,-3.08,-3.08,-3.0697,-3.0592,-3.0592,-3.0445,-2.9731,-2.8132,-2.7918,-2.7318,-2.5779,-2.6275,-2.7067,-2.7948,-2.8022,-2.8023,-2.8025,-2.7256,-2.6461,-2.5721,-2.5701,-2.5701,-2.5701,-2.5694,-2.5706,-2.5704,-2.5704,-2.5694,-2.5694,-2.5696,-2.5697,-2.3348,-2.3751,-2.4072,-2.3986,-2.5898,0.0,0.0,0.0,0.0,0.0,0.0,0.0,0.0,0.0,0.0,0.0,0.0,0.0,0.0,0.0,0.0,0.0,0.0,0.0,0.0,0.0,0.0,0.0,0.0,0.0,-3.9383,-3.9043,-3.8714,-3.8358,-3.8377,-3.7975,-3.7097,-3.7954,-3.887,-3.9805,-4.0214,-4.0409,-4.0409,-4.0776,-4.027,-3.9065,0.0,-3.816,-3.7793,-3.7794,-3.7515,-3.7115,-3.7205,-3.6972,-3.6543,-3.6152,-3.5995,-3.5878,-3.5,-3.4706,-3.4567,-3.3689,-3.3392,-3.3248,-3.237,-3.2383,-3.243,-3.1164,-3.2051,-3.318,-3.2236,-3.2337,-3.2478,-3.1601,-3.1406,-3.1289,-3.0898,-3.0799,-3.0796,-3.0791,-3.0766,-3.0742,-3.0742,-3.0746,-3.0747,-3.0747,-3.0723,-3.0077,-2.8323,-2.8096,-2.7468,-2.5771,-2.5963,-2.6744,-2.8099,-2.7777,-2.7496,-2.7489,-2.6735,-2.6121,-2.5711,-2.5691,-2.5691,-2.5691,-2.5704,-2.5666,-2.5589,-2.5591,-2.5565,-2.5534,-2.5534,-2.5534,-2.2652,-2.2749,-2.3083,-2.3846,0.0,0.0,0.0,0.0,0.0,0.0,0.0,0.0,0.0,0.0,0.0,0.0,0.0,0.0,0.0,0.0,0.0,0.0,0.0,0.0,0.0,0.0,0.0,0.0,0.0,-3.7986,-3.7119,-3.7012,-3.6972,-3.7027,-3.7036,-3.6468,-3.5262,-3.6119,-3.7238,-3.8597,-3.9006,-3.9182,-3.9201,-3.9396,-3.9026,-3.8168,-3.7487,-3.696,-3.6613,-3.6803,-3.6384,-3.5681,-3.6566,-3.6399,-3.5698,-3.5698,-3.558,-3.5265,-3.4387,-3.4093,-3.3953,-3.3075,-3.2791,-3.2677,-3.1994,-3.1802,-3.1661,-3.0996,-3.176,-3.2487,-3.1141,-3.1305,-3.1628,-3.0945,-3.0789,-3.0789,-3.0786,-3.0778,-3.0786,-3.078,-3.0747,-3.0698,-3.0698,-3.0689,-3.0681,-3.0681,-3.0506,-2.9811,-2.8274,-2.7902,-2.7217,-2.5732,-2.576,-2.6517,-2.8065,-2.7381,-2.687,-2.687,-2.6116,-2.5641,-2.5641,-2.5634,-2.5629,-2.5629,-2.5629,-2.5578,-2.548,-2.548,-2.545,-2.5391,-2.5391,-2.5391,-2.4795,-2.4099,-2.3113,-2.3976,0.0,0.0,0.0,0.0,0.0,0.0,0.0,0.0,0.0,0.0,0.0,0.0,0.0,0.0,0.0,0.0,0.0,0.0,0.0,0.0,0.0,0.0,0.0,0.0,-3.6063,-3.5225,-3.4426,-3.3673,-3.3287,-3.328,-3.3299,-3.3292,-3.3301,-3.4179,-3.4729,-3.4993,-3.661,-3.7389,-3.7409,-3.8227,-3.8129,-3.7292,-3.7233,-3.6279,-3.4859,-3.566,-3.5485,-3.4789,-3.5641,-3.549,-3.4782,-3.4782,-3.4286,-3.3469,-3.2592,-3.2283,-3.214,-3.1278,-3.0984,-3.0981,-3.0903,-3.0882,-3.0879,-3.0821,-3.0884,-3.0966,-3.0825,-3.0845,-3.0852,-3.0745,-3.0708,-3.0704,-3.0704,-3.0716,-3.0703,-3.0717,-3.0707,-3.0704,-3.0704,-3.0649,-3.0618,-3.0618,-2.9922,-2.9064,-2.8135,-2.7299,-2.6463,-2.56,-2.6222,-2.7129,-2.8118,-2.7337,-2.6814,-2.6814,-2.5998,-2.5513,-2.5513,-2.5453,-2.5414,-2.5414,-2.5414,-2.541,-2.5418,-2.5418,-2.5395,-2.5391,-2.5391,-2.5391,-2.3097,-2.2652,-2.2342,-2.3174,0.0,0.0,0.0,0.0,0.0,0.0,0.0,0.0,0.0,0.0,0.0,0.0,0.0,0.0,0.0,0.0,0.0,0.0,0.0,0.0,0.0,0.0,0.0,-3.4888,-3.4066,-3.3502,-3.3177,-3.2959,-3.2859,-3.2903,-3.2889,-3.2676,-3.2232,-3.3143,-3.3095,-3.2156,-3.5577,-3.6629,-3.5636,-3.7058,-3.6621,-3.4792,-3.5356,-3.4908,-3.3818,-3.4149,-3.4102,-3.3885,-3.4211,-3.4168,-3.3887,-3.3887,-3.3684,-3.3282,-3.2407,-3.2106,-3.1956,-3.1074,-3.0801,-3.0801,-3.0801,-3.0769,-3.0737,-3.0737,-3.0745,-3.0758,-3.0791,-3.0769,-3.0739,-3.0706,-3.0695,-3.0697,-3.0707,-3.0665,-3.063,-3.0585,-3.0549,-3.0506,-3.0506,-3.0465,-3.0276,-2.9857,-2.939,-2.8639,-2.7301,-2.6809,-2.628,-2.5461,-2.659,-2.714,-2.6459,-2.7052,-2.7048,-2.6006,-2.5626,-2.5436,-2.5436,-2.5406,-2.5391,-2.5391,-2.5391,-2.5382,-2.5345,-2.5345,-2.5317,-2.5278,-2.5146,-2.5171,-2.2226,-2.1881,-2.1823,0.0,0.0,0.0,0.0,0.0,0.0,0.0,0.0,0.0,0.0,0.0,0.0,0.0,0.0,0.0,0.0,0.0,0.0,0.0,0.0,0.0,0.0,0.0,0.0,-3.2975,-3.2435,-3.2037,-3.1751,-3.1825,-3.179,-3.1584,-3.1814,-3.1584,-3.0816,-3.1979,-3.1879,-3.0574,-3.4132,-3.5113,-3.3793,-3.5243,-3.4934,-3.3273,-3.3875,-3.3653,-3.2908,-3.319,-3.3331,-3.3397,-3.3397,-3.3217,-3.2956,-3.2956,-3.2781,-3.2469,-3.1865,-3.1675,-3.1581,-3.0931,-3.0748,-3.0725,-3.0701,-3.0635,-3.0618,-3.0618,-3.0618,-3.063,-3.0658,-3.0698,-3.0682,-3.0651,-3.0642,-3.0622,-3.0606,-3.0558,-3.0506,-3.0476,-3.0417,-3.0371,-3.0371,-3.0336,-3.0048,-2.9312,-2.8846,-2.8098,-2.6736,-2.6288,-2.5889,-2.5321,-2.6314,-2.6559,-2.5403,-2.6367,-2.6559,-2.5403,-2.5312,-2.5321,-2.5365,-2.5344,-2.535,-2.535,-2.535,-2.5313,-2.5282,-2.5201,-2.5145,-2.5107,-2.4921,-2.4907,-2.2903,-2.2323,0.0,0.0,0.0,0.0,0.0,0.0,0.0,0.0,0.0,0.0,0.0,0.0,0.0,0.0,0.0,0.0,0.0,0.0,0.0,0.0,0.0,0.0,0.0,0.0,0.0,-3.1242,-3.1185,-3.0806,-2.9934,-2.9878,-2.9518,-2.8703,-2.948,-2.9563,-2.8894,-3.0554,-3.1059,-3.0422,-3.2083,-3.2522,-3.1903,-3.2723,-3.3093,-3.3073,-3.3073,-3.2663,-3.2057,-3.2928,-3.3312,-3.3375,-3.3375,-3.2795,-3.1984,-3.1984,-3.1439,-3.07,-3.07,-3.0739,-3.0769,-3.0632,-3.0599,-3.056,-3.0443,-3.0402,-3.0402,-3.0402,-3.0402,-3.0402,-3.0402,-3.0557,-3.0665,-3.0525,-3.0491,-3.0481,-3.0409,-3.0342,-3.0318,-3.0375,-3.0336,-3.0305,-3.0305,-3.0286,-2.9979,-2.9129,-2.8241,-2.7391,-2.6573,-2.5729,-2.5187,-2.5187,-2.5253,-2.5298,-2.5279,-2.5238,-2.5206,-2.5187,-2.5131,-2.5162,-2.5298,-2.5228,-2.521,-2.5191,-2.521,-2.521,-2.521,-2.4993,-2.4902,-2.4895,-2.4757,-2.47,-2.3654,-2.2787,0.0,0.0,0.0,0.0,0.0,0.0,0.0,0.0,0.0,0.0,0.0,0.0,0.0,0.0,0.0,0.0,0.0,0.0,0.0,0.0,0.0,0.0,0.0,0.0,-3.0977,-2.9556,-2.9442,-2.9328,-2.9063,-2.8521,-2.8093,-2.7866,-2.8627,-2.8962,-2.8764,-2.9963,-3.0452,-3.0266,-3.0806,-3.0995,-3.0893,-3.2304,-3.2297,-3.1168,-3.1772,-3.157,-3.0824,-3.1174,-3.1336,-3.1367,-3.1367,-3.1157,-3.0868,-3.0868,-3.0713,-3.0495,-3.0495,-3.0505,-3.0509,-3.0477,-3.0463,-3.0458,-3.0418,-3.0375,-3.0329,-3.0329,-3.0333,-3.0329,-3.0329,-3.0371,-3.0417,-3.0378,-3.0358,-3.0355,-3.0336,-3.0311,-3.0279,-3.0195,-3.018,-3.0152,-3.0152,-2.9479,-2.8734,-2.8044,-2.699,-2.5987,-2.5133,-2.4806,-2.4648,-2.4648,-2.5197,-2.5325,-2.4716,-2.5212,-2.5314,-2.4742,-2.4682,-2.4825,-2.5156,-2.5132,-2.5126,-2.5125,-2.5038,-2.4986,-2.4987,-2.4837,-2.4757,-2.4757,-2.4575,-2.4559,-2.3155,0.0,0.0,0.0,0.0,0.0,0.0,0.0,0.0,0.0,0.0,0.0,0.0,0.0,0.0,0.0,0.0,0.0,0.0,0.0,0.0,0.0,0.0,0.0,0.0,0.0,-2.9317,-2.8294,-2.8218,-2.8218,-2.8218,-2.7752,-2.7342,-2.6994,-2.7782,-2.8066,-2.7706,-2.8655,-2.9284,-2.9601,-2.9314,-2.9385,-2.9762,-3.1162,-3.1213,-3.0241,-3.0829,-3.0782,-3.0312,-3.0393,-3.0438,-3.0458,-3.0458,-3.0419,-3.0351,-3.0351,-3.0351,-3.0351,-3.0351,-3.0386,-3.0397,-3.0337,-3.0319,-3.0308,-3.0235,-3.0171,-3.0137,-3.0137,-3.0142,-3.0123,-3.0045,-3.0011,-3.0049,-3.0183,-3.0221,-3.0226,-3.0226,-3.0173,-3.013,-3.0109,-2.9992,-2.9807,-2.9474,-2.8784,-2.7938,-2.6945,-2.5879,-2.4992,-2.4472,-2.4398,-2.4398,-2.4398,-2.4871,-2.4973,-2.4435,-2.4879,-2.4989,-2.4497,-2.4458,-2.4564,-2.4801,-2.4856,-2.4865,-2.4867,-2.4782,-2.4746,-2.4749,-2.4618,-2.4547,-2.4547,-2.4329,-2.4311,0.0,0.0,0.0,0.0,0.0,0.0,0.0,0.0,0.0,0.0,0.0,0.0,0.0,0.0,0.0,0.0,0.0,0.0,0.0,0.0,0.0,0.0,0.0,0.0,0.0,0.0,-2.7475,-2.7399,-2.738,-2.738,-2.738,-2.7304,-2.6906,-2.6122,-2.6918,-2.6994,-2.6216,-2.7058,-2.7866,-2.8589,-2.7847,-2.7885,-2.8608,-2.9471,-2.9896,-2.998,-3.0181,-3.0267,-3.0277,-3.0277,-3.0312,-3.0375,-3.0375,-3.0284,-3.0149,-3.0246,-3.0226,-3.0149,-3.0246,-3.03,-3.0323,-3.0183,-3.0148,-3.0107,-2.9921,-2.9847,-2.9847,-2.9864,-2.9864,-2.9813,-2.9644,-2.9589,-2.9635,-2.9855,-2.9981,-3.0053,-3.0087,-2.992,-2.9815,-2.9935,-2.9641,-2.9138,-2.8396,-2.8035,-2.7315,-2.5755,-2.4846,-2.4346,-2.4346,-2.4346,-2.4346,-2.4346,-2.4346,-2.4346,-2.4346,-2.4346,-2.4346,-2.4346,-2.4346,-2.4346,-2.4346,-2.4431,-2.4497,-2.4497,-2.4481,-2.4472,-2.4481,-2.4347,-2.4266,-2.4266,-2.4066,-2.3996,0.0,0.0,0.0,0.0,0.0,0.0,0.0,0.0,0.0,0.0,0.0,0.0,0.0,0.0,0.0,0.0,0.0,0.0,0.0,0.0,0.0,0.0,0.0,0.0,0.0,0.0,-2.7228,-2.652,-2.6482,-2.6482,-2.6482,-2.5875,-2.5439,-2.5269,-2.6046,-2.6387,-2.6197,-2.7058,-2.7589,-2.7752,-2.7589,-2.7589,-2.7752,-2.7971,-2.8396,-2.9045,-2.9703,-3.0045,-3.0147,-3.0147,-3.0161,-3.0148,-3.0148,-2.9711,-2.9114,-2.9741,-2.9589,-2.9133,-2.976,-2.9996,-2.9988,-2.9792,-2.9724,-2.9688,-2.9485,-2.9435,-2.9465,-2.9626,-2.9561,-2.9465,-2.958,-2.9494,-2.9228,-2.8652,-2.9128,-2.9751,-2.9905,-2.942,-2.8925,-2.8787,-2.8202,-2.761,-2.727,-2.6524,-2.559,-2.4391,-2.4059,-2.3921,-2.3921,-2.3921,-2.3921,-2.3921,-2.3921,-2.3921,-2.3921,-2.3921,-2.3921,-2.3921,-2.3921,-2.3921,-2.3921,-2.4256,-2.4441,-2.4493,-2.4347,-2.4284,-2.4338,-2.4163,-2.4066,-2.4056,-2.3806,-2.3692,0.0,0.0,0.0,0.0,0.0,0.0,0.0,0.0,0.0,0.0,0.0,0.0,0.0,0.0,0.0,0.0,0.0,0.0,0.0,0.0,0.0,0.0,0.0,0.0,0.0,0.0,-2.5351,-2.4932,-2.4969,-2.4976,-2.492,-2.4976,-2.5003,-2.5003,-2.5003,-2.5193,-2.561,-2.5667,-2.6084,-2.6861,-2.639,-2.6163,-2.6201,-2.7487,-2.8085,-2.8161,-2.8987,-2.914,-2.8886,-2.9277,-2.9201,-2.8886,-2.9277,-2.8898,-2.818,-2.8597,-2.8417,-2.8107,-2.8902,-2.9115,-2.9016,-2.8914,-2.9138,-2.9352,-2.8861,-2.8738,-2.8739,-2.8848,-2.8529,-2.8143,-2.8153,-2.8091,-2.7898,-2.7483,-2.8144,-2.8821,-2.8509,-2.814,-2.7814,-2.7707,-2.727,-2.6758,-2.6273,-2.524,-2.4295,-2.3739,-2.3547,-2.345,-2.345,-2.345,-2.345,-2.345,-2.345,-2.345,-2.345,-2.345,-2.345,-2.345,-2.345,-2.345,-2.345,-2.3674,-2.3844,-2.4011,-2.3798,-2.3692,-2.3724,-2.3624,-2.3569,-2.3569,-2.3427,-2.3352,0.0,0.0,0.0,0.0,0.0,0.0,0.0,0.0,0.0,0.0,0.0,0.0,0.0,0.0,0.0,0.0,0.0,0.0,0.0,0.0,0.0,0.0,0.0,0.0,0.0,0.0,-2.3367,-2.3272,-2.3501,-2.3596,-2.3449,-2.4235,-2.4688,-2.4688,-2.4028,-2.3947,-2.4515,-2.3967,-2.4308,-2.5499,-2.4772,-2.4534,-2.4782,-2.7145,-2.7873,-2.7316,-2.8092,-2.8081,-2.7543,-2.8187,-2.8062,-2.757,-2.8237,-2.7975,-2.7241,-2.7392,-2.7242,-2.7056,-2.7855,-2.8035,-2.7892,-2.7853,-2.8297,-2.8703,-2.7997,-2.7764,-2.7812,-2.8,-2.7442,-2.6772,-2.6804,-2.6675,-2.6497,-2.6368,-2.6917,-2.7374,-2.6981,-2.6777,-2.6656,-2.6608,-2.6291,-2.581,-2.5074,-2.41,-2.3388,-2.3376,-2.32,-2.3079,-2.3079,-2.3091,-2.3091,-2.3091,-2.3091,-2.3091,-2.3091,-2.3091,-2.3091,-2.3091,-2.3091,-2.3091,-2.3091,-2.306,-2.3133,-2.3365,-2.3194,-2.3091,-2.3091,-2.3091,-2.3091,-2.3091,-2.306,-2.3,0.0,0.0,0.0,0.0,0.0,0.0,0.0,0.0,0.0,0.0,0.0,0.0,0.0,0.0,0.0,0.0,0.0,0.0,0.0,0.0,0.0,0.0,0.0,0.0,0.0,0.0,0.0,-2.2438,-2.3032,-2.3386,-2.3244,-2.3372,-2.3436,-2.3436,-2.3498,-2.3225,-2.2578,-2.3315,-2.3372,-2.2748,-2.3195,-2.3859,-2.4745,-2.5783,-2.631,-2.6418,-2.7094,-2.7439,-2.7479,-2.7433,-2.7447,-2.7513,-2.7619,-2.7025,-2.622,-2.6962,-2.6674,-2.6013,-2.6823,-2.7084,-2.7037,-2.6858,-2.687,-2.6901,-2.6556,-2.6452,-2.6643,-2.7585,-2.7094,-2.6486,-2.7405,-2.6947,-2.6086,-2.5371,-2.509,-2.531,-2.6539,-2.6265,-2.5699,-2.5474,-2.4563,-2.3678,-2.3233,-2.3054,-2.2947,-2.2898,-2.291,-2.2923,-2.2923,-2.3037,-2.3091,-2.3091,-2.3091,-2.3091,-2.3091,-2.3091,-2.3091,-2.3091,-2.3091,-2.3091,-2.3091,-2.2889,-2.2777,-2.2816,-2.2998,-2.3091,-2.3091,-2.3091,-2.3091,-2.3091,-2.2863,-2.2611,0.0,0.0,0.0,0.0,0.0,0.0,0.0,0.0,0.0,0.0,0.0,0.0,0.0,0.0,0.0,0.0,0.0,0.0,0.0,0.0,0.0,0.0,0.0,0.0,0.0,0.0,0.0,-2.1313,-2.1678,-2.2058,-2.2342,-2.2468,-2.272,-2.3185,-2.2417,-2.2017,-2.2092,-2.2082,-2.2013,-2.193,-2.2797,-2.3366,-2.3722,-2.4642,-2.5174,-2.5397,-2.6137,-2.6199,-2.578,-2.6182,-2.6116,-2.5807,-2.6303,-2.5897,-2.5122,-2.5495,-2.5271,-2.4912,-2.5715,-2.5941,-2.5811,-2.5724,-2.6009,-2.6238,-2.5528,-2.5413,-2.5588,-2.5921,-2.5371,-2.4779,-2.5183,-2.4953,-2.4491,-2.3916,-2.3803,-2.3946,-2.4418,-2.426,-2.4004,-2.3885,-2.3436,-2.3002,-2.2835,-2.2708,-2.2604,-2.2578,-2.2459,-2.2395,-2.2395,-2.2453,-2.2466,-2.2466,-2.2558,-2.2588,-2.2588,-2.2628,-2.2571,-2.2375,-2.2375,-2.2275,-2.2105,-2.1979,-2.1926,-2.1926,-2.2409,-2.2558,-2.2375,-2.2375,-2.2292,-2.2091,-2.1982,-2.1836,0.0,0.0,0.0,0.0,0.0,0.0,0.0,0.0,0.0,0.0,0.0,0.0,0.0,0.0,0.0,0.0,0.0,0.0,0.0,0.0,0.0,0.0,0.0,0.0,0.0,0.0,0.0,-2.0265,-2.0514,-2.0905,-2.1329,-2.1492,-2.185,-2.2442,-2.1326,-2.0904,-2.1302,-2.0712,-2.0754,-2.1399,-2.2115,-2.2624,-2.2923,-2.3674,-2.4212,-2.4572,-2.5178,-2.5042,-2.4454,-2.505,-2.4947,-2.4454,-2.5122,-2.4938,-2.4319,-2.4319,-2.4192,-2.4102,-2.4714,-2.4811,-2.4701,-2.4701,-2.5099,-2.5416,-2.4533,-2.44,-2.4545,-2.4468,-2.3898,-2.3342,-2.3454,-2.3354,-2.3117,-2.2638,-2.2653,-2.2755,-2.2712,-2.2751,-2.2751,-2.2656,-2.2686,-2.2673,-2.2552,-2.2395,-2.2275,-2.2261,-2.2096,-2.1871,-2.163,-2.1766,-2.177,-2.1512,-2.1589,-2.1635,-2.1635,-2.1707,-2.1632,-2.1366,-2.1516,-2.1508,-2.126,-2.126,-2.126,-2.1308,-2.1781,-2.1915,-2.1676,-2.1676,-2.1539,-2.1308,-2.1308,-2.1245,0.0,0.0,0.0,0.0,0.0,0.0,0.0,0.0,0.0,0.0,0.0,0.0,0.0,0.0,0.0,0.0,0.0,0.0,0.0,0.0,0.0,0.0,0.0,0.0,0.0,0.0,0.0,0.0,-2.0087,-2.0463,-2.0381,-2.0381,-2.0408,-2.0445,-2.0496,-2.0163,-1.9441,-1.9404,-1.9774,-2.0566,-2.0487,-2.1307,-2.2896,-2.2941,-2.341,-2.4135,-2.4182,-2.4266,-2.4381,-2.4247,-2.4266,-2.4398,-2.4454,-2.4321,-2.4126,-2.4126,-2.3999,-2.3816,-2.3852,-2.386,-2.385,-2.385,-2.3886,-2.3862,-2.3474,-2.3376,-2.3478,-2.3906,-2.3454,-2.3022,-2.3768,-2.3406,-2.2648,-2.1925,-2.1528,-2.1554,-2.2501,-2.2704,-2.262,-2.2289,-2.2337,-2.2298,-2.1913,-2.1882,-2.1897,-2.184,-2.1884,-2.156,-2.0617,-2.1081,-2.1154,-2.0216,-2.0105,-2.0105,-2.0105,-2.018,-2.0179,-2.009,-2.0764,-2.1134,-2.1118,-2.1118,-2.1181,-2.1308,-2.1323,-2.1354,-2.1339,-2.1339,-2.1323,-2.1308,-2.1308,-2.1135,0.0,0.0,0.0,0.0,0.0,0.0,0.0,0.0,0.0,0.0,0.0,0.0,0.0,0.0,0.0,0.0,0.0,0.0,0.0,0.0,0.0,0.0,0.0,0.0,0.0,0.0,0.0,0.0,0.0,-1.9808,-2.0264,-1.9811,-1.9775,-2.0282,-1.9853,-1.9458,-1.9168,-1.9168,-1.9314,-1.9605,-2.0082,-2.0635,-2.1252,-2.1771,-2.2153,-2.2426,-2.2426,-2.3029,-2.3974,-2.3429,-2.3522,-2.3966,-2.348,-2.3541,-2.3919,-2.3919,-2.3785,-2.3609,-2.3609,-2.3609,-2.3587,-2.3411,-2.3416,-2.3392,-2.297,-2.2903,-2.2975,-2.2972,-2.2775,-2.2594,-2.2842,-2.2542,-2.2032,-2.1511,-2.0984,-2.0664,-2.0811,-2.1358,-2.1705,-2.1369,-2.1354,-2.1193,-2.0617,-2.0536,-2.0405,-1.9935,-1.99,-1.9774,-1.9414,-1.9607,-1.9626,-1.9266,-1.9279,-1.947,-1.9904,-1.9996,-2.0127,-2.0304,-2.0556,-2.05,-2.0039,-2.0004,-1.9884,-1.9641,-1.9919,-2.0381,-2.099,-2.0764,-2.055,-2.033,-2.0156,-2.0015,0.0,0.0,0.0,0.0,0.0,0.0,0.0,0.0,0.0,0.0,0.0,0.0,0.0,0.0,0.0,0.0,0.0,0.0,0.0,0.0,0.0,0.0,0.0,0.0,0.0,0.0,0.0,0.0,-1.9095,0.0,-1.9866,-1.9385,-1.934,-1.9884,-1.9385,-1.9095,-1.9095,-1.9095,-1.9095,-1.9113,-1.963,-2.0047,-2.0318,-2.0843,-2.1242,-2.1486,-2.1391,-2.2006,-2.3017,-2.2789,-2.2988,-2.3415,-2.3161,-2.3368,-2.3756,-2.3414,-2.3375,-2.3416,-2.3092,-2.3117,-2.3265,-2.3098,-2.308,-2.3045,-2.263,-2.256,-2.2565,-2.2289,-2.2122,-2.2022,-2.1979,-2.1518,-2.1024,-2.0764,-2.0218,-1.963,-1.9186,-1.9814,-2.0397,-2.0178,-2.0131,-2.0067,-1.9846,-1.9624,-1.9385,-1.9162,-1.8939,-1.8686,-1.8346,-1.8386,-1.8344,-1.8005,-1.7898,-1.8115,-1.8745,-1.8871,-1.9099,-1.9468,-1.9725,-1.9648,-1.9147,-1.9128,-1.9001,-1.8708,-1.9006,-1.9467,-2.0089,-2.0089,-1.9947,-1.966,-1.9472,-1.9395,0.0,0.0,0.0,0.0,0.0,0.0,0.0,0.0,0.0,0.0,0.0,0.0,0.0,0.0,0.0,0.0,0.0,0.0,0.0,0.0,0.0,0.0,0.0,0.0,0.0,0.0,0.0,0.0,-1.9105,-1.9095,-1.9105,-1.9105,-1.9105,-1.9087,-1.9087,-1.9087,-1.9087,-1.9087,-1.9087,-1.9087,-1.9087,-1.9503,-2.0264,-2.0264,-2.0671,-2.1395,-2.1133,-2.1181,-2.1467,-2.2263,-2.2624,-2.2725,-2.3412,-2.3681,-2.3592,-2.2615,-2.2709,-2.3206,-2.2218,-2.2329,-2.2868,-2.2885,-2.2818,-2.2686,-2.2361,-2.2238,-2.2138,-2.1834,-2.1508,-2.1245,-2.1245,-2.0463,-1.9673,-1.9626,-1.9137,-1.8467,-1.7784,-1.8192,-1.8686,-1.8735,-1.8735,-1.8926,-1.9578,-1.9118,-1.891,-1.9546,-1.9086,-1.8333,-1.7356,-1.7517,-1.7353,-1.6364,-1.5955,-1.6013,-1.6554,-1.6725,-1.7008,-1.7497,-1.8195,-1.8592,-1.8592,-1.8592,-1.8616,-1.865,-1.8684,-1.8669,-1.8684,-1.9332,-1.9563,-1.9376,-1.9358,-1.9358,-2.331,0.0,0.0,0.0,0.0,0.0,-2.0705,-2.0352,-1.9987,0.0,0.0,0.0,0.0,0.0,0.0,0.0,0.0,0.0,0.0,0.0,0.0,0.0,0.0,0.0,0.0,0.0,0.0,0.0,-1.937,-1.9078,-1.9036,-1.9036,-1.9001,-1.8957,-1.8957,-1.8957,-1.8957,-1.8957,-1.8957,-1.8957,-1.8957,-1.9065,-1.9281,-1.9281,-1.9336,-1.9402,-1.9317,-1.9249,-1.9243,-2.0057,-2.0816,-2.1422,-2.0891,-2.1136,-2.1722,-2.1304,-2.1453,-2.1843,-2.1556,-2.1949,-2.2516,-2.23,-2.1969,-2.1596,-2.1291,-2.0672,-2.0148,-2.0533,-2.0441,-2.0146,-1.986,-1.9421,-1.8856,-1.807,-1.7792,-1.7439,-1.6522,-1.5963,-1.595,-1.705,-1.6977,-1.6757,-1.6885,-1.6389,-1.6037,-1.615,-1.6033,-1.5812,-1.5529,-1.5582,-1.5516,-1.5249,-1.5124,-1.5485,-1.6512,-1.6627,-1.7092,-1.8171,-1.8416,-1.8383,-1.8028,-1.8008,-1.7888,-1.7625,-1.7894,-1.7974,-1.7834,-1.8408,-1.8655,-1.8611,-1.8411,-1.8307,0.0,0.0,0.0,0.0,0.0,0.0,-2.027,-1.9763,-1.9314,0.0,0.0,0.0,0.0,0.0,0.0,0.0,0.0,0.0,0.0,0.0,0.0,0.0,0.0,0.0,0.0,-1.9633,-1.9399,-2.0512,-1.9624,-1.9145,-1.9444,-1.9462,-1.9435,-1.939,-1.9075,-1.8904,-1.8904,-1.8904,-1.8904,-1.8904,-1.8816,-1.878,-1.8771,-1.8698,-1.8595,-1.8469,-1.8361,-1.8239,-1.8159,-1.8527,-1.9328,-2.0343,-2.0064,-2.0313,-2.0758,-2.0227,-2.0389,-2.0781,-2.0369,-2.0679,-2.1252,-2.1091,-2.0735,-2.0394,-2.0504,-2.0035,-1.9544,-1.9916,-1.9515,-1.8872,-1.8469,-1.8151,-1.7768,-1.7093,-1.6778,-1.6374,-1.563,-1.4632,-1.4207,-1.531,-1.5074,-1.4849,-1.5342,-1.4903,-1.4647,-1.5135,-1.4979,-1.4808,-1.4808,-1.4683,-1.4604,-1.4604,-1.4477,-1.4702,-1.554,-1.5941,-1.6518,-1.736,-1.7772,-1.7828,-1.7557,-1.7557,-1.7434,-1.7199,-1.7434,-1.7496,-1.7372,-1.7962,-1.8214,-1.8135,-1.7969,-1.7902,0.0,0.0,0.0,0.0,0.0,0.0,-1.9896,-1.9251,-1.8709,-1.8671,0.0,0.0,0.0,0.0,0.0,0.0,0.0,0.0,0.0,0.0,0.0,0.0,0.0,0.0,-2.1197,-1.9902,-1.9695,-2.1293,-2.001,-1.948,-2.017,-2.0224,-2.017,-2.0099,-1.9399,-1.8977,-1.8887,-1.8887,-1.8878,-1.8851,-1.867,-1.8566,-1.8537,-1.8361,-1.827,-1.8229,-1.7992,-1.7889,-1.7845,-1.7604,-1.8211,-1.9376,-2.0019,-2.0275,-2.0177,-1.9258,-1.9387,-1.9869,-1.8996,-1.9093,-1.9634,-1.9634,-1.9367,-1.9137,-1.9728,-1.9681,-1.9404,-1.9405,-1.853,-1.7499,-1.7138,-1.6761,-1.6433,-1.6347,-1.5837,-1.5272,-1.4836,-1.3827,-1.3143,-1.3567,-1.3221,-1.3249,-1.4458,-1.4133,-1.4117,-1.5394,-1.501,-1.4601,-1.4639,-1.4383,-1.4189,-1.4141,-1.3874,-1.3839,-1.4179,-1.4911,-1.5497,-1.5836,-1.6638,-1.7107,-1.7107,-1.716,-1.7199,-1.7199,-1.7157,-1.7157,-1.7199,-1.7808,-1.8003,-1.7821,-1.7821,-1.7821,0.0,0.0,0.0,0.0,0.0,0.0,-2.2346,-2.1235,-2.0125,0.0,0.0,0.0,0.0,0.0,0.0,0.0,0.0,0.0,0.0,0.0,0.0,0.0,0.0,0.0,-2.1082,-2.0357,-2.0437,-2.1989,-2.1258,-2.0821,-2.0982,-2.1,-2.0694,-2.0049,-1.987,-1.9477,-1.8824,-1.8824,-1.8733,-1.8582,-1.8544,-1.8418,-1.8194,-1.8153,-1.8044,-1.7883,-1.7845,-1.7721,-1.7581,-1.751,-1.7752,-1.8132,-1.8102,-1.8199,-1.8297,-1.7932,-1.8243,-1.8789,-1.8618,-1.8877,-1.9306,-1.9306,-1.8723,-1.8023,-1.8153,-1.7594,-1.6912,-1.6967,-1.6598,-1.6172,-1.609,-1.5529,-1.4943,-1.4664,-1.4328,-1.3903,-1.3277,-1.2445,-1.191,-1.216,-1.2102,-1.229,-1.3065,-1.2694,-1.272,-1.4007,-1.3661,-1.3369,-1.3646,-1.3628,-1.3476,-1.3207,-1.3104,-1.3381,-1.4143,-1.4368,-1.4785,-1.5523,-1.6199,-1.6558,-1.6558,-1.6963,-1.7199,-1.7199,-1.6934,-1.6934,-1.7199,-1.7323,-1.7365,-1.7344,-1.7344,-1.7344,0.0,0.0,0.0,-2.4482,0.0,0.0,0.0,-2.1701,-2.0984,-2.0537,-1.9782,0.0,0.0,0.0,0.0,0.0,0.0,0.0,0.0,0.0,0.0,0.0,0.0,0.0,-2.1003,-2.0442,-2.0477,-2.1618,-2.21,-2.2164,-2.1764,-2.1746,-2.1378,-2.0573,-2.0063,-1.9428,-1.8657,-1.8516,-1.84,-1.83,-1.8205,-1.8078,-1.7954,-1.7861,-1.7755,-1.7646,-1.7646,-1.7587,-1.7503,-1.7503,-1.7557,-1.7634,-1.7534,-1.7458,-1.7413,-1.7486,-1.7605,-1.7744,-1.7744,-1.7909,-1.8084,-1.7952,-1.7466,-1.7011,-1.7343,-1.6888,-1.6219,-1.6091,-1.5562,-1.5031,-1.4968,-1.4526,-1.3968,-1.3431,-1.3206,-1.2931,-1.2288,-1.1687,-1.1342,-1.1644,-1.1591,-1.1756,-1.2564,-1.2448,-1.249,-1.3238,-1.3174,-1.3031,-1.3015,-1.3087,-1.3087,-1.2925,-1.2896,-1.3024,-1.3329,-1.3746,-1.413,-1.4431,-1.536,-1.5909,-1.5909,-1.6422,-1.6587,-1.6303,-1.6124,-1.622,-1.655,-1.655,-1.6788,-1.7199,-1.7199,-1.7199,0.0,0.0,0.0,0.0,0.0,-2.3969,0.0,0.0,0.0,-2.0862,-1.943,0.0,0.0,0.0,0.0,0.0,0.0,0.0,0.0,0.0,0.0,0.0,0.0,0.0,-2.0715,-2.0568,-2.0576,-2.1062,-2.2534,-2.3085,-2.235,-2.2395,-2.2046,-2.1126,-2.023,-1.9419,-1.8731,-1.8291,-1.8138,-1.8239,-1.7951,-1.7777,-1.7749,-1.7581,-1.7503,-1.7503,-1.7503,-1.7486,-1.7479,-1.7479,-1.7439,-1.7378,-1.7386,-1.7236,-1.703,-1.7253,-1.7162,-1.6917,-1.6917,-1.6892,-1.6815,-1.6594,-1.6299,-1.6128,-1.6679,-1.6395,-1.5814,-1.5555,-1.4834,-1.4124,-1.4016,-1.3657,-1.3174,-1.2675,-1.2343,-1.2004,-1.1523,-1.1136,-1.0985,-1.1348,-1.1306,-1.1482,-1.2343,-1.2423,-1.2456,-1.2738,-1.2842,-1.2766,-1.249,-1.2603,-1.2703,-1.2703,-1.2703,-1.265,-1.2508,-1.3144,-1.3472,-1.3311,-1.4426,-1.5093,-1.5093,-1.5627,-1.5714,-1.5266,-1.5192,-1.5315,-1.5671,-1.5578,-1.6123,-1.7199,-1.7199,-1.7178,0.0,0.0,0.0,0.0,-2.4135,0.0,-2.3541,0.0,-2.236,-2.2201,0.0,0.0,0.0,0.0,0.0,0.0,0.0,0.0,0.0,0.0,0.0,0.0,0.0,0.0,0.0,-2.1078,-2.1523,-2.1123,-2.2376,-2.29,-2.2339,-2.2747,-2.2423,-2.1133,-2.0595,-2.0038,-1.9486,-1.8558,-1.8344,-1.8804,-1.8115,-1.7715,-1.7534,-1.7498,-1.7503,-1.7503,-1.7503,-1.7467,-1.7411,-1.7411,-1.7191,-1.6879,-1.7005,-1.703,-1.698,-1.6779,-1.6688,-1.6649,-1.6649,-1.6488,-1.6299,-1.6258,-1.5853,-1.5418,-1.5477,-1.4959,-1.4338,-1.4306,-1.3954,-1.3581,-1.3564,-1.2926,-1.2361,-1.269,-1.1778,-1.0805,-1.0731,-1.0582,-1.0507,-1.0688,-1.0985,-1.1381,-1.1967,-1.1716,-1.1663,-1.2277,-1.1977,-1.1773,-1.1961,-1.2,-1.1982,-1.1938,-1.192,-1.2084,-1.2473,-1.2591,-1.2746,-1.2941,-1.36,-1.397,-1.397,-1.4552,-1.4844,-1.4782,-1.4421,-1.4441,-1.4841,-1.4481,-1.5298,-1.7199,-1.7199,-1.7052,0.0,0.0,0.0,0.0,0.0,0.0,-2.3894,0.0,-2.3073,0.0,0.0,0.0,0.0,0.0,0.0,0.0,-1.9034,0.0,0.0,0.0,0.0,0.0,0.0,0.0,0.0,0.0,0.0,-2.0905,-2.1744,-2.2138,-2.1896,-2.2504,-2.2392,-2.136,-2.1002,-2.0482,-1.9847,-1.8839,-1.8459,-1.8655,-1.7962,-1.7581,-1.7503,-1.7503,-1.7503,-1.7491,-1.7248,-1.7134,-1.7084,-1.6908,-1.6725,-1.6552,-1.6416,-1.636,-1.636,-1.6459,-1.6365,-1.6172,-1.5977,-1.5963,-1.5964,-1.5608,-1.5196,-1.4799,-1.4596,-1.431,-1.4,-1.3802,-1.3415,-1.2977,-1.2747,-1.2167,-1.1619,-1.1545,-1.0849,-1.0175,-1.0087,-0.9916,-0.9928,-1.0489,-1.0598,-1.0856,-1.1575,-1.1744,-1.1778,-1.182,-1.1727,-1.1527,-1.1139,-1.1432,-1.1553,-1.1251,-1.1461,-1.1719,-1.1902,-1.2029,-1.2138,-1.2246,-1.2896,-1.3397,-1.3662,-1.3939,-1.3927,-1.365,-1.3482,-1.3579,-1.3958,-1.3773,-1.454,-1.6165,-1.6165,-1.625,-2.4251,0.0,0.0,0.0,0.0,0.0,0.0,0.0,0.0,0.0,0.0,0.0,0.0,0.0,0.0,0.0,0.0,-1.858,0.0,0.0,0.0,0.0,0.0,0.0,0.0,0.0,-1.9593,-2.0039,-2.076,-2.1123,-2.0989,-2.1781,-2.1928,-2.1216,-2.1057,-2.0763,-2.031,-1.911,-1.8605,-1.8787,-1.7922,-1.7491,-1.7467,-1.7374,-1.7326,-1.7289,-1.6914,-1.6744,-1.6722,-1.6472,-1.6311,-1.6172,-1.5837,-1.5651,-1.5637,-1.5907,-1.5851,-1.5608,-1.5271,-1.5301,-1.5448,-1.5014,-1.4643,-1.4326,-1.4068,-1.3917,-1.3769,-1.3412,-1.3002,-1.2588,-1.219,-1.1627,-1.1109,-1.0908,-1.0308,-0.9757,-0.967,-0.9571,-0.9649,-1.009,-1.0207,-1.0405,-1.0996,-1.1471,-1.1675,-1.1378,-1.1471,-1.1314,-1.069,-1.1025,-1.124,-1.0942,-1.122,-1.1452,-1.1497,-1.1627,-1.17,-1.1645,-1.217,-1.2627,-1.3018,-1.3128,-1.3038,-1.2682,-1.267,-1.2803,-1.3035,-1.3035,-1.3631,-1.474,-1.5184,-1.5573,0.0,0.0,0.0,-2.4173,0.0,0.0,0.0,0.0,-2.3336,0.0,0.0,0.0,0.0,0.0,0.0,0.0,0.0,0.0,0.0,0.0,0.0,0.0,0.0,0.0,0.0,-1.8637,-1.8716,-1.8211,-1.9394,-1.9916,-1.9395,-2.05,-2.0918,-2.0447,-2.0632,-2.0841,-2.1056,-1.9364,-1.8856,-1.9551,-1.8153,-1.7467,-1.7383,-1.7072,-1.6876,-1.6802,-1.6538,-1.6378,-1.6328,-1.6315,-1.6079,-1.5695,-1.5345,-1.5059,-1.4856,-1.4997,-1.5029,-1.4983,-1.4643,-1.4549,-1.4549,-1.4517,-1.4294,-1.4016,-1.4,-1.3719,-1.334,-1.2943,-1.2726,-1.2526,-1.2198,-1.1453,-1.0933,-1.1381,-1.0481,-0.9522,-0.9505,-0.9815,-0.9894,-0.9277,-0.9769,-1.0244,-1.0078,-1.0545,-1.0938,-1.0919,-1.0919,-1.0919,-1.089,-1.0919,-1.0995,-1.1164,-1.1193,-1.1287,-1.1479,-1.1516,-1.1423,-1.1236,-1.1292,-1.1426,-1.156,-1.194,-1.213,-1.2118,-1.2118,-1.2136,-1.2136,-1.2136,-1.2443,-1.3016,-1.4651,-1.5248,0.0,0.0,-2.4016,-2.4066,0.0,0.0,0.0,0.0,0.0,0.0,0.0,0.0,0.0,0.0,0.0,0.0,0.0,0.0,0.0,0.0,0.0,0.0,0.0,0.0,0.0,0.0,0.0,-1.7837,-1.8192,-1.8483,-1.8761,-2.0077,-2.0763,-2.0605,-2.1133,-2.1242,-2.0844,-1.9727,-1.8956,-1.8521,-1.7736,-1.7154,-1.6738,-1.6802,-1.6722,-1.6512,-1.616,-1.5995,-1.5939,-1.5492,-1.5239,-1.5073,-1.4735,-1.4545,-1.4463,-1.4513,-1.4529,-1.4458,-1.3938,-1.3714,-1.3552,-1.3063,-1.2813,-1.2671,-1.2576,-1.2327,-1.2108,-1.2289,-1.2019,-1.1618,-1.1316,-1.0752,-1.0242,-1.0199,-0.9626,-0.9082,-0.8998,-0.8861,-0.8778,-0.8766,-0.8985,-0.9249,-0.9502,-0.9705,-1.002,-1.0505,-1.0563,-1.0539,-1.045,-1.0714,-1.0749,-1.0319,-1.0506,-1.0621,-1.0525,-1.064,-1.0897,-1.1367,-1.1207,-1.1282,-1.1682,-1.1829,-1.1957,-1.2095,-1.2095,-1.2095,-1.2095,-1.2095,-1.2532,-1.3383,-1.395,-1.4343,-2.4257,-2.4009,0.0,-2.3966,-2.3606,0.0,-2.3288,0.0,-2.3045,0.0,0.0,0.0,0.0,0.0,0.0,0.0,0.0,0.0,0.0,-1.7534,0.0,0.0,0.0,0.0,0.0,0.0,-1.6501,-1.725,-1.7431,-1.7685,-1.812,-1.9263,-1.9909,-1.9882,-2.0593,-2.0702,-2.0108,-1.9318,-1.8567,-1.7828,-1.7245,-1.6766,-1.638,-1.6419,-1.6338,-1.6133,-1.5768,-1.5551,-1.5404,-1.498,-1.473,-1.4604,-1.4222,-1.4092,-1.4092,-1.4092,-1.401,-1.3858,-1.3462,-1.3271,-1.3082,-1.231,-1.2039,-1.1951,-1.1728,-1.1544,-1.1463,-1.1737,-1.1539,-1.1158,-1.083,-1.0375,-0.9944,-0.974,-0.9357,-0.898,-0.8716,-0.855,-0.8454,-0.845,-0.8552,-0.8707,-0.8944,-0.8987,-0.9279,-1.0167,-1.0283,-1.0329,-1.0442,-1.062,-1.0539,-1.006,-1.0165,-1.0186,-1.0,-1.001,-1.0302,-1.0954,-1.0829,-1.0973,-1.146,-1.1627,-1.1756,-1.1884,-1.1884,-1.1884,-1.1884,-1.1884,-1.2223,-1.2856,-1.3037,-1.3308]},{"header":{"parameterUnit":"m.s-1","parameterCategory":1,"la1":30.6,"la2":29.2853,"lo1":-89.7004,"lo2":-87.6739,"dy":0.0162,"dx":0.0183,"nx":112,"ny":82,"refTime":"2023-11-05T00:00:00:Z","depth":0,"parameterNumber":3,"parameterNumberName":"V-component_of_WINDS"},"data":[0.0,0.0,0.0,0.0,0.0,0.0,0.0,0.0,0.0,0.0,0.0,0.0,0.0,0.0,0.0,0.0,0.0,0.0,0.0,0.0,0.0,0.0,0.0,0.0,0.0,0.0,0.0,0.0,0.0,0.0,0.0,0.0,0.0,0.0,0.0,0.0,0.0,0.0,0.0,0.0,0.0,0.0,0.0,0.0,0.0,0.0,0.0,0.0,0.0,0.0,0.0,0.0,0.0,0.0,0.0,0.0,0.0,0.0,0.0,0.0,0.0,0.0,0.0,0.0,0.0,0.0,0.0,0.0,0.0,0.0,0.0,0.0,0.0,0.0,0.0,0.0,0.0,0.0,0.0,0.0,0.0,0.0,0.0,0.0,0.0,0.0,0.0,0.0,0.0,0.0,-1.5586,-1.7126,-1.9095,-2.0044,-1.9444,-1.7016,-1.4809,-1.3202,0.0,0.0,0.0,0.0,0.0,0.0,0.0,0.0,0.0,0.0,0.0,0.0,0.0,0.0,0.0,0.0,0.0,0.0,0.0,0.0,0.0,0.0,0.0,0.0,0.0,0.0,0.0,0.0,0.0,0.0,0.0,0.0,0.0,0.0,0.0,0.0,0.0,0.0,0.0,0.0,0.0,0.0,0.0,0.0,0.0,0.0,0.0,0.0,0.0,0.0,0.0,0.0,0.0,0.0,0.0,0.0,0.0,0.0,0.0,0.0,0.0,0.0,0.0,0.0,0.0,0.0,0.0,0.0,0.0,0.0,0.0,0.0,0.0,0.0,0.0,0.0,0.0,0.0,0.0,0.0,0.0,0.0,0.0,0.0,0.0,0.0,0.0,0.0,0.0,0.0,0.0,0.0,0.0,0.0,0.0,0.0,0.0,0.0,0.0,0.0,0.0,0.0,0.0,0.0,-1.6956,-1.9725,-2.0188,-2.0176,-1.9927,-1.6634,-1.4305,-1.3637,0.0,0.0,0.0,0.0,0.0,0.0,0.0,0.0,0.0,0.0,0.0,0.0,0.0,0.0,0.0,0.0,0.0,0.0,0.0,0.0,0.0,0.0,0.0,0.0,0.0,0.0,0.0,0.0,0.0,0.0,0.0,0.0,0.0,0.0,0.0,0.0,0.0,0.0,0.0,0.0,0.0,0.0,0.0,0.0,0.0,0.0,0.0,0.0,0.0,0.0,0.0,0.0,0.0,0.0,0.0,0.0,0.0,0.0,0.0,0.0,0.0,0.0,0.0,0.0,0.0,0.0,0.0,0.0,0.0,0.0,0.0,0.0,0.0,0.0,0.0,0.0,0.0,0.0,0.0,0.0,0.0,0.0,0.0,0.0,0.0,0.0,0.0,0.0,0.0,0.0,0.0,0.0,0.0,0.0,0.0,0.0,0.0,0.0,0.0,0.0,0.0,0.0,0.0,-1.5937,-1.7393,-1.9941,-2.0138,-1.9898,-1.9497,-1.6075,-1.3845,-1.3498,-1.0984,0.0,0.0,0.0,0.0,0.0,0.0,0.0,0.0,0.0,0.0,0.0,0.0,0.0,0.0,0.0,0.0,0.0,0.0,0.0,0.0,0.0,0.0,0.0,0.0,0.0,0.0,0.0,0.0,0.0,0.0,0.0,0.0,0.0,0.0,0.0,0.0,0.0,0.0,0.0,0.0,0.0,0.0,0.0,0.0,0.0,0.0,0.0,0.0,0.0,0.0,0.0,0.0,0.0,0.0,0.0,0.0,0.0,0.0,0.0,0.0,0.0,0.0,0.0,0.0,0.0,0.0,0.0,0.0,0.0,0.0,0.0,0.0,0.0,0.0,0.0,0.0,0.0,0.0,0.0,0.0,0.0,0.0,0.0,0.0,0.0,0.0,0.0,0.0,0.0,0.0,0.0,0.0,0.0,0.0,0.0,0.0,0.0,0.0,0.0,0.0,0.0,0.0,-1.6638,-1.7477,-1.9551,-1.9766,-1.945,-1.8718,-1.5582,-1.3489,-1.3142,-1.0417,0.0,0.0,0.0,0.0,0.0,0.0,0.0,0.0,0.0,0.0,0.0,0.0,0.0,0.0,0.0,0.0,0.0,0.0,0.0,0.0,0.0,0.0,0.0,0.0,0.0,0.0,0.0,0.0,0.0,0.0,0.0,0.0,0.0,0.0,0.0,0.0,0.0,0.0,0.0,0.0,0.0,0.0,0.0,0.0,0.0,0.0,0.0,0.0,0.0,0.0,0.0,0.0,0.0,0.0,0.0,0.0,0.0,0.0,0.0,0.0,0.0,0.0,0.0,0.0,0.0,0.0,0.0,0.0,0.0,0.0,0.0,0.0,0.0,0.0,0.0,0.0,0.0,0.0,0.0,0.0,0.0,0.0,0.0,0.0,0.0,0.0,0.0,0.0,0.0,0.0,0.0,0.0,0.0,0.0,0.0,0.0,0.0,0.0,0.0,0.0,0.0,0.0,-1.6475,-1.7369,-1.915,-1.9336,-1.885,-1.7691,-1.5264,-1.3438,-1.2613,-1.0261,0.0,0.0,0.0,0.0,0.0,0.0,0.0,0.0,0.0,0.0,0.0,0.0,0.0,0.0,0.0,0.0,0.0,0.0,0.0,0.0,0.0,0.0,0.0,0.0,0.0,0.0,0.0,0.0,0.0,0.0,0.0,0.0,0.0,0.0,0.0,0.0,0.0,0.0,0.0,0.0,0.0,0.0,0.0,0.0,0.0,0.0,0.0,0.0,0.0,0.0,0.0,0.0,0.0,0.0,0.0,0.0,0.0,0.0,0.0,0.0,0.0,0.0,0.0,0.0,0.0,0.0,0.0,0.0,0.0,0.0,0.0,0.0,0.0,0.0,0.0,0.0,0.0,0.0,0.0,0.0,0.0,0.0,0.0,0.0,0.0,0.0,0.0,0.0,0.0,0.0,0.0,0.0,0.0,0.0,0.0,0.0,0.0,0.0,0.0,0.0,0.0,0.0,-1.5644,-1.6475,0.0,-1.814,-1.7711,-1.6715,-1.42,-1.2519,-1.2151,0.0,0.0,0.0,0.0,0.0,0.0,0.0,0.0,0.0,0.0,0.0,0.0,0.0,0.0,0.0,0.0,0.0,0.0,0.0,0.0,0.0,0.0,0.0,0.0,0.0,0.0,0.0,0.0,0.0,0.0,0.0,0.0,0.0,0.0,0.0,0.0,0.0,0.0,0.0,0.0,0.0,0.0,0.0,0.0,0.0,0.0,0.0,0.0,0.0,0.0,0.0,0.0,0.0,0.0,0.0,0.0,0.0,0.0,0.0,0.0,0.0,0.0,0.0,0.0,0.0,0.0,0.0,0.0,0.0,0.0,0.0,0.0,0.0,0.0,0.0,0.0,0.0,0.0,0.0,0.0,0.0,0.0,0.0,0.0,0.0,0.0,0.0,0.0,0.0,0.0,0.0,0.0,0.0,0.0,0.0,0.0,0.0,0.0,0.0,0.0,0.0,0.0,-1.4647,-1.5039,-1.5713,0.0,-1.7051,-1.6611,-1.5703,-1.3314,-1.1792,-1.1618,0.0,0.0,0.0,0.0,0.0,0.0,0.0,0.0,0.0,0.0,0.0,0.0,0.0,0.0,0.0,0.0,0.0,0.0,0.0,0.0,0.0,0.0,0.0,0.0,0.0,0.0,0.0,0.0,0.0,0.0,0.0,0.0,0.0,0.0,0.0,0.0,0.0,0.0,0.0,0.0,0.0,0.0,0.0,0.0,0.0,0.0,0.0,0.0,0.0,0.0,0.0,0.0,0.0,0.0,0.0,0.0,0.0,0.0,0.0,0.0,0.0,0.0,0.0,0.0,0.0,0.0,0.0,0.0,0.0,0.0,0.0,0.0,0.0,0.0,0.0,0.0,0.0,0.0,0.0,0.0,0.0,0.0,0.0,0.0,0.0,0.0,0.0,0.0,0.0,0.0,0.0,0.0,0.0,0.0,0.0,0.0,0.0,0.0,0.0,0.0,0.0,0.0,-1.4637,-1.4803,-1.5264,-1.6541,-1.6309,-1.5664,-1.4665,-1.2736,-1.1417,0.0,0.0,0.0,0.0,0.0,0.0,0.0,0.0,0.0,0.0,0.0,0.0,0.0,0.0,0.0,0.0,0.0,0.0,0.0,0.0,0.0,0.0,0.0,0.0,0.0,0.0,0.0,0.0,0.0,0.0,0.0,0.0,0.0,0.0,0.0,0.0,0.0,0.0,0.0,0.0,0.0,0.0,0.0,0.0,0.0,0.0,0.0,0.0,0.0,0.0,0.0,0.0,0.0,0.0,0.0,0.0,0.0,0.0,0.0,0.0,0.0,0.0,0.0,0.0,0.0,0.0,0.0,0.0,0.0,0.0,0.0,0.0,0.0,0.0,0.0,0.0,0.0,0.0,0.0,0.0,0.0,0.0,0.0,0.0,0.0,0.0,0.0,0.0,0.0,0.0,0.0,0.0,0.0,0.0,0.0,0.0,0.0,0.0,0.0,0.0,0.0,0.0,0.0,-1.4133,-1.4072,-1.4258,-1.5254,-1.5244,-1.4576,-1.3053,-1.1796,-1.0881,-1.0336,0.0,0.0,0.0,0.0,0.0,0.0,0.0,0.0,0.0,0.0,0.0,0.0,0.0,0.0,0.0,0.0,0.0,0.0,0.0,0.0,0.0,0.0,0.0,0.0,0.0,0.0,0.0,0.0,0.0,0.0,0.0,0.0,0.0,0.0,0.0,0.0,0.0,0.0,0.0,0.0,0.0,0.0,0.0,0.0,0.0,0.0,0.0,0.0,0.0,0.0,0.0,0.0,0.0,0.0,0.0,0.0,0.0,0.0,0.0,0.0,0.0,0.0,0.0,0.0,0.0,0.0,0.0,0.0,0.0,0.0,0.0,0.0,0.0,0.0,0.0,0.0,0.0,0.0,0.0,0.0,0.0,0.0,0.0,0.0,0.0,0.0,0.0,0.0,0.0,0.0,0.0,0.0,0.0,0.0,0.0,0.0,0.0,0.0,0.0,0.0,0.0,0.0,-1.3734,-1.3662,-1.3769,-1.4453,-1.4375,-1.3714,-1.2324,-1.1255,-1.0403,-0.9842,0.0,0.0,0.0,0.0,0.0,0.0,0.0,0.0,0.0,0.0,0.0,0.0,0.0,0.0,0.0,0.0,0.0,0.0,0.0,0.0,0.0,0.0,0.0,0.0,0.0,0.0,0.0,0.0,0.0,0.0,0.0,0.0,0.0,0.0,0.0,0.0,0.0,0.0,0.0,0.0,0.0,0.0,0.0,0.0,0.0,0.0,0.0,0.0,0.0,0.0,0.0,0.0,0.0,0.0,0.0,0.0,0.0,0.0,0.0,0.0,0.0,0.0,0.0,0.0,0.0,0.0,0.0,0.0,0.0,0.0,0.0,0.0,0.0,0.0,0.0,0.0,0.0,0.0,0.0,0.0,0.0,0.0,0.0,0.0,0.0,0.0,0.0,0.0,0.0,0.0,0.0,0.0,0.0,0.0,0.0,0.0,0.0,0.0,0.0,0.0,0.0,0.0,-1.3447,-1.3477,-1.3613,-1.4007,-1.3714,-1.3105,-1.2165,-1.0981,-1.005,-0.9459,0.0,0.0,0.0,0.0,0.0,0.0,0.0,0.0,0.0,0.0,0.0,0.0,0.0,0.0,0.0,0.0,0.0,0.0,0.0,0.0,0.0,0.0,0.0,0.0,0.0,0.0,0.0,0.0,0.0,0.0,0.0,0.0,0.0,0.0,0.0,0.0,0.0,0.0,0.0,0.0,0.0,0.0,0.0,0.0,0.0,0.0,0.0,0.0,0.0,0.0,0.0,0.0,0.0,0.0,0.0,0.0,0.0,0.0,0.0,0.0,-0.9617,0.0,0.0,0.0,0.0,0.0,0.0,0.0,0.0,0.0,0.0,0.0,0.0,0.0,0.0,0.0,0.0,0.0,0.0,0.0,0.0,0.0,0.0,0.0,0.0,0.0,0.0,0.0,0.0,0.0,0.0,0.0,0.0,0.0,0.0,0.0,0.0,0.0,0.0,0.0,0.0,0.0,-1.3408,-1.3213,-1.3174,-1.3603,-1.3555,-1.2855,-1.125,-1.0605,-0.9899,-0.8921,-0.852,0.0,0.0,0.0,0.0,0.0,0.0,0.0,0.0,0.0,0.0,0.0,0.0,0.0,0.0,0.0,0.0,0.0,0.0,0.0,0.0,0.0,0.0,0.0,0.0,0.0,0.0,0.0,0.0,0.0,0.0,0.0,0.0,0.0,0.0,0.0,0.0,0.0,0.0,0.0,0.0,0.0,0.0,0.0,0.0,0.0,0.0,0.0,0.0,0.0,0.0,0.0,0.0,0.0,0.0,0.0,0.0,0.0,0.0,0.0,0.0,-1.0017,0.0,0.0,0.0,0.0,0.0,0.0,0.0,0.0,0.0,0.0,0.0,0.0,0.0,0.0,0.0,0.0,0.0,0.0,0.0,0.0,0.0,0.0,0.0,0.0,0.0,0.0,0.0,0.0,0.0,0.0,0.0,0.0,0.0,0.0,0.0,0.0,0.0,0.0,0.0,0.0,-1.3145,-1.3042,-1.2993,-1.3184,-1.3203,-1.2635,-1.1208,-1.0757,-0.9975,-0.8645,-0.8312,0.0,0.0,0.0,0.0,0.0,0.0,0.0,0.0,0.0,0.0,0.0,0.0,0.0,0.0,0.0,0.0,0.0,0.0,0.0,0.0,0.0,0.0,0.0,0.0,0.0,0.0,0.0,0.0,0.0,0.0,0.0,0.0,0.0,0.0,0.0,0.0,0.0,0.0,0.0,0.0,0.0,0.0,0.0,0.0,0.0,0.0,0.0,0.0,0.0,0.0,0.0,0.0,0.0,-0.845,-0.9206,-1.0336,-1.072,-1.1427,-1.2222,-1.1756,-1.1145,-1.0501,-1.0633,0.0,0.0,0.0,0.0,0.0,0.0,0.0,0.0,0.0,0.0,0.0,0.0,0.0,0.0,0.0,0.0,0.0,0.0,0.0,0.0,0.0,0.0,0.0,0.0,-0.9211,-0.9092,-0.8615,0.0,0.0,0.0,0.0,0.0,0.0,0.0,0.0,0.0,0.0,0.0,-1.2905,-1.2905,-1.2905,-1.2905,-1.2832,-1.2387,-1.1432,-1.0937,-1.0054,-0.8621,-0.8281,-0.8056,0.0,0.0,0.0,0.0,0.0,0.0,0.0,0.0,0.0,0.0,0.0,0.0,0.0,0.0,0.0,0.0,0.0,0.0,0.0,0.0,0.0,0.0,0.0,0.0,0.0,0.0,0.0,0.0,0.0,0.0,0.0,0.0,-0.2734,-0.317,0.0,0.0,0.0,0.0,0.0,0.0,0.0,0.0,0.0,0.0,0.0,0.0,0.0,-0.7655,-0.8107,-0.883,-0.9151,-0.8962,-0.9445,-1.0102,-1.0896,-1.0953,-1.1392,-1.2129,-1.2019,0.0,-1.1957,-1.1236,0.0,0.0,0.0,0.0,0.0,0.0,0.0,0.0,0.0,0.0,0.0,0.0,0.0,0.0,0.0,0.0,0.0,0.0,0.0,0.0,0.0,0.0,-0.9211,-0.9211,-0.9294,-0.9275,0.0,-0.9306,-0.9768,-1.014,-1.0903,0.0,0.0,0.0,0.0,0.0,0.0,0.0,-1.2905,-1.2905,-1.2905,-1.2905,-1.248,-1.195,-1.129,-1.0548,-0.981,-0.9137,-0.851,-0.8312,-0.8553,-0.8282,0.0,0.0,0.0,0.0,0.0,0.0,0.0,0.0,0.0,0.0,0.0,0.0,0.0,0.0,0.0,0.0,0.0,0.0,0.0,0.0,0.0,0.0,0.0,0.0,0.0,0.0,0.0,0.0,0.0,-0.2473,-0.3463,-0.3318,-0.3429,-0.3833,0.0,0.0,0.0,0.0,0.0,0.0,0.0,0.0,0.0,-0.7761,-0.8075,-0.8512,-0.9114,-0.9444,-0.962,-0.9701,-1.0034,-1.0613,-1.1387,-1.1387,-1.1815,-1.2624,-1.2486,-1.2402,-1.2251,-1.1805,-1.1254,-1.0735,0.0,0.0,0.0,0.0,-1.0708,-1.0889,-1.0628,-1.0501,-1.034,-0.9858,0.0,0.0,0.0,0.0,0.0,0.0,0.0,0.0,0.0,0.0,-0.9704,-0.9704,-0.9762,-0.9733,-0.9443,-0.9432,-0.9554,0.0,-1.0631,-1.144,-1.1935,0.0,0.0,0.0,0.0,-1.2905,-1.2905,-1.2627,-1.2446,-1.2446,-1.1943,-1.136,-1.0804,-1.0438,-0.9843,-0.8974,-0.8572,-0.8375,-0.8414,-0.8253,-0.8346,0.0,0.0,0.0,0.0,0.0,0.0,0.0,0.0,0.0,0.0,0.0,0.0,0.0,0.0,0.0,0.0,0.0,0.0,0.0,0.0,0.0,0.0,0.0,0.0,0.0,0.0,0.0,0.0,-0.2937,-0.4036,-0.3399,-0.4146,-0.4726,0.0,0.0,0.0,0.0,0.0,0.0,-0.7092,-0.7451,-0.7945,-0.8678,-0.8903,-0.9379,-1.0164,-1.0071,-1.0154,-1.0424,-1.0456,-1.0798,-1.1444,-1.1394,-1.1723,-1.2269,-1.2088,-1.1818,-1.1642,-1.175,-1.156,-1.1165,-1.1409,-1.1803,-1.2128,-1.1657,-1.1735,-1.2037,-1.175,-1.1496,-1.1222,-1.0666,-1.0152,-0.9626,-0.9176,0.0,0.0,0.0,0.0,-0.9391,-0.9719,-0.9953,-1.0134,-1.0214,-1.0144,-0.9999,-0.9784,-0.9477,-0.926,0.0,-1.0184,-1.0897,-1.161,0.0,0.0,0.0,0.0,-1.27,-1.27,-1.22,-1.1868,-1.1868,-1.136,-1.0829,-1.0421,-1.0267,-0.9829,-0.898,-0.8767,-0.8585,-0.8341,-0.8172,-0.8185,-0.8423,0.0,0.0,0.0,0.0,0.0,0.0,0.0,0.0,0.0,0.0,0.0,0.0,0.0,0.0,0.0,0.0,0.0,0.0,0.0,0.0,0.0,0.0,0.0,0.0,0.0,0.0,0.0,0.0,0.0,-0.3739,-0.5286,0.0,0.0,0.0,0.0,-0.6744,-0.7237,-0.76,-0.7756,-0.8095,-0.8723,-0.9796,-0.9811,-1.0251,-1.111,-1.1009,-1.0928,-1.0984,-1.0757,-1.0731,-1.0714,-1.0547,-1.0424,-1.0344,-1.0153,-0.9921,-0.98,-1.0671,-1.1451,-1.1869,-1.0043,-1.0427,-1.1813,-1.0755,-1.0845,-1.1395,-1.1136,-1.1022,-1.0923,-1.0377,-1.003,-0.9788,-0.9692,-0.9668,0.0,0.0,-0.9659,-0.9726,-1.002,-1.0077,-1.0187,-1.0506,-1.0228,-0.9896,-0.9882,-0.9522,-0.9238,0.0,-0.964,-1.0142,-1.1077,0.0,-1.2126,-1.2627,-1.2382,-1.215,-1.215,-1.161,-1.1259,-1.1259,-1.0753,-1.0429,-1.0403,-0.9932,-0.9625,-0.957,-0.9307,-0.9031,-0.8677,-0.8235,-0.8077,-0.8202,-0.7759,0.0,0.0,0.0,0.0,0.0,0.0,0.0,0.0,0.0,0.0,0.0,0.0,0.0,0.0,0.0,0.0,0.0,0.0,0.0,0.0,0.0,0.0,0.0,0.0,0.0,0.0,0.0,0.0,-0.3046,-0.3866,0.0,-0.5692,-0.5383,-0.5812,-0.7486,-0.7967,-0.8316,-0.8655,-0.8994,-0.9498,-1.034,-1.0242,-1.0582,-1.1399,-1.0943,-1.0799,-1.1024,-1.0781,-1.0635,-1.0521,-1.0343,-1.016,-0.9973,-0.9795,-0.9685,-0.9608,-0.9966,-1.0524,-1.1196,-1.0994,-1.1347,-1.193,-1.2011,-1.218,-1.2438,-1.2628,-1.2445,-1.1984,-1.0841,-1.0129,-0.9723,-0.9721,-0.9715,-0.9726,-0.9913,-0.996,-1.0033,-1.0358,-1.0432,-1.0459,-1.0566,-1.0315,-0.9996,-0.9807,-0.9478,-0.918,-0.9158,-0.9559,-1.0136,-1.0831,-1.143,-1.1925,-1.215,-1.215,-1.1968,-1.156,-1.1032,-1.0676,-1.0676,-1.0216,-0.9873,-0.9873,-0.9718,-0.9588,-0.9588,-0.9336,-0.9148,-0.9031,-0.8351,-0.7925,-0.7745,-0.7201,-0.718,0.0,0.0,0.0,0.0,0.0,0.0,0.0,0.0,0.0,0.0,0.0,0.0,0.0,0.0,0.0,0.0,0.0,0.0,0.0,0.0,0.0,0.0,0.0,0.0,0.0,0.0,-0.3179,-0.2741,-0.3467,-0.4493,-0.5654,-0.5634,-0.6358,-0.8245,-0.8693,-0.8994,-0.9293,-0.9479,-0.9884,-1.0509,-1.0358,-1.0618,-1.1319,-1.0801,-1.0685,-1.1024,-1.072,-1.0574,-1.0513,-1.0209,-1.0034,-0.9965,-0.973,-0.9579,-0.9579,-0.9579,-0.989,-1.0386,-1.092,-1.1476,-1.196,-1.2119,-1.2214,-1.2361,-1.2713,-1.2772,-1.2455,-1.1383,-1.07,-1.0254,-1.0154,-1.009,-1.005,-1.0214,-1.0267,-1.0314,-1.0539,-1.0593,-1.0593,-1.0593,-1.0261,-0.992,-0.9726,-0.9372,-0.9031,-0.8944,-0.9335,-0.9847,-1.0362,-1.0906,-1.1325,-1.151,-1.1519,-1.1385,-1.0981,-1.0472,-1.0138,-1.0138,-0.9821,-0.9588,-0.9588,-0.9562,-0.9492,-0.9416,-0.922,-0.9016,-0.8798,-0.8401,-0.8032,-0.7738,-0.7018,-0.7111,-0.8069,0.0,0.0,0.0,0.0,0.0,0.0,0.0,0.0,0.0,0.0,0.0,0.0,0.0,0.0,0.0,0.0,0.0,0.0,0.0,0.0,0.0,0.0,0.0,-0.1392,-0.2521,-0.3213,-0.2818,-0.4162,-0.5452,-0.631,-0.685,-0.7732,-0.9051,-0.9445,-0.9615,-0.9615,-0.9615,-0.9796,-1.0301,-1.0162,-1.038,-1.0965,-1.0786,-1.0788,-1.0964,-1.0552,-1.0467,-1.0655,-1.0128,-0.9981,-1.018,-0.9778,-0.9579,-0.9579,-0.9579,-0.9575,-0.9571,-0.9571,-1.0541,-1.1798,-1.0833,-1.0657,-1.0959,-1.1298,-1.1752,-1.2191,-1.1928,-1.1628,-1.1267,-1.1016,-1.0763,-1.0536,-1.0561,-1.0561,-1.0561,-1.0561,-1.0593,-1.0593,-1.0561,-1.0114,-0.9722,-0.9715,-0.9232,-0.8818,-0.8804,-0.891,-0.9159,-0.9692,-1.0012,-1.032,-1.0719,-1.0549,0.0,-1.0377,-0.9925,-0.9588,-0.9588,-0.9588,-0.9588,-0.9588,-0.9484,-0.9284,-0.9033,-0.8941,-0.8623,-0.8039,-0.8312,-0.8372,-0.8194,-0.7233,-0.7226,-0.8216,0.0,0.0,0.0,0.0,0.0,0.0,0.0,0.0,0.0,0.0,0.0,0.0,0.0,0.0,0.0,0.0,0.0,0.0,0.0,0.0,0.0,0.0,-0.1513,-0.1521,-0.1914,-0.2136,-0.2125,-0.2531,-0.3269,-0.4367,-0.5534,-0.6759,-0.7943,-0.9111,-0.9764,-0.9764,-0.9764,-0.9902,-1.0304,-1.0162,-1.0321,-1.0732,-1.0436,-1.0269,-1.0333,-1.0214,-1.0063,-0.9981,-0.9911,-0.9843,-0.977,-0.9669,-0.9579,-0.9579,-0.9579,-0.9551,-0.9477,-0.9477,-0.9748,-1.0137,-1.0259,-1.0661,-1.1245,-1.1578,-1.1306,-1.0821,-1.0973,-1.042,-0.9633,-0.9462,-0.9342,-0.9383,-0.9707,-0.9811,-0.9811,-0.9811,-1.0199,-1.0466,-0.9939,-0.9891,-0.994,-0.9733,-0.9385,-0.9031,-0.8844,-0.8831,-0.9035,-0.9562,-0.9788,-0.9943,-1.0053,-1.0174,0.0,-0.9725,-0.9647,-0.9588,-0.9588,-0.9588,-0.9588,-0.9588,-0.9484,-0.9377,-0.9291,-0.8855,-0.8549,-0.837,-0.7981,-0.7745,-0.7702,-0.7896,-0.8186,0.0,0.0,0.0,0.0,0.0,0.0,0.0,0.0,0.0,0.0,0.0,0.0,0.0,0.0,0.0,0.0,0.0,0.0,0.0,0.0,0.0,0.0,-0.1536,-0.1683,-0.1695,-0.1748,-0.1811,-0.1895,-0.1916,-0.2411,-0.3642,-0.4554,-0.5825,-0.7577,-0.849,-0.9207,-0.9758,-0.9822,-0.9879,-1.0061,-0.9982,-0.9989,-1.0274,-1.0014,-0.9872,-0.9901,-0.9854,-0.9836,-0.9739,-0.9744,-0.9762,-0.973,-0.9661,-0.9579,-0.9571,-0.9547,-0.9449,0.0,0.0,0.0,0.0,0.0,-0.995,-1.0576,-1.0664,-1.05,-1.0235,-1.0341,-0.9824,-0.9207,-0.9114,-0.9008,-0.8947,-0.914,-0.9394,-0.9533,-0.9163,-0.9843,-1.0396,-0.9678,-0.9824,-1.0067,-0.99,-0.9633,-0.9311,-0.9018,-0.8958,0.0,-0.9232,-0.9387,-0.9465,-0.9465,-0.964,-0.9692,-0.9439,-0.9413,-0.9465,-0.951,-0.9465,-0.9465,-0.951,-0.9335,0.0,0.0,0.0,-0.8548,-0.8669,-0.8364,0.0,0.0,0.0,-0.8834,-0.8914,-0.9255,0.0,0.0,-0.9339,-0.9445,0.0,0.0,0.0,0.0,0.0,0.0,0.0,0.0,0.0,0.0,0.0,0.0,0.0,0.0,0.0,0.0,-0.1693,-0.179,-0.1872,-0.1894,-0.1906,-0.1933,-0.1957,-0.2463,-0.3569,-0.3815,-0.4916,-0.7243,-0.7734,-0.841,-0.9515,0.0,0.0,0.0,0.0,-0.9634,-0.9726,-0.9607,-0.9539,-0.9509,-0.9561,-0.963,-0.9707,-0.9581,-0.9663,-0.9847,-0.9693,-0.9579,-0.9612,-0.9477,-0.938,-0.9343,-0.9343,-0.9088,-0.8775,-0.8621,-0.894,-0.939,-0.9234,0.0,0.0,-0.9796,-0.9532,-0.9254,-0.9265,-0.9042,-0.8799,-0.8719,-0.9114,-0.937,-0.8619,-0.9446,-1.0295,-0.9556,-0.9787,-1.016,-1.0127,-0.9913,-0.9633,-0.9277,-0.9211,-0.9118,-0.8858,-0.891,-0.8982,-0.8982,-0.908,-0.9211,-0.9335,-0.9263,-0.9237,-0.9361,0.0,0.0,-0.9361,-0.9133,-0.8944,-0.8826,-0.8627,-0.8611,-0.8809,-0.9015,-0.9125,-0.9168,-0.9187,-0.9226,-0.9251,-0.9251,-0.9358,-0.9607,-0.9343,-0.9251,0.0,0.0,0.0,0.0,0.0,0.0,0.0,0.0,0.0,0.0,0.0,0.0,0.0,0.0,0.0,-0.1631,-0.1756,-0.1862,-0.1915,-0.1943,-0.1961,-0.1967,-0.1952,-0.201,-0.2342,-0.3326,-0.412,-0.4611,-0.6693,-0.798,-0.8224,-0.9268,-0.9822,-0.9822,-0.9564,-0.947,-0.9497,-0.9169,-0.8999,-0.8868,0.0,0.0,-0.9222,-0.9276,-0.9401,-0.9673,-0.9595,-0.9579,-0.9612,-0.9477,-0.9233,-0.8922,-0.8922,-0.88,-0.8657,-0.8624,-0.8675,-0.881,-0.9082,-0.8842,-0.8473,-0.8817,-0.8443,-0.7854,-0.7707,-0.7601,0.0,-0.804,-0.8137,-0.8069,-0.7889,-0.8766,-0.955,-0.8844,-0.9615,-1.0439,-1.0167,-1.0074,-0.9844,-0.9317,-0.9211,-0.9118,-0.8858,-0.8831,-0.8831,-0.8831,-0.8956,-0.9035,-0.9087,-0.9133,-0.9211,-0.9237,-0.9211,-0.9211,-0.9237,-0.908,-0.8988,-0.8952,-0.8661,-0.8465,-0.8409,-0.855,-0.8731,-0.8941,-0.9122,-0.9308,-0.9533,-0.9533,-0.9555,-0.9588,-0.9555,-0.9533,0.0,0.0,0.0,0.0,0.0,0.0,0.0,0.0,0.0,0.0,0.0,0.1531,0.0,0.0,-0.0779,-0.163,-0.184,-0.1919,-0.1949,-0.1954,-0.196,-0.1975,-0.1963,-0.196,-0.1975,-0.259,-0.3203,-0.3876,-0.5161,-0.6202,-0.6877,-0.8163,-0.8839,-0.8839,-0.9235,-0.9381,-0.9381,-0.9086,-0.8821,-0.8594,-0.879,-0.884,-0.8751,-0.9072,-0.9282,-0.943,-0.9529,-0.9579,-0.9608,-0.9336,-0.9015,-0.8694,-0.8694,-0.8641,-0.86,-0.8506,-0.843,-0.8463,-0.8505,-0.8264,-0.7996,-0.8065,-0.7893,-0.7624,-0.7407,-0.7354,-0.7388,-0.7569,-0.773,-0.7762,-0.7327,-0.8342,-0.9326,-0.8651,-0.9588,-1.0553,-1.0405,-1.0341,-1.016,-0.9573,-0.9459,-0.9325,-0.8884,-0.8804,-0.8804,-0.8804,-0.8857,-0.8936,-0.8982,-0.9008,-0.9035,-0.908,-0.9035,-0.9035,-0.908,-0.9035,-0.8982,-0.891,-0.8813,-0.8714,-0.8664,-0.8777,-0.8904,-0.905,-0.916,-0.9309,-0.9484,-0.9484,-0.9536,-0.9588,-0.9588,-0.9588,0.0,0.0,0.0,0.0,0.0,0.0,0.0,0.0,0.2635,0.2709,0.2725,0.2352,0.1072,0.057,-0.0055,-0.1325,-0.1725,-0.1947,-0.1965,-0.1947,-0.1938,-0.1957,-0.1964,-0.1968,-0.1968,-0.1973,-0.2406,-0.3448,-0.3753,-0.4366,-0.5468,-0.6754,-0.7601,-0.7823,-0.8387,-0.8781,-0.8987,-0.8732,-0.8304,-0.7834,-0.8289,-0.8395,-0.8125,-0.8546,-0.8882,-0.9133,-0.943,-0.9509,-0.9453,-0.9183,-0.8905,-0.8657,-0.8624,-0.8612,-0.8588,-0.8357,-0.8292,-0.8239,-0.7922,-0.789,-0.791,-0.7586,-0.7624,-0.7718,-0.7567,-0.7484,-0.7452,-0.7317,-0.7541,-0.7668,-0.6964,-0.8105,-0.9288,-0.8641,-0.9624,-1.066,-1.06,-1.0593,-1.0432,-0.9873,-0.9726,-0.9512,-0.8985,-0.8844,-0.8804,-0.8804,-0.8804,-0.8831,-0.8962,-0.8857,-0.8831,-0.8962,-0.8857,-0.8804,-0.8791,-0.8791,-0.8738,-0.8639,-0.8824,-0.8956,-0.8956,-0.9061,-0.9133,-0.9159,-0.9159,-0.9237,-0.9413,-0.9413,-0.9465,-0.9588,-0.9588,-0.9588,0.3548,0.2871,0.233,0.2579,0.2565,0.261,0.0,0.0,0.3069,0.3136,0.2701,0.2211,0.2041,0.0723,-0.0404,-0.0536,-0.1339,-0.1963,-0.1939,-0.1933,-0.1922,-0.1898,-0.1919,-0.1937,-0.1937,-0.1961,-0.2038,-0.2223,-0.3265,-0.3936,-0.412,-0.5406,-0.6593,-0.7589,-0.657,-0.6524,-0.763,-0.7385,-0.6699,-0.5487,-0.6574,-0.7087,-0.7049,-0.7083,-0.7726,-0.8874,-0.913,-0.9196,-0.9083,-0.9083,-0.8974,-0.8775,-0.8625,-0.8612,-0.8588,-0.8357,-0.8292,-0.8239,-0.7922,-0.7812,-0.7796,-0.7588,-0.7496,-0.7512,-0.7488,-0.7484,-0.748,-0.746,-0.7363,-0.7224,-0.7004,-0.8098,-0.912,-0.8625,-0.9764,-1.0875,-1.0646,-1.0593,-1.0492,-1.0134,-0.986,-0.9579,-0.9217,-0.8951,-0.8804,-0.8804,-0.8804,-0.8811,-0.8831,-0.8811,-0.8811,-0.8831,-0.8811,-0.8586,-0.8064,-0.8037,-0.801,-0.801,-0.8527,-0.8831,-0.8831,-0.8831,-0.891,-0.9008,-0.9035,-0.9133,-0.9413,-0.9413,-0.9465,-0.9588,-0.9588,-0.9588,0.2795,0.2613,0.2506,0.0,0.268,0.2824,0.3026,0.3087,0.3136,0.3259,0.3114,0.2818,0.2294,0.1598,0.071,0.0,-0.0857,-0.1302,-0.1817,-0.1841,-0.1867,-0.1836,-0.1844,-0.1873,-0.1926,-0.1943,-0.1958,-0.1975,-0.2468,-0.2774,-0.2774,-0.4029,-0.4964,-0.5412,-0.557,-0.5824,-0.6353,-0.6196,-0.5762,-0.5124,-0.5621,-0.5836,-0.5779,-0.6483,-0.7528,-0.8825,-0.8928,-0.8829,-0.8579,-0.8605,-0.8555,-0.8435,-0.8408,-0.8408,-0.8398,-0.8316,-0.8292,-0.8239,-0.7922,-0.7865,-0.7862,-0.7577,-0.7596,-0.7661,-0.7555,-0.7484,-0.7484,-0.7484,-0.7358,-0.7171,-0.7131,-0.7816,-0.8419,-0.811,-0.9208,-1.0114,-0.9514,-1.0009,-1.038,-0.9647,-0.9613,-0.9586,-0.9264,-0.8971,-0.8804,-0.8804,-0.8804,-0.8672,-0.8315,-0.8282,-0.815,-0.7836,-0.8103,-0.8043,-0.7482,-0.8043,-0.8282,-0.7925,-0.8474,-0.8804,-0.8804,-0.8804,-0.8831,-0.8883,-0.8883,-0.8982,-0.9159,-0.9159,-0.9283,-0.9491,-0.9491,-0.951,0.2318,0.0,0.0,0.2632,0.2823,0.3012,0.3029,0.3115,0.3165,0.3304,0.3402,0.3261,0.2676,0.234,0.1653,0.0118,-0.0365,-0.0864,-0.1745,-0.1815,-0.1826,-0.1787,-0.1775,-0.1803,-0.1885,-0.1909,-0.1928,-0.195,-0.196,-0.1964,-0.1964,-0.2851,-0.3486,-0.3828,-0.4306,-0.469,-0.5064,-0.4923,-0.4645,-0.4173,-0.4489,-0.4568,-0.4529,-0.5992,-0.7229,-0.8177,-0.8528,-0.8519,-0.8266,-0.8312,-0.8264,-0.8174,-0.8078,-0.8084,-0.8185,-0.8138,-0.8143,-0.8109,-0.789,-0.7845,-0.7825,-0.7565,-0.7612,-0.7698,-0.7563,-0.7484,-0.7484,-0.7484,-0.7395,-0.7285,-0.7203,-0.7705,-0.8093,-0.778,-0.8696,-0.9439,-0.8652,-0.946,-1.0046,-0.9115,-0.9359,-0.9555,-0.911,-0.8773,-0.856,-0.856,-0.8427,-0.8289,-0.817,-0.801,-0.7691,-0.7166,-0.7289,-0.7283,-0.6891,-0.7616,-0.791,-0.7471,-0.799,-0.8321,-0.8321,-0.848,-0.856,-0.856,-0.8725,-0.8857,-0.9008,-0.9008,-0.9106,-0.9335,-0.9335,-0.9387,0.0,0.0,0.273,0.2947,0.304,0.3101,0.3158,0.3271,0.3318,0.332,0.3371,0.3432,0.3432,0.2717,0.1814,0.0878,0.0,-0.09,-0.1773,-0.186,-0.1818,-0.1813,-0.1725,-0.1731,0.0,-0.1853,-0.1887,-0.1889,-0.1916,-0.1932,-0.1932,-0.1932,-0.2514,-0.365,-0.255,-0.2452,-0.3639,-0.3577,-0.2973,-0.1904,-0.2978,-0.34,-0.3398,-0.5472,-0.6434,-0.6537,-0.7832,-0.8347,-0.819,-0.8266,-0.8244,-0.8065,-0.7737,-0.775,-0.7874,-0.7705,-0.7696,-0.7816,-0.7804,-0.7686,-0.7496,-0.7488,-0.7488,-0.7488,-0.7484,-0.7484,-0.7484,-0.7484,-0.748,-0.7435,-0.7269,-0.7944,-0.8529,-0.785,-0.8477,-0.9095,-0.8592,-0.9037,-0.932,-0.864,-0.915,-0.947,-0.8751,-0.8219,-0.7925,-0.7925,-0.7482,-0.7542,-0.8646,-0.8256,-0.7691,-0.7166,-0.6588,-0.6236,-0.6236,-0.6263,-0.6263,-0.6258,-0.681,-0.7166,-0.7166,-0.7637,-0.7925,-0.7925,-0.8507,-0.8857,-0.9008,-0.9008,-0.9087,-0.9211,-0.9211,-0.9211,0.0,0.0,0.301,0.3104,0.3169,0.3176,0.3327,0.3335,0.3322,0.3322,0.3305,0.3285,0.3263,0.3028,0.2576,0.1702,0.0862,0.0,-0.0825,-0.1466,-0.184,-0.1814,-0.1759,0.0,0.0,0.0,0.0,-0.1881,-0.1895,-0.191,-0.193,-0.1871,-0.2096,-0.2474,-0.2029,-0.1996,-0.2409,-0.2396,-0.2161,-0.1819,-0.2118,-0.2584,-0.3232,-0.3949,-0.4678,-0.5375,-0.6495,-0.6876,-0.6792,-0.7456,-0.7724,-0.7697,-0.7476,-0.7491,-0.7566,-0.751,-0.7509,-0.7565,-0.7687,-0.7737,-0.7686,-0.7563,-0.7484,-0.7484,-0.7484,-0.7484,-0.7484,-0.7484,-0.7484,-0.7472,-0.7411,-0.7543,-0.7644,-0.7323,-0.772,-0.8006,-0.7254,-0.8004,-0.8651,-0.7972,-0.8446,-0.8786,-0.8163,-0.7968,-0.7771,-0.7429,-0.6885,-0.6642,-0.702,-0.6534,-0.6109,-0.5918,-0.6077,-0.6046,-0.565,-0.6327,-0.662,-0.6236,-0.6756,-0.7112,-0.7112,-0.7268,-0.7375,-0.7375,-0.7563,-0.7702,-0.7723,-0.7723,-0.799,-0.8455,-0.8111,-0.8382,0.2856,0.3026,0.3176,0.3296,0.3326,0.3335,0.3372,0.3332,0.327,0.3204,0.3144,0.3085,0.3023,0.3094,0.2852,0.1973,0.1472,0.0738,-0.0349,-0.1041,-0.1481,-0.1786,-0.178,-0.1765,0.0,0.0,0.0,-0.1833,-0.1867,-0.1894,-0.1914,-0.1925,-0.1917,-0.1887,-0.1856,-0.1825,-0.1795,-0.1784,-0.1814,-0.1772,-0.1743,-0.2017,-0.2622,-0.3022,-0.356,-0.4278,-0.5647,-0.6112,-0.6046,-0.6991,-0.7375,-0.7353,-0.7199,-0.7165,-0.7195,-0.7179,-0.7215,-0.7333,-0.7591,-0.7744,-0.778,-0.7661,-0.7575,-0.7484,-0.7484,-0.7567,-0.7608,-0.75,-0.7567,-0.7604,-0.75,-0.7354,-0.7179,-0.7033,-0.7163,-0.7175,-0.6523,-0.7326,-0.7939,-0.7232,-0.7763,-0.8134,-0.7507,-0.7353,-0.7095,-0.6544,-0.6132,-0.5968,-0.6182,-0.5859,-0.554,-0.5325,-0.5645,-0.5727,-0.5325,-0.6,-0.63,-0.5914,-0.6245,-0.6463,-0.6463,-0.6674,-0.6783,-0.6783,-0.6999,-0.7187,-0.7375,-0.7375,-0.7717,-0.8329,-0.799,-0.8282,0.3042,0.3192,0.3362,0.3477,0.3496,0.3459,0.3346,0.3267,0.3165,0.3033,0.2944,0.2837,0.0,0.0,0.2669,0.1886,0.1794,0.128,-0.0228,-0.0505,-0.0779,0.0,0.0,0.0,0.0,0.0,0.0,-0.1809,0.0,-0.1884,-0.1886,-0.1915,-0.1917,-0.1884,-0.1855,-0.1825,-0.1795,-0.1818,-0.1773,-0.1717,-0.1688,-0.1671,-0.1617,-0.2672,-0.3142,-0.3236,-0.5183,-0.5926,-0.5853,-0.6865,-0.7188,-0.7037,-0.694,-0.6879,-0.6856,-0.6746,-0.6882,-0.7137,-0.7539,-0.7736,-0.78,-0.78,-0.7686,-0.7508,-0.7508,-0.7665,-0.7763,-0.7584,-0.7657,-0.7743,-0.7567,-0.7354,-0.7183,-0.7045,-0.6853,-0.6665,-0.6469,-0.6951,-0.7246,-0.6552,-0.7116,-0.7472,-0.6809,-0.6388,-0.5968,-0.538,-0.5297,-0.5513,-0.6073,-0.6154,-0.5941,-0.5352,-0.5297,-0.5297,-0.5297,-0.5297,-0.5297,-0.5297,-0.5297,-0.5297,-0.5297,-0.5864,-0.6154,-0.6154,-0.6729,-0.7268,-0.7765,-0.7765,-0.8064,-0.8672,-0.8646,-0.8646,0.3301,0.3429,0.3538,0.3613,0.3497,0.3358,0.3328,0.3169,0.3036,0.29,0.2707,0.2585,0.0,0.0,0.0,0.2674,0.2321,0.0,0.1628,0.0356,0.0,-0.0762,0.0,-0.1864,-0.1812,-0.1813,0.0,0.0,-0.1838,-0.1862,-0.1885,-0.1915,-0.1907,-0.1853,-0.1787,-0.1825,-0.1795,-0.1742,-0.1708,-0.1693,-0.1656,-0.1631,-0.1617,-0.1868,-0.2014,-0.2053,-0.33,-0.3764,-0.3866,-0.5522,-0.6147,-0.6107,-0.6681,-0.6858,-0.6742,-0.6753,-0.6914,-0.7118,-0.74,-0.7633,-0.78,-0.78,-0.7813,-0.7878,-0.7878,-0.7821,-0.7788,-0.7743,-0.7661,-0.758,-0.7496,-0.7354,-0.7175,-0.7167,-0.6911,-0.6698,-0.6619,-0.6785,-0.6819,-0.6478,-0.6375,-0.6433,-0.6547,-0.5973,-0.5485,-0.5325,-0.5297,-0.5352,-0.5513,-0.554,-0.5458,-0.5325,-0.5297,-0.5297,-0.5297,-0.5297,-0.5297,-0.5297,-0.5297,-0.5297,-0.5297,-0.5462,-0.554,-0.554,-0.5677,-0.5814,-0.5973,-0.5973,-0.6268,-0.6858,-0.6404,-0.6674,0.3529,0.3636,0.3709,0.3717,0.3576,0.3403,0.322,0.3094,0.2939,0.267,0.2522,0.0,0.0,0.0,0.0,0.0,0.0,0.0,0.2226,0.1345,0.0594,0.0,-0.0301,0.0,-0.1173,-0.1231,-0.135,0.0,-0.1868,-0.1868,-0.1885,-0.1915,-0.1844,-0.1785,-0.1783,-0.1819,-0.1776,-0.1741,-0.1711,-0.1685,-0.1652,-0.163,-0.1617,-0.1617,-0.1609,-0.1646,0.0,-0.3003,-0.3091,-0.4558,-0.543,-0.5858,-0.6219,-0.6543,-0.6783,-0.6757,-0.6812,-0.6888,-0.7003,-0.7288,-0.7633,-0.776,-0.7808,-0.778,-0.778,-0.7808,-0.78,-0.78,-0.7726,-0.7645,-0.7645,-0.7415,-0.7187,-0.7187,-0.6948,-0.6684,-0.671,-0.6623,-0.6518,-0.6335,-0.6136,-0.6008,-0.6091,-0.5662,-0.5297,-0.5297,-0.5297,-0.5297,-0.5297,-0.5297,-0.5297,-0.5297,-0.5297,-0.5297,-0.5297,-0.5297,-0.5297,-0.5297,-0.5297,-0.5297,-0.5297,-0.5297,-0.5297,-0.5297,-0.5297,-0.5434,-0.57,-0.57,-0.5996,-0.6588,-0.6245,-0.6463,0.3733,0.388,0.3903,0.3833,0.3659,0.3485,0.3184,0.301,0.2859,0.2477,0.0,0.2259,0.2208,0.2299,0.2499,0.2744,0.0,0.2934,0.2375,0.2248,0.196,0.1282,0.1095,0.0668,-0.0246,-0.0364,-0.0782,-0.1628,-0.184,-0.188,-0.188,-0.1904,-0.1834,-0.1779,-0.1773,-0.1803,-0.1804,-0.1797,-0.1766,-0.1714,-0.171,-0.1642,-0.1617,-0.1617,-0.1603,-0.1627,-0.246,-0.2822,-0.2865,-0.3747,-0.4731,-0.5581,-0.5526,-0.5995,-0.6721,-0.6573,-0.6579,-0.6634,-0.6669,-0.6952,-0.7386,-0.7676,-0.7667,-0.7553,-0.7553,-0.7706,-0.7829,-0.7808,-0.78,-0.7792,-0.7771,-0.7492,-0.7223,-0.7223,-0.7009,-0.6757,-0.6755,-0.6558,-0.6379,-0.6273,-0.6156,-0.5979,-0.5701,-0.5458,-0.527,-0.5215,-0.5274,-0.527,-0.5215,-0.5274,-0.5297,-0.5297,-0.5297,-0.5297,-0.5297,-0.5297,-0.5297,-0.5297,-0.5297,-0.5297,-0.5297,-0.5297,-0.5297,-0.5297,-0.5297,-0.5567,-0.6073,-0.6073,-0.6349,-0.6869,-0.6869,-0.6869,0.3867,0.3912,0.3894,0.3722,0.3567,0.3364,0.3059,0.282,0.0,0.0,0.0,0.2215,0.2206,0.2307,0.0,0.2744,0.0,0.0,0.0,0.0,0.2237,0.0,0.0,0.0,0.0,0.0,0.0,0.0,0.0,-0.1791,-0.1791,-0.1795,-0.184,-0.1804,-0.1778,-0.1816,-0.1804,-0.1755,-0.1725,-0.1714,-0.1637,-0.1622,-0.1617,-0.1617,-0.1614,-0.1609,-0.1759,0.0,-0.1905,-0.2864,-0.3319,-0.3613,-0.4338,-0.51,-0.5761,-0.5769,-0.6191,-0.6799,-0.6954,-0.7092,-0.719,-0.739,-0.7664,-0.7923,-0.7923,-0.7943,-0.7939,-0.7841,-0.78,-0.7763,-0.7608,-0.7484,-0.7439,-0.7439,-0.7281,-0.7094,-0.6971,-0.6647,-0.6453,-0.6596,-0.6229,-0.5912,-0.5852,-0.5543,-0.5187,-0.4853,-0.5077,-0.5187,-0.4857,-0.5105,-0.5297,-0.5297,-0.5297,-0.5297,-0.5297,-0.5297,-0.5297,-0.5297,-0.5297,-0.5297,-0.5297,-0.5297,-0.5297,-0.5297,-0.5297,-0.5352,-0.5462,-0.5462,-0.5517,-0.5622,-0.5622,-0.5622,0.3887,0.3905,0.3914,0.3763,0.3615,0.3399,0.3051,0.0,0.0,0.0,0.2229,0.2188,0.2188,0.0,0.0,0.0,0.0,0.0,0.0,0.0,0.0,0.0,0.0,0.0,0.0,0.0,0.0,0.0,0.0,-0.1322,-0.1783,-0.181,-0.1793,-0.1795,-0.175,-0.1726,-0.1726,-0.1736,-0.1706,-0.1639,-0.1624,-0.1617,-0.1617,-0.1617,-0.1617,-0.1617,-0.1617,-0.1609,-0.1643,-0.2069,-0.2599,-0.3129,-0.3462,-0.4135,-0.4851,-0.4782,-0.5213,-0.5893,-0.6045,-0.6474,-0.6973,-0.7127,-0.7371,-0.7645,-0.7645,-0.7583,-0.7554,-0.757,-0.7525,-0.7466,-0.7462,-0.7471,-0.7484,-0.7484,-0.7206,-0.6893,-0.671,-0.6474,-0.6289,-0.6273,-0.6069,-0.5809,-0.5472,-0.5358,-0.516,-0.4774,-0.505,-0.5242,-0.505,-0.5187,-0.5297,-0.5297,-0.5297,-0.5297,-0.5297,-0.5297,-0.5297,-0.5297,-0.5297,-0.5297,-0.5297,-0.5297,-0.5297,-0.5297,-0.5297,-0.5297,-0.5297,-0.5297,-0.5297,-0.5297,-0.5297,-0.5297,0.387,0.3927,0.3974,0.3794,0.3639,0.3412,0.2958,0.2703,0.0,0.0,0.2188,0.2188,0.2188,0.0,0.0,0.0,0.0,0.0,0.0,0.0,0.0,0.0,0.0,0.0,0.0,0.0,0.0,0.0,0.0,0.0,-0.1773,-0.1779,-0.1816,-0.1785,-0.1727,-0.1695,-0.1695,-0.1667,-0.1641,-0.1617,-0.1617,-0.1617,-0.1617,-0.1617,-0.1617,-0.1617,-0.1617,-0.1617,-0.1615,-0.1591,-0.2087,-0.2844,-0.2671,-0.3187,-0.401,-0.3783,-0.4181,-0.4839,-0.5165,-0.581,-0.6597,-0.6909,-0.7166,-0.7278,-0.7282,-0.7078,-0.6936,-0.7285,-0.7179,-0.706,-0.7348,-0.743,-0.7407,-0.7365,-0.7021,-0.6642,-0.6433,-0.6268,-0.6093,-0.5855,-0.5822,-0.5653,-0.5084,-0.5183,-0.5147,-0.4667,-0.4853,-0.5018,-0.4904,-0.4963,-0.5018,-0.5018,-0.5187,-0.5297,-0.5297,-0.5297,-0.5297,-0.5297,-0.5297,-0.5297,-0.5297,-0.5297,-0.5297,-0.5297,-0.5297,-0.5297,-0.5297,-0.5297,-0.5297,-0.5297,-0.5297,-0.5297,0.3818,0.3867,0.3853,0.3732,0.3515,0.3249,0.2876,0.0,0.0,0.2228,0.2188,0.2188,0.2188,0.2197,0.228,0.0,0.0,0.0,0.0,0.0,0.0,0.0,0.0,0.0,0.0,0.0,0.0,0.0,0.0,0.0,-0.1741,-0.1823,-0.1806,-0.1809,-0.175,-0.1718,-0.1718,-0.1636,-0.162,-0.1617,-0.1617,-0.1617,-0.1617,-0.1617,-0.1617,-0.1617,-0.1617,-0.1617,0.0,-0.1613,-0.1648,-0.1722,-0.1713,-0.2315,-0.3103,-0.2832,-0.3359,-0.4303,-0.5157,-0.5538,-0.5781,-0.6786,-0.7175,-0.7293,-0.7141,-0.6695,-0.6327,-0.7034,-0.6763,-0.6496,-0.727,-0.7346,-0.718,-0.698,-0.6768,-0.6559,-0.6427,-0.6242,-0.5991,-0.5526,-0.556,-0.5489,-0.4989,-0.5188,-0.5144,-0.4351,-0.4267,-0.4122,-0.3649,-0.3898,-0.4119,-0.4119,-0.4822,-0.5297,-0.5297,-0.5297,-0.5297,-0.5297,-0.5297,-0.5297,-0.5297,-0.5297,-0.5297,-0.5297,-0.5297,-0.5297,-0.5297,-0.5297,-0.5297,-0.5297,-0.5297,-0.5297,0.3669,0.3827,0.3842,0.3724,0.3499,0.3228,0.2865,0.0,0.0,0.2218,0.2188,0.2188,0.2188,0.2188,0.2232,0.0,0.0,0.0,0.0,0.0,0.0,0.0,0.0,0.0,0.0,0.0,0.0,0.0,0.0,0.0,-0.0272,-0.0695,-0.0958,-0.1022,-0.0468,-0.0667,-0.1714,-0.1173,-0.1111,-0.1617,-0.1617,-0.1617,-0.1617,-0.1617,-0.1617,-0.1617,-0.1617,-0.1617,0.0,-0.1617,-0.161,-0.1595,-0.1558,-0.1764,-0.2094,-0.1946,-0.2422,-0.3269,-0.3724,-0.4214,-0.4726,-0.5198,-0.5411,-0.5537,-0.6083,-0.6005,-0.5735,-0.5673,-0.5286,-0.5059,-0.5673,-0.5657,-0.55,-0.5422,-0.5135,-0.488,-0.4831,-0.4923,-0.4973,-0.4782,-0.4766,-0.4668,-0.4195,-0.4094,-0.388,-0.3254,-0.3372,-0.3453,-0.3259,-0.337,-0.345,-0.345,-0.4426,-0.5069,-0.5069,-0.5069,-0.5069,-0.5069,-0.5069,-0.4987,-0.4825,-0.5046,-0.4963,-0.4522,-0.5022,-0.505,-0.4522,-0.4798,-0.4939,-0.4939,-0.4939,-0.4939,0.3495,0.3689,0.38,0.3639,0.3459,0.3329,0.0,0.0,0.2774,0.2614,0.2587,0.2522,0.2255,0.2188,0.2208,0.0,0.0,0.0,0.0,0.0,0.0,0.0,0.0,0.0,0.0,0.0,0.0,0.0,0.0,0.0,0.1468,0.0725,0.0156,-0.0106,0.0461,0.0254,-0.0926,-0.061,-0.0707,-0.1263,-0.1465,-0.1617,-0.1617,-0.1617,-0.1617,-0.1617,-0.1617,-0.1611,0.0,-0.1604,-0.1593,-0.1572,-0.1529,-0.15,-0.1473,-0.1412,-0.1777,-0.2335,-0.2687,-0.321,-0.3772,-0.4111,-0.4222,-0.428,-0.4681,-0.4743,-0.462,-0.4475,-0.4316,-0.4222,-0.4455,-0.4414,-0.4295,-0.4256,-0.3989,-0.3759,-0.3734,-0.3891,-0.4005,-0.387,-0.391,-0.3823,-0.3338,-0.3225,-0.3045,-0.2613,-0.2679,-0.276,-0.2732,-0.2704,-0.2704,-0.2704,-0.3649,-0.4288,-0.4367,-0.437,-0.437,-0.437,-0.437,-0.4288,-0.4098,-0.4343,-0.4263,-0.3741,-0.4349,-0.4349,-0.3738,-0.4073,-0.4239,-0.4239,-0.4325,-0.4408,0.3168,0.341,0.3563,0.3444,0.3437,0.3597,0.0,0.0,0.3983,0.3574,0.3487,0.322,0.2356,0.2188,0.2208,0.22,0.2209,0.0,0.0,0.0,0.0,0.0,0.0,0.0,0.0,0.0,0.0,0.0,0.0,0.0,0.3133,0.2423,0.1628,0.0829,0.0814,0.0806,0.0756,0.0,-0.0404,-0.0404,-0.1212,-0.1617,-0.1617,-0.1617,-0.1617,-0.1617,-0.1617,-0.16,0.0,-0.1621,-0.1584,-0.1482,-0.1481,-0.1481,-0.1473,-0.1412,-0.1428,-0.1654,-0.251,-0.282,-0.2948,-0.3894,-0.418,-0.4012,-0.3024,-0.2718,-0.2905,-0.3862,-0.4261,-0.4334,-0.4144,-0.4107,-0.4068,-0.3869,-0.3759,-0.3668,-0.3546,-0.3453,-0.3259,-0.2803,-0.2984,-0.3027,-0.2515,-0.2854,-0.3094,-0.2735,-0.2293,-0.1959,-0.1818,-0.1818,-0.1818,-0.1818,-0.2347,-0.2817,-0.309,-0.3118,-0.3118,-0.3118,-0.3118,-0.3118,-0.3118,-0.3118,-0.3118,-0.3118,-0.3118,-0.3118,-0.3118,-0.3118,-0.3118,-0.3118,-0.3456,-0.3769,0.3585,0.3594,0.3581,0.3726,0.3946,0.4155,0.4026,0.0,0.4406,0.3766,0.3572,0.332,0.2654,0.2354,0.2208,0.22,0.2209,0.0,0.0,0.0,0.0,0.0,0.0,0.0,0.0,0.0,0.0,0.0,0.0,0.0,0.3181,0.2977,0.2428,0.1627,0.2175,0.1916,0.0806,0.1109,0.0952,0.0346,0.015,-0.0251,-0.0842,-0.0803,-0.1061,-0.1615,-0.1595,-0.158,-0.1619,-0.1549,-0.1529,-0.151,-0.1489,-0.148,-0.1476,-0.1436,-0.1433,-0.1489,-0.1754,-0.1823,-0.19,-0.2137,-0.2231,-0.2168,-0.1839,-0.2204,-0.2623,-0.2289,-0.2429,-0.2623,-0.2273,-0.2196,-0.2148,-0.2035,-0.2014,-0.199,-0.194,-0.2281,-0.2545,-0.2387,-0.2413,-0.2405,-0.2209,-0.191,-0.1659,-0.1499,-0.1344,-0.1233,-0.1177,-0.1177,-0.1177,-0.1177,-0.1344,-0.1846,-0.2762,-0.2817,-0.2817,-0.2817,-0.2817,-0.2736,-0.2486,-0.2792,-0.2736,-0.2235,-0.2788,-0.2815,-0.2207,-0.2539,-0.279,-0.2959,-0.3297,-0.3522,0.0,0.3619,0.3641,0.3945,0.4279,0.0,0.0,0.0,0.5223,0.4505,0.4356,0.4102,0.3156,0.2763,0.2497,0.2335,0.2263,0.0,0.0,0.0,0.0,0.0,0.0,0.0,0.0,0.0,0.0,0.0,0.0,0.0,0.318,0.318,0.2977,0.2472,0.2927,0.2715,0.1696,0.1846,0.1679,0.1115,0.0834,0.0443,-0.0049,-0.0049,-0.0447,-0.1148,-0.1126,-0.1306,0.0,-0.1517,-0.1502,-0.1443,-0.1471,-0.1463,-0.1461,-0.1397,-0.1383,-0.1415,-0.1397,-0.1376,-0.1351,-0.1314,-0.1295,-0.1282,-0.1303,-0.1694,-0.2015,-0.1456,-0.1443,-0.159,-0.1371,-0.1296,-0.1291,-0.1234,-0.1211,-0.1189,-0.1207,-0.1522,-0.1792,-0.1792,-0.1766,-0.1721,-0.1676,-0.1306,-0.0971,-0.0922,-0.0905,-0.0898,-0.0898,-0.0898,-0.0898,-0.0898,-0.0898,-0.1205,-0.1958,-0.2014,-0.2014,-0.2014,-0.2014,-0.193,-0.1709,-0.1987,-0.193,-0.1456,-0.1984,-0.2011,-0.1456,-0.1762,-0.2041,-0.2293,-0.2629,-0.2854,0.0,0.0,0.0,0.0,0.0,0.0,0.0,0.0,0.0,0.5646,0.564,0.5335,0.3904,0.339,0.3084,0.2684,0.0,0.0,0.0,0.0,0.0,0.0,0.0,0.0,0.0,0.0,0.0,0.0,0.0,0.0,0.3173,0.3173,0.3172,0.3218,0.3218,0.3142,0.3091,0.235,0.1937,0.19,0.1144,0.077,0.078,0.0721,0.0337,0.0,-0.0336,-0.0753,-0.1434,-0.1432,-0.1415,-0.139,-0.1388,-0.1387,-0.1387,-0.1385,-0.1411,-0.1386,-0.1384,-0.1348,-0.1302,-0.13,-0.128,-0.1296,-0.1294,-0.1236,-0.1221,-0.1288,-0.1237,-0.1221,-0.1289,-0.1296,-0.1295,-0.1291,-0.1246,-0.1202,-0.1197,-0.115,-0.1109,-0.1109,-0.1109,-0.1067,-0.1006,-0.101,-0.0982,-0.0921,-0.0893,-0.0903,-0.0901,-0.0872,-0.0844,-0.0842,-0.0814,-0.0814,-0.0788,-0.0871,-0.0898,-0.0898,-0.0898,-0.0898,-0.0898,-0.0898,-0.0898,-0.0898,-0.087,-0.0842,-0.0842,-0.0842,-0.0954,-0.1206,-0.154,-0.1846,0.3515,0.0,0.3582,0.4236,0.4794,0.0,0.0,0.0,0.0,0.0,0.0,0.5231,0.4922,0.4504,0.4127,0.3985,0.0,0.0,0.0,0.0,0.0,0.0,0.0,0.0,0.0,0.0,0.0,0.0,0.0,0.316,0.3114,0.3112,0.3139,0.3141,0.314,0.3106,0.309,0.29,0.2801,0.2701,0.2593,0.2164,0.1455,0.154,0.1163,0.0384,0.0423,0.0,-0.0647,-0.0636,-0.0946,-0.1388,-0.141,-0.1401,-0.1398,-0.1333,-0.1321,-0.1312,-0.1331,-0.1314,-0.1299,-0.1315,-0.1303,-0.1292,-0.123,-0.1234,-0.1287,-0.1294,-0.1291,-0.1287,-0.1295,-0.1296,-0.1284,-0.1236,-0.1214,-0.1189,-0.1142,-0.112,-0.1109,-0.1109,-0.1109,-0.1067,-0.1006,-0.0996,-0.0981,-0.0982,-0.0971,-0.0958,-0.0906,-0.0641,-0.0433,-0.0366,-0.0084,0.0113,0.0174,-0.0484,-0.0898,-0.0898,-0.0898,-0.0898,-0.0898,-0.0898,-0.0898,-0.0898,-0.0561,-0.0364,-0.0364,-0.0252,-0.0252,-0.0308,-0.0587,-0.0754,0.3414,0.3491,0.3776,0.4613,0.5088,0.5491,0.0,0.0,0.0,0.0,0.0,0.0,0.5609,0.0,0.0,0.0,0.0,0.0,0.0,0.0,0.0,0.0,0.0,0.0,0.0,0.0,0.0,0.0,0.0,0.3851,0.3729,0.3726,0.366,0.343,0.34,0.326,0.3056,0.307,0.3025,0.2965,0.2986,0.2762,0.2314,0.2342,0.1931,0.1174,0.1185,0.0719,0.0045,-0.0266,-0.0615,-0.0957,-0.126,-0.1382,-0.1369,-0.1311,-0.1298,-0.1284,-0.1308,-0.1294,-0.1319,-0.1302,-0.11,-0.0821,-0.0839,-0.065,-0.054,-0.08,-0.1072,-0.1195,-0.0952,-0.1072,-0.1262,-0.1215,-0.1191,-0.1137,-0.1104,-0.1085,-0.1109,-0.1109,-0.1109,-0.1104,-0.1056,-0.0813,-0.0641,-0.0631,-0.0435,-0.0274,-0.0266,0.0059,0.0232,0.0084,0.042,0.0596,0.0499,0.0029,-0.0344,-0.0517,-0.0396,-0.0393,-0.0561,-0.0589,-0.0589,-0.0589,-0.0336,-0.0112,0.0084,0.014,0.0196,0.0168,-0.0084,-0.0224,0.3292,0.3523,0.401,0.4987,0.5291,0.5578,0.0,0.0,0.0,0.0,0.0,0.0,0.0,0.0,0.0,0.0,0.0,0.0,0.0,0.0,0.0,0.0,0.0,0.0,0.0,0.0,0.0,0.0,0.0,0.4572,0.444,0.4375,0.4128,0.3738,0.3588,0.3375,0.2962,0.2972,0.2953,0.2904,0.2914,0.2944,0.299,0.295,0.2587,0.2014,0.0,0.0,0.0691,0.013,-0.0171,-0.0336,-0.0983,-0.1234,-0.1173,-0.1252,-0.1318,-0.1295,-0.121,-0.1113,-0.1015,-0.105,-0.066,-0.0193,-0.0264,0.0075,0.0412,-0.0036,-0.0552,-0.0861,-0.0403,-0.063,-0.0973,-0.1057,-0.1033,-0.0979,-0.0976,-0.0991,-0.0941,-0.0874,-0.084,-0.084,-0.084,-0.0395,0.0,0.0,0.0444,0.0739,0.0655,0.0947,0.1021,0.0675,0.0927,0.1028,0.0798,0.0741,0.0563,0.0148,0.0316,0.0254,-0.0084,-0.0112,-0.0112,-0.0112,-0.0028,0.0168,0.0505,0.0589,0.0617,0.0617,0.0393,0.028,0.3477,0.3597,0.3833,0.474,0.5174,0.5631,0.0,0.0,0.0,0.0,0.0,0.0,0.0,0.0,0.0,0.0,0.0,0.0,0.0,0.0,0.0,0.0,0.0,0.0,0.0,0.0,0.0,0.0,0.0,0.4342,0.4254,0.3824,0.3495,0.3387,0.3036,0.2818,0.2733,0.2785,0.2805,0.2798,0.2895,0.2924,0.2933,0.2974,0.285,0.2678,0.0,0.2193,0.1436,0.1352,0.0927,0.0294,-0.0331,-0.0533,-0.0612,-0.112,-0.1307,-0.1221,-0.0733,-0.0191,0.0228,0.0149,0.0221,0.0293,0.0357,0.0396,0.0508,0.0932,0.06,0.0183,0.0255,0.0219,0.0036,-0.0355,-0.0422,-0.0417,-0.0408,-0.0438,-0.0302,0.0168,0.0269,0.0269,0.0269,0.0603,0.0901,0.0901,0.1196,0.1428,0.1351,0.1677,0.188,0.1774,0.1953,0.2101,0.2108,0.1898,0.1561,0.1101,0.0714,0.0433,0.0309,0.0308,0.0308,0.0308,0.0701,0.0926,0.0982,0.1403,0.1572,0.1572,0.1543,0.1515,0.3255,0.3338,0.3571,0.4337,0.4741,0.0,0.0,0.0,0.0,0.0,0.0,0.0,0.0,0.0,0.0,0.0,0.0,0.0,0.0,0.0,0.0,0.0,0.0,0.0,0.0,0.0,0.0,0.0,0.0,0.0,0.536,0.4794,0.424,0.3693,0.3484,0.3155,0.2594,0.2654,0.2718,0.2783,0.2812,0.2826,0.2826,0.2896,0.286,0.2732,0.0,0.2501,0.2105,0.1691,0.1351,0.1012,0.0406,0.0121,0.012,-0.0158,-0.0275,-0.0235,0.0,0.0265,0.049,0.0404,0.0656,0.0943,0.0918,0.1131,0.1416,0.1701,0.1119,0.0471,0.0809,0.067,0.039,0.0172,0.0137,0.0137,0.0135,0.0302,0.0538,0.0773,0.0974,0.1107,0.1107,0.1477,0.1813,0.1813,0.2182,0.2433,0.2322,0.2458,0.2464,0.2141,0.2186,0.2222,0.2181,0.2034,0.1862,0.1651,0.1109,0.0798,0.0786,0.0785,0.0785,0.0785,0.0982,0.1373,0.1958,0.2183,0.2462,0.2768,0.2768,0.2768,0.3158,0.3172,0.3321,0.3884,0.0,0.0,0.0,0.0,0.0,0.0,0.0,0.0,0.0,0.0,0.0,0.0,0.0,0.0,0.0,0.0,0.0,0.0,0.0,0.0,0.0,0.0,0.0,0.0,0.0,0.6484,0.6337,0.5779,0.5114,0.4382,0.4302,0.3752,0.2775,0.2843,0.2808,0.2699,0.2728,0.274,0.2741,0.2755,0.2729,0.2669,0.2621,0.2585,0.252,0.1969,0.1748,0.1714,0.1077,0.0715,0.0584,0.0584,0.066,0.0769,0.0713,0.0781,0.0889,0.083,0.1181,0.157,0.1537,0.1841,0.2214,0.2201,0.1526,0.0922,0.1394,0.1196,0.0897,0.0844,0.084,0.084,0.0941,0.1176,0.1445,0.1579,0.1813,0.1978,0.1978,0.2382,0.2718,0.2718,0.3105,0.3364,0.3221,0.321,0.3011,0.2563,0.248,0.2349,0.2116,0.2095,0.2115,0.2115,0.1712,0.1484,0.1484,0.1596,0.168,0.168,0.168,0.2097,0.2903,0.2903,0.3153,0.3597,0.3597,0.3597,0.3485,0.3387,0.3248,0.3423,0.0,0.0,0.0,0.0,0.0,0.0,0.0,0.0,0.0,0.0,0.0,0.0,0.0,0.0,0.0,0.0,0.0,0.0,0.0,0.0,0.0,0.0,0.0,0.0,0.6806,0.6608,0.6419,0.5862,0.557,0.5495,0.5125,0.4494,0.361,0.3668,0.3268,0.2447,0.256,0.2614,0.2616,0.2673,0.2666,0.2608,0.2604,0.2537,0.2399,0.2415,0.2404,0.228,0.1751,0.1123,0.0493,0.0493,0.086,0.1352,0.1281,0.1621,0.2071,0.2084,0.2099,0.2132,0.2127,0.2159,0.2193,0.2189,0.2126,0.2064,0.2122,0.2123,0.2022,0.1847,0.1811,0.1878,0.2181,0.2283,0.245,0.2958,0.3058,0.3092,0.3092,0.3424,0.3692,0.3692,0.3906,0.3988,0.386,0.3776,0.369,0.3512,0.3278,0.2911,0.2429,0.2602,0.273,0.273,0.2647,0.2597,0.2597,0.3125,0.343,0.343,0.343,0.3458,0.3544,0.3544,0.3569,0.3597,0.3597,0.3597,0.322,0.3158,0.3115,0.3231,0.0,0.0,0.0,0.0,0.0,0.0,0.0,0.0,0.0,0.0,0.0,0.0,0.0,0.0,0.0,0.0,0.0,0.0,0.0,0.0,0.0,0.0,0.0,0.7854,0.7319,0.6968,0.6901,0.6295,0.5868,0.5617,0.5467,0.5066,0.4458,0.3959,0.3515,0.3096,0.2761,0.2561,0.2492,0.2591,0.2681,0.2776,0.2821,0.2786,0.2699,0.2725,0.2572,0.2332,0.213,0.1865,0.1628,0.1628,0.1765,0.1963,0.1876,0.1999,0.22,0.2207,0.2188,0.2188,0.2188,0.2354,0.252,0.252,0.2656,0.2725,0.2322,0.2354,0.2487,0.2417,0.2551,0.2753,0.2855,0.3088,0.3422,0.3959,0.4225,0.4389,0.4389,0.4791,0.4863,0.4097,0.4589,0.4825,0.4294,0.4276,0.425,0.4175,0.4033,0.3784,0.3425,0.3561,0.3591,0.3424,0.3317,0.3264,0.3264,0.3486,0.3597,0.3597,0.3597,0.3793,0.4156,0.4156,0.4322,0.4656,0.503,0.5007,0.3099,0.3027,0.3019,0.0,0.0,0.0,0.0,0.0,0.0,0.0,0.0,0.0,0.0,0.0,0.0,0.0,0.0,0.0,0.0,0.0,0.0,0.0,0.0,0.0,0.0,0.0,0.0,0.8222,0.7712,0.7359,0.7294,0.6873,0.6468,0.6103,0.6148,0.5889,0.5191,0.4708,0.4303,0.3889,0.355,0.3149,0.2771,0.3006,0.3172,0.3314,0.3374,0.324,0.3024,0.294,0.266,0.2299,0.2299,0.2359,0.2449,0.2449,0.2436,0.2413,0.2368,0.2284,0.2243,0.2536,0.2622,0.2654,0.2922,0.3186,0.3353,0.3353,0.3522,0.3591,0.3155,0.2956,0.2921,0.3222,0.3491,0.3658,0.3792,0.4159,0.4525,0.4725,0.509,0.5355,0.5355,0.5657,0.5603,0.4708,0.5119,0.5303,0.4714,0.4665,0.4681,0.4636,0.4521,0.4355,0.4166,0.4324,0.4355,0.4166,0.4236,0.4181,0.3904,0.4042,0.4128,0.4128,0.4128,0.4349,0.4743,0.4956,0.523,0.5595,0.6213,0.6268,0.3193,0.3112,0.0,0.0,0.0,0.0,0.0,0.0,0.0,0.0,0.0,0.0,0.0,0.0,0.0,0.0,0.0,0.0,0.0,0.0,0.0,0.0,0.0,0.0,0.0,0.0,0.0,0.7826,0.7811,0.7717,0.7498,0.7484,0.7394,0.719,0.7384,0.6961,0.5813,0.6078,0.5721,0.4818,0.4938,0.4498,0.3635,0.4018,0.421,0.4207,0.4207,0.3866,0.3299,0.3026,0.2658,0.2334,0.2334,0.2509,0.2833,0.2833,0.2785,0.272,0.272,0.2487,0.2354,0.322,0.352,0.3685,0.455,0.4815,0.4815,0.4815,0.4815,0.4815,0.4815,0.4023,0.346,0.4392,0.4625,0.4691,0.502,0.5521,0.5756,0.5219,0.5554,0.5925,0.5925,0.5921,0.5861,0.5629,0.5489,0.5355,0.5165,0.5001,0.4924,0.4924,0.468,0.4546,0.4543,0.4763,0.4928,0.4924,0.5485,0.5434,0.4546,0.5018,0.5301,0.5297,0.5301,0.5301,0.5301,0.5914,0.6209,0.6236,0.6837,0.7112,0.3324,0.3177,0.0,0.0,0.0,0.0,0.0,0.0,0.0,0.0,0.0,0.0,0.0,0.0,0.0,0.0,0.0,0.0,0.0,0.0,0.0,0.0,0.0,0.0,0.0,0.0,0.7759,0.7403,0.7375,0.7346,0.728,0.7111,0.6972,0.6915,0.7171,0.712,0.6773,0.6335,0.5988,0.5712,0.5363,0.4944,0.4445,0.4648,0.4827,0.4971,0.5032,0.493,0.4641,0.3966,0.3605,0.3505,0.3505,0.3791,0.4201,0.4201,0.418,0.4184,0.4184,0.4118,0.4084,0.4317,0.4417,0.445,0.4716,0.4981,0.5143,0.5143,0.5348,0.5587,0.5587,0.5355,0.509,0.5084,0.5319,0.5557,0.5657,0.5789,0.5954,0.6178,0.6346,0.6478,0.6478,0.6975,0.7064,0.6153,0.6792,0.7298,0.7088,0.7025,0.7009,0.7009,0.7077,0.7053,0.6912,0.7022,0.702,0.6891,0.6961,0.6507,0.5462,0.5572,0.5599,0.5513,0.5896,0.6028,0.5941,0.6539,0.6837,0.6837,0.7396,0.745,0.3228,0.0,0.0,0.0,0.0,0.0,0.0,0.0,0.0,0.0,0.0,0.0,0.0,0.0,0.0,0.0,0.0,0.0,0.0,0.0,0.0,0.0,0.0,0.0,0.0,0.0,0.731,0.7054,0.7036,0.7036,0.7036,0.6887,0.6754,0.6699,0.6927,0.6998,0.6908,0.655,0.6425,0.6529,0.6097,0.5845,0.5751,0.5705,0.575,0.5844,0.5679,0.5497,0.5243,0.4746,0.4447,0.4314,0.4314,0.458,0.5011,0.5011,0.5011,0.5011,0.5011,0.4915,0.4848,0.5213,0.5312,0.5378,0.5774,0.6001,0.6166,0.6166,0.6338,0.6609,0.6868,0.6929,0.6765,0.6038,0.6046,0.6218,0.6218,0.6379,0.6576,0.6675,0.7097,0.7363,0.7246,0.7881,0.8077,0.7125,0.7604,0.803,0.7922,0.7898,0.7898,0.7898,0.8021,0.8024,0.791,0.7934,0.7909,0.7783,0.7711,0.7364,0.6674,0.6544,0.6431,0.6344,0.6669,0.6804,0.6718,0.7321,0.7622,0.7622,0.817,0.8223,0.0,0.0,0.0,0.0,0.0,0.0,0.0,0.0,0.0,0.0,0.0,0.0,0.0,0.0,0.0,0.0,0.0,0.0,0.0,0.0,0.0,0.0,0.0,0.0,0.0,0.0,0.6787,0.6768,0.6763,0.6763,0.6763,0.6744,0.6646,0.6483,0.668,0.6699,0.6506,0.6684,0.6915,0.7161,0.6911,0.692,0.7166,0.6838,0.6731,0.6715,0.6243,0.5815,0.5441,0.5441,0.5243,0.4981,0.4981,0.517,0.5486,0.5503,0.55,0.5486,0.5503,0.5309,0.5176,0.6038,0.6305,0.6502,0.7391,0.7684,0.7684,0.7619,0.7619,0.7814,0.8361,0.8554,0.8323,0.7167,0.6887,0.6835,0.6773,0.7149,0.733,0.6911,0.77,0.8355,0.8109,0.8571,0.8842,0.8399,0.8163,0.8057,0.8057,0.8057,0.8057,0.8057,0.8057,0.8057,0.8057,0.8057,0.8057,0.8057,0.8057,0.8057,0.8057,0.7732,0.7519,0.7519,0.7572,0.7599,0.7572,0.8176,0.8474,0.8474,0.9028,0.9211,0.0,0.0,0.0,0.0,0.0,0.0,0.0,0.0,0.0,0.0,0.0,0.0,0.0,0.0,0.0,0.0,0.0,0.0,0.0,0.0,0.0,0.0,0.0,0.0,0.0,0.0,0.6726,0.6581,0.6572,0.6572,0.6572,0.6421,0.6313,0.6271,0.6464,0.6548,0.6501,0.6684,0.6815,0.6887,0.6815,0.6815,0.6887,0.6812,0.6883,0.7107,0.7131,0.6868,0.6408,0.6408,0.6342,0.6305,0.6305,0.6485,0.6822,0.6969,0.6933,0.6826,0.6973,0.6994,0.7027,0.7739,0.7999,0.8129,0.8839,0.9069,0.8973,0.8425,0.8651,0.8973,0.8587,0.8877,0.9145,0.8623,0.8318,0.7972,0.7456,0.7301,0.7346,0.7646,0.7788,0.8015,0.8402,0.8811,0.9125,0.9271,0.9265,0.9242,0.9242,0.9242,0.9242,0.9242,0.9242,0.9242,0.9242,0.9242,0.9242,0.9242,0.9242,0.9242,0.9242,0.8323,0.7765,0.7664,0.8117,0.8302,0.8203,0.8765,0.9028,0.9054,0.9588,0.9814,0.0,0.0,0.0,0.0,0.0,0.0,0.0,0.0,0.0,0.0,0.0,0.0,0.0,0.0,0.0,0.0,0.0,0.0,0.0,0.0,0.0,0.0,0.0,0.0,0.0,0.0,0.6734,0.6564,0.6341,0.6314,0.6532,0.6314,0.6205,0.6205,0.6205,0.6252,0.6356,0.637,0.6473,0.6666,0.6856,0.6949,0.6959,0.6981,0.7002,0.7021,0.7261,0.7131,0.6768,0.6894,0.6876,0.6768,0.6894,0.6971,0.7026,0.713,0.7283,0.7466,0.7744,0.8006,0.8286,0.8633,0.8839,0.9009,0.9204,0.9268,0.9199,0.8854,0.8893,0.9076,0.9046,0.9297,0.9504,0.9329,0.9009,0.8606,0.8141,0.7936,0.7943,0.824,0.8468,0.8662,0.8823,0.9343,0.9785,0.9955,1.0208,1.0379,1.0379,1.0379,1.0379,1.0379,1.0379,1.0379,1.0379,1.0379,1.0379,1.0379,1.0379,1.0379,1.0379,0.9806,0.9332,0.9007,0.9555,0.9814,0.9736,1.0028,1.0156,1.0156,1.0431,1.055,0.0,0.0,0.0,0.0,0.0,0.0,0.0,0.0,0.0,0.0,0.0,0.0,0.0,0.0,0.0,0.0,0.0,0.0,0.0,0.0,0.0,0.0,0.0,0.0,0.0,0.0,0.6728,0.6563,0.6242,0.6267,0.6724,0.6522,0.6414,0.6414,0.6158,0.6082,0.6226,0.6003,0.6089,0.6476,0.6928,0.7122,0.7106,0.721,0.7046,0.6779,0.7135,0.7099,0.6835,0.7159,0.7094,0.681,0.704,0.704,0.6918,0.6957,0.7299,0.7822,0.8152,0.8571,0.8962,0.9084,0.9297,0.95,0.9334,0.929,0.9272,0.9199,0.9082,0.9055,0.9558,0.9742,0.9775,0.9728,0.9532,0.9226,0.8734,0.8604,0.8597,0.8742,0.931,0.9714,0.9562,1.0106,1.0566,1.0592,1.0973,1.1225,1.1225,1.12,1.12,1.12,1.12,1.12,1.12,1.12,1.12,1.12,1.12,1.12,1.12,1.1309,1.1158,1.071,1.1032,1.12,1.12,1.12,1.12,1.12,1.1309,1.1342,0.0,0.0,0.0,0.0,0.0,0.0,0.0,0.0,0.0,0.0,0.0,0.0,0.0,0.0,0.0,0.0,0.0,0.0,0.0,0.0,0.0,0.0,0.0,0.0,0.0,0.0,0.0,0.6355,0.655,0.6872,0.7273,0.7257,0.7249,0.7249,0.6766,0.6441,0.6288,0.603,0.6044,0.6335,0.7036,0.7266,0.7095,0.7302,0.708,0.6587,0.7323,0.732,0.6851,0.7415,0.729,0.6796,0.6854,0.7052,0.7333,0.7509,0.7806,0.8171,0.8457,0.8605,0.8752,0.9346,0.9548,0.9692,1.0227,1.0386,1.0327,1.004,1.013,1.03,1.0076,1.0243,1.0407,1.025,1.0521,1.0451,0.9073,0.8598,0.863,0.9272,0.9955,1.0635,1.1175,1.1276,1.1316,1.1416,1.1391,1.1366,1.1366,1.1267,1.12,1.12,1.12,1.12,1.12,1.12,1.12,1.12,1.12,1.12,1.12,1.1694,1.1952,1.1877,1.1435,1.12,1.12,1.12,1.12,1.12,1.1744,1.2181,0.0,0.0,0.0,0.0,0.0,0.0,0.0,0.0,0.0,0.0,0.0,0.0,0.0,0.0,0.0,0.0,0.0,0.0,0.0,0.0,0.0,0.0,0.0,0.0,0.0,0.0,0.0,0.6899,0.6783,0.7008,0.7584,0.7327,0.7246,0.7394,0.6907,0.6679,0.6701,0.6462,0.6625,0.7152,0.7325,0.7536,0.7765,0.7711,0.7367,0.6865,0.7341,0.7481,0.7453,0.7818,0.7767,0.7431,0.7542,0.761,0.768,0.7795,0.812,0.8578,0.8886,0.9186,0.949,0.9778,1.0016,1.0236,1.0639,1.0559,1.0338,1.0506,1.0509,1.0454,1.0399,1.0496,1.0681,1.0962,1.0973,1.085,1.0554,1.0329,1.0282,1.0603,1.0929,1.125,1.1541,1.1789,1.1987,1.2036,1.2258,1.2414,1.2414,1.235,1.2325,1.2325,1.228,1.2264,1.2264,1.219,1.2255,1.253,1.253,1.2667,1.2923,1.3174,1.3338,1.3338,1.255,1.228,1.253,1.253,1.2677,1.2948,1.3208,1.3447,0.0,0.0,0.0,0.0,0.0,0.0,0.0,0.0,0.0,0.0,0.0,0.0,0.0,0.0,0.0,0.0,0.0,0.0,0.0,0.0,0.0,0.0,0.0,0.0,0.0,0.0,0.0,0.7251,0.7013,0.7198,0.7869,0.7532,0.7391,0.7591,0.711,0.6893,0.6998,0.6855,0.7096,0.7736,0.7642,0.7845,0.8287,0.8094,0.7838,0.7542,0.7698,0.7806,0.7916,0.823,0.8166,0.7916,0.8072,0.8133,0.8137,0.8137,0.8508,0.9041,0.9302,0.9648,0.998,0.998,1.0141,1.0398,1.0731,1.0546,1.0356,1.1022,1.0954,1.0761,1.0937,1.0921,1.0965,1.1411,1.1294,1.1221,1.1697,1.1749,1.1749,1.1888,1.1873,1.1898,1.2086,1.2414,1.2667,1.2691,1.3016,1.3239,1.3223,1.3338,1.3406,1.3377,1.3327,1.329,1.329,1.3172,1.3256,1.3645,1.3773,1.4001,1.434,1.434,1.434,1.4305,1.361,1.343,1.3776,1.3776,1.3954,1.4305,1.4305,1.4363,0.0,0.0,0.0,0.0,0.0,0.0,0.0,0.0,0.0,0.0,0.0,0.0,0.0,0.0,0.0,0.0,0.0,0.0,0.0,0.0,0.0,0.0,0.0,0.0,0.0,0.0,0.0,0.0,0.7286,0.7676,0.8157,0.8157,0.8142,0.8157,0.7587,0.719,0.7004,0.6991,0.7173,0.7511,0.7941,0.8205,0.8305,0.8293,0.8434,0.8725,0.8712,0.8415,0.7951,0.8527,0.8415,0.7898,0.7916,0.8256,0.8751,0.8751,0.9093,0.9562,0.9577,0.961,0.9636,0.9636,0.965,0.9762,1.0421,1.0592,1.0792,1.1757,1.1789,1.1604,1.1947,1.1797,1.1478,1.1262,1.1598,1.1917,1.1807,1.1882,1.2123,1.2643,1.2638,1.2745,1.3396,1.3409,1.3386,1.3515,1.3443,1.3374,1.3293,1.369,1.3936,1.3862,1.385,1.385,1.385,1.374,1.3707,1.3872,1.4237,1.4457,1.448,1.448,1.4422,1.4305,1.4247,1.4235,1.4258,1.4258,1.4281,1.4305,1.4305,1.4559,0.0,0.0,0.0,0.0,0.0,0.0,0.0,0.0,0.0,0.0,0.0,0.0,0.0,0.0,0.0,0.0,0.0,0.0,0.0,0.0,0.0,0.0,0.0,0.0,0.0,0.0,0.0,0.0,0.0,0.7802,0.8187,0.8004,0.799,0.8194,0.7795,0.7518,0.7454,0.7454,0.7511,0.7624,0.8012,0.8206,0.8238,0.8466,0.8615,0.8721,0.8721,0.884,0.8993,0.9052,0.9029,0.896,0.8808,0.8978,0.9302,0.9302,0.964,1.0113,1.0113,1.0113,1.0164,1.0515,1.0456,1.0415,1.1359,1.145,1.1392,1.2086,1.2206,1.2172,1.237,1.2592,1.2816,1.3118,1.308,1.3038,1.3354,1.3476,1.3695,1.4177,1.4235,1.416,1.4071,1.4016,1.3861,1.351,1.3423,1.34,1.3374,1.3507,1.3615,1.3585,1.3499,1.3601,1.4002,1.3904,1.4126,1.4819,1.5004,1.5343,1.594,1.5983,1.6102,1.6336,1.6058,1.5533,1.48,1.5017,1.5276,1.5599,1.5854,1.6064,0.0,0.0,0.0,0.0,0.0,0.0,0.0,0.0,0.0,0.0,0.0,0.0,0.0,0.0,0.0,0.0,0.0,0.0,0.0,0.0,0.0,0.0,0.0,0.0,0.0,0.0,0.0,0.0,0.7691,0.0,0.8026,0.7808,0.7814,0.8034,0.7808,0.7691,0.7691,0.7691,0.7691,0.7698,0.7931,0.8099,0.8209,0.8421,0.8582,0.8708,0.8888,0.9087,0.9299,0.9236,0.9317,0.946,0.9358,0.9471,0.9658,0.9669,1.0013,1.0456,1.0463,1.0596,1.0787,1.1141,1.1133,1.1116,1.2064,1.2153,1.2061,1.2643,1.2933,1.3102,1.3174,1.3478,1.385,1.4237,1.3928,1.3713,1.4327,1.4264,1.415,1.446,1.4525,1.448,1.432,1.4127,1.3923,1.3731,1.354,1.339,1.336,1.3636,1.3823,1.3816,1.3827,1.4089,1.4678,1.4644,1.4955,1.5871,1.608,1.645,1.7089,1.711,1.7222,1.7483,1.7188,1.6663,1.5908,1.5908,1.6117,1.6497,1.6778,1.6897,0.0,0.0,0.0,0.0,0.0,0.0,0.0,0.0,0.0,0.0,0.0,0.0,0.0,0.0,0.0,0.0,0.0,0.0,0.0,0.0,0.0,0.0,0.0,0.0,0.0,0.0,0.0,0.0,0.7719,0.7691,0.7719,0.7719,0.7719,0.7712,0.7712,0.7712,0.7712,0.7712,0.7712,0.7712,0.7712,0.788,0.8187,0.8187,0.8378,0.8726,0.9244,0.9182,0.8755,0.908,0.9227,0.9239,0.9519,0.9688,0.9802,0.9804,1.017,1.0637,1.0627,1.0981,1.1433,1.1441,1.1532,1.1747,1.2395,1.2614,1.2749,1.3413,1.4001,1.4398,1.4398,1.4395,1.4392,1.4423,1.4,1.3821,1.4628,1.4054,1.339,1.3456,1.3456,1.3625,1.4224,1.3826,1.3613,1.4201,1.3803,1.3411,1.3347,1.4121,1.4658,1.4605,1.4879,1.5329,1.5951,1.5941,1.6211,1.697,1.7456,1.772,1.772,1.772,1.7666,1.7544,1.7537,1.7524,1.7537,1.6879,1.6671,1.6918,1.6939,1.6939,0.5812,0.0,0.0,0.0,0.0,0.0,0.5355,0.5764,0.5968,0.0,0.0,0.0,0.0,0.0,0.0,0.0,0.0,0.0,0.0,0.0,0.0,0.0,0.0,0.0,0.0,0.0,0.0,0.0,0.7949,0.7732,0.7836,0.7836,0.787,0.7925,0.7925,0.7925,0.7925,0.7925,0.7925,0.7925,0.7925,0.797,0.8061,0.8061,0.8282,0.8715,0.8854,0.9002,0.9153,0.9486,0.9569,0.951,0.9686,0.9716,0.97,1.0048,1.0725,1.1462,1.1462,1.1763,1.2193,1.2584,1.2335,1.2002,1.2573,1.273,1.2867,1.3494,1.3983,1.4403,1.4763,1.4273,1.3921,1.4896,1.4216,1.3686,1.4779,1.3938,1.3413,1.492,1.4855,1.4631,1.4841,1.4341,1.4002,1.4257,1.4154,1.405,1.4044,1.4247,1.4405,1.4376,1.4479,1.4921,1.591,1.5987,1.6434,1.7509,1.7706,1.7908,1.8266,1.8285,1.8403,1.8655,1.8369,1.8291,1.8428,1.7854,1.7625,1.77,1.7935,1.8069,0.0,0.0,0.0,0.0,0.0,0.0,0.5836,0.5901,0.5767,0.0,0.0,0.0,0.0,0.0,0.0,0.0,0.0,0.0,0.0,0.0,0.0,0.0,0.0,0.0,0.0,0.8233,0.8184,0.876,0.8204,0.793,0.8178,0.8186,0.82,0.8255,0.8097,0.8,0.8,0.8,0.8,0.8,0.8206,0.8288,0.8308,0.8472,0.8695,0.8958,0.9179,0.9419,0.9655,1.0085,1.0035,0.9703,0.9922,0.999,1.0013,1.025,1.087,1.1579,1.1554,1.1879,1.2332,1.2642,1.2552,1.2436,1.2999,1.3292,1.3495,1.3849,1.4211,1.4579,1.5056,1.4797,1.4647,1.5459,1.4844,1.4328,1.5193,1.4285,1.3601,1.4624,1.4305,1.406,1.459,1.4173,1.396,1.4552,1.4433,1.43,1.43,1.4429,1.4509,1.4509,1.4636,1.5126,1.6163,1.64,1.6956,1.8016,1.8243,1.8461,1.8745,1.8745,1.886,1.9101,1.886,1.8803,1.8917,1.8358,1.8135,1.8214,1.8406,1.8498,0.0,0.0,0.0,0.0,0.0,0.0,0.6706,0.6232,0.5608,0.5798,0.0,0.0,0.0,0.0,0.0,0.0,0.0,0.0,0.0,0.0,0.0,0.0,0.0,0.0,0.8997,0.8448,0.8386,0.9121,0.8545,0.8294,0.8666,0.8689,0.8666,0.8635,0.8284,0.808,0.8041,0.8041,0.8062,0.8124,0.8533,0.8756,0.8817,0.9179,0.9359,0.9439,0.9922,1.0147,1.0225,1.0709,1.0488,0.9899,1.0228,1.0414,1.0476,1.0456,1.083,1.1327,1.1274,1.1643,1.218,1.218,1.2457,1.2878,1.3433,1.3845,1.413,1.4294,1.4542,1.4847,1.5263,1.5561,1.5766,1.5855,1.5428,1.5139,1.5566,1.4666,1.3699,1.3391,1.2851,1.2794,1.3932,1.3678,1.3722,1.4931,1.4654,1.4317,1.4417,1.47,1.4887,1.4934,1.5208,1.5711,1.6529,1.6928,1.7478,1.8298,1.8764,1.8999,1.8999,1.9058,1.9101,1.9101,1.9139,1.9139,1.9101,1.8562,1.84,1.8576,1.8576,1.8576,0.0,0.0,0.0,0.0,0.0,0.0,0.7261,0.726,0.7003,0.0,0.0,0.0,0.0,0.0,0.0,0.0,0.0,0.0,0.0,0.0,0.0,0.0,0.0,0.0,0.9167,0.8825,0.8886,0.9675,0.9299,0.908,0.915,0.9158,0.9079,0.8848,0.8769,0.8595,0.8332,0.8332,0.8488,0.8814,0.8895,0.9108,0.9421,0.95,0.9746,1.0118,1.0225,1.0438,1.0747,1.0862,1.0614,1.0233,1.0637,1.0587,1.0378,1.0695,1.1125,1.1542,1.1521,1.2026,1.2658,1.2658,1.2688,1.2738,1.2859,1.29,1.3154,1.4237,1.4782,1.5048,1.5136,1.4931,1.4749,1.5053,1.4453,1.3994,1.4616,1.3551,1.2688,1.3388,1.344,1.356,1.4227,1.3853,1.3882,1.5086,1.4714,1.4558,1.5256,1.5403,1.5536,1.574,1.5826,1.6053,1.656,1.6675,1.6934,1.743,1.803,1.839,1.839,1.884,1.9101,1.9101,1.931,1.931,1.9101,1.8988,1.895,1.8969,1.8969,1.8969,0.0,0.0,0.0,0.7368,0.0,0.0,0.0,0.7818,0.756,0.7475,0.7322,0.0,0.0,0.0,0.0,0.0,0.0,0.0,0.0,0.0,0.0,0.0,0.0,0.0,0.9296,0.9021,0.9037,0.9597,0.9811,0.981,0.9605,0.9597,0.9462,0.9159,0.9196,0.9034,0.87,0.8906,0.9099,0.9299,0.9527,0.9765,0.9952,1.0157,1.038,1.0603,1.0603,1.0699,1.091,1.091,1.0785,1.0622,1.0824,1.0909,1.0907,1.09,1.1189,1.155,1.155,1.1797,1.2169,1.2396,1.2545,1.2703,1.3009,1.3343,1.376,1.4616,1.4897,1.4966,1.5001,1.4943,1.4881,1.4819,1.4443,1.4112,1.4136,1.3623,1.325,1.3634,1.4187,1.4582,1.4517,1.4256,1.44,1.5432,1.5255,1.5224,1.5823,1.584,1.584,1.5997,1.5996,1.6119,1.6424,1.6638,1.6877,1.7237,1.8063,1.8545,1.8545,1.9185,1.9378,1.9004,1.9131,1.9075,1.8789,1.8789,1.8892,1.9101,1.9101,1.9101,0.0,0.0,0.0,0.0,0.0,0.8136,0.0,0.0,0.0,0.8218,0.7801,0.0,0.0,0.0,0.0,0.0,0.0,0.0,0.0,0.0,0.0,0.0,0.0,0.0,0.9223,0.9265,0.9296,0.9405,1.018,1.043,0.9922,1.0059,0.9931,0.9406,0.9622,0.955,0.9136,0.9446,0.9695,0.9877,1.0156,1.0341,1.0429,1.0747,1.091,1.091,1.091,1.09,1.0949,1.0949,1.0976,1.1071,1.1023,1.122,1.146,1.1231,1.1333,1.1627,1.1627,1.1664,1.1774,1.2084,1.2478,1.2887,1.3386,1.4065,1.4715,1.4989,1.4997,1.4949,1.4997,1.5168,1.5255,1.5039,1.4808,1.453,1.4041,1.4126,1.422,1.3982,1.4835,1.5412,1.4808,1.474,1.5044,1.5872,1.5788,1.58,1.6241,1.6203,1.615,1.615,1.615,1.6191,1.6301,1.6598,1.6861,1.7038,1.7974,1.8514,1.8514,1.9212,1.9318,1.8726,1.8761,1.8661,1.8389,1.8442,1.867,1.9101,1.9101,1.912,0.0,0.0,0.0,0.0,0.8784,0.0,0.9721,0.0,0.9405,0.9481,0.0,0.0,0.0,0.0,0.0,0.0,0.0,0.0,0.0,0.0,0.0,0.0,0.0,0.0,0.0,0.9885,1.0179,0.946,1.0523,1.0831,0.9946,1.0698,1.0605,0.9437,1.0212,1.032,0.9636,0.9609,1.0012,1.0829,1.0459,1.0487,1.0824,1.0881,1.091,1.091,1.091,1.0968,1.1092,1.1092,1.1325,1.1682,1.1497,1.146,1.1534,1.1859,1.1986,1.2041,1.2041,1.2228,1.2478,1.2532,1.301,1.3581,1.3663,1.4227,1.488,1.4911,1.5162,1.5418,1.5433,1.5236,1.5197,1.5811,1.5211,1.4503,1.4437,1.4498,1.4528,1.4444,1.505,1.5486,1.5113,1.5234,1.5618,1.6256,1.5822,1.5731,1.6538,1.663,1.6644,1.6699,1.6712,1.6594,1.6328,1.6335,1.6314,1.616,1.6758,1.7137,1.7137,1.7771,1.8087,1.8012,1.8252,1.8236,1.7963,1.8205,1.8599,1.9101,1.9101,1.9232,0.0,0.0,0.0,0.0,0.0,0.0,0.9472,0.0,1.0122,0.0,0.0,0.0,0.0,0.0,0.0,0.0,0.8675,0.0,0.0,0.0,0.0,0.0,0.0,0.0,0.0,0.0,0.0,0.9748,1.0753,1.1189,1.0798,1.1374,1.1379,1.0649,1.1255,1.1353,1.0804,1.0767,1.0955,1.1348,1.0873,1.0747,1.091,1.091,1.091,1.093,1.1201,1.1341,1.1415,1.1675,1.1902,1.2108,1.2259,1.2301,1.2301,1.2234,1.236,1.2579,1.2794,1.2812,1.2841,1.3272,1.3742,1.4198,1.4406,1.469,1.5013,1.5195,1.5096,1.4961,1.5157,1.4826,1.4542,1.5046,1.4495,1.3876,1.3916,1.4063,1.4245,1.4469,1.5349,1.6095,1.619,1.6165,1.6285,1.6687,1.6441,1.6272,1.6399,1.6672,1.6731,1.637,1.6676,1.6853,1.6725,1.6633,1.6554,1.6474,1.7036,1.7539,1.7926,1.8207,1.8191,1.7788,1.7891,1.7817,1.7548,1.7668,1.8157,1.8968,1.8968,1.928,0.7909,0.0,0.0,0.0,0.0,0.0,0.0,0.0,0.0,0.0,0.0,0.0,0.0,0.0,0.0,0.0,0.0,0.9087,0.0,0.0,0.0,0.0,0.0,0.0,0.0,0.0,0.9902,0.9882,1.0836,1.132,1.1072,1.1704,1.1844,1.1311,1.2004,1.22,1.1815,1.1653,1.1654,1.1768,1.1199,1.093,1.0968,1.1042,1.1118,1.1174,1.1597,1.1806,1.1872,1.2216,1.2431,1.2579,1.2968,1.3191,1.3238,1.2881,1.2951,1.3242,1.36,1.3537,1.3429,1.397,1.4358,1.4674,1.4922,1.5089,1.5225,1.5566,1.5325,1.5035,1.536,1.4983,1.4642,1.5082,1.4551,1.3935,1.3972,1.4323,1.4647,1.475,1.5868,1.6897,1.7218,1.7047,1.6908,1.7109,1.7047,1.6893,1.6579,1.6897,1.6942,1.6414,1.6792,1.7059,1.7005,1.6917,1.6866,1.6904,1.73,1.7743,1.8208,1.8153,1.7904,1.7415,1.7399,1.7302,1.7103,1.7103,1.7605,1.8572,1.8792,1.9231,0.0,0.0,0.0,0.8679,0.0,0.0,0.0,0.0,1.082,0.0,0.0,0.0,0.0,0.0,0.0,0.0,0.0,0.0,0.0,0.0,0.0,0.0,0.0,0.0,0.0,1.0411,1.0589,0.9683,1.0778,1.1125,1.0285,1.1481,1.1774,1.0843,1.2153,1.2678,1.2279,1.1837,1.184,1.2276,1.1344,1.0968,1.1101,1.1434,1.1653,1.1792,1.2126,1.2342,1.2473,1.249,1.2761,1.3199,1.3546,1.3921,1.4222,1.4016,1.3954,1.4003,1.4358,1.4454,1.4454,1.4485,1.4705,1.4997,1.5013,1.527,1.5653,1.5983,1.6107,1.6214,1.6485,1.6205,1.6019,1.6754,1.6063,1.5238,1.5249,1.5861,1.6225,1.5593,1.6709,1.7788,1.795,1.768,1.7462,1.7474,1.7474,1.7474,1.747,1.7474,1.7427,1.7273,1.7277,1.7216,1.7018,1.6993,1.7055,1.7179,1.7142,1.71,1.7057,1.6817,1.6657,1.6641,1.6641,1.6628,1.6628,1.6628,1.7009,1.7751,1.8543,1.9042,0.0,0.0,0.9159,0.9028,0.0,0.0,0.0,0.0,0.0,0.0,0.0,0.0,0.0,0.0,0.0,0.0,0.0,0.0,0.0,0.0,0.0,0.0,0.0,0.0,0.0,0.0,0.0,1.004,1.0716,1.1105,1.1134,1.2093,1.2506,1.2198,1.295,1.3145,1.2711,1.2327,1.2193,1.2288,1.149,1.1381,1.1884,1.1792,1.1872,1.2162,1.2626,1.2866,1.2936,1.3467,1.3782,1.3964,1.4292,1.4513,1.4622,1.4545,1.4529,1.4489,1.4152,1.4611,1.5183,1.407,1.4324,1.5068,1.5122,1.5325,1.5673,1.6271,1.6132,1.5845,1.6086,1.5717,1.5401,1.578,1.5219,1.4569,1.4575,1.4932,1.532,1.5573,1.6591,1.7579,1.8108,1.811,1.7938,1.7658,1.7624,1.741,1.6846,1.7188,1.7327,1.6881,1.727,1.7589,1.7647,1.7577,1.7396,1.7093,1.7175,1.7126,1.6879,1.6776,1.6686,1.661,1.661,1.661,1.661,1.661,1.721,1.8378,1.8639,1.9077,0.8501,0.9066,0.0,0.929,1.002,0.0,1.0644,0.0,1.1427,0.0,0.0,0.0,0.0,0.0,0.0,0.0,0.0,0.0,0.0,1.0824,0.0,0.0,0.0,0.0,0.0,0.0,0.989,1.0237,1.0655,1.1024,1.1323,1.2037,1.2441,1.2484,1.2931,1.3125,1.2965,1.2605,1.2465,1.2541,1.1908,1.1877,1.2372,1.2288,1.2395,1.2661,1.3143,1.3429,1.3568,1.4092,1.4381,1.4509,1.4856,1.498,1.498,1.498,1.5057,1.509,1.4659,1.5067,1.559,1.435,1.4476,1.5126,1.525,1.539,1.5669,1.6531,1.6479,1.6197,1.6441,1.6015,1.5572,1.5701,1.5157,1.4655,1.4723,1.5112,1.5612,1.6189,1.7059,1.7853,1.8389,1.8477,1.831,1.7833,1.7766,1.7535,1.6874,1.7246,1.741,1.7036,1.7473,1.7867,1.7994,1.7966,1.7755,1.7361,1.7415,1.7349,1.703,1.6917,1.6828,1.6738,1.6738,1.6738,1.6738,1.6738,1.7215,1.8107,1.8362,1.8744]}]]